Wetterdaten: Mittwoch, 31.05.2023
Datum Zeit Temp. I. Temp. A. Feuchte I. Feuchte A. Luftdruck Regen Wind Richtung Richtung Sonnenschein Solar Taupunkt Windchill Windböen
31.05.2023 00:00 20,8 °C 13,0 °C 54 % 73 % 1024,5 hPa 0,0 l/m² 1,6 km/h (1 Bft) N 360 ° 0 min 0 W/m² 8,3 °C 13,0 °C 4,8 km/h (1 Bft)
31.05.2023 00:01 20,8 °C 12,9 °C 54 % 73 % 1024,5 hPa 0,0 l/m² 4,8 km/h (1 Bft) N-NW 337 ° 0 min 0 W/m² 8,2 °C 12,9 °C 8,0 km/h (2 Bft)
31.05.2023 00:02 20,8 °C 12,9 °C 54 % 73 % 1024,5 hPa 0,0 l/m² 1,6 km/h (1 Bft) N-NW 337 ° 0 min 0 W/m² 8,2 °C 12,9 °C 3,2 km/h (1 Bft)
31.05.2023 00:03 20,7 °C 12,8 °C 54 % 73 % 1024,5 hPa 0,0 l/m² 1,6 km/h (1 Bft) N 360 ° 0 min 0 W/m² 8,1 °C 12,8 °C 3,2 km/h (1 Bft)
31.05.2023 00:04 20,8 °C 12,7 °C 54 % 74 % 1024,5 hPa 0,0 l/m² 3,2 km/h (1 Bft) N-NW 337 ° 0 min 0 W/m² 8,2 °C 12,7 °C 4,8 km/h (1 Bft)
31.05.2023 00:05 20,8 °C 12,5 °C 54 % 74 % 1024,6 hPa 0,0 l/m² 0,0 km/h (0 Bft) N-NW 337 ° 0 min 0 W/m² 8,0 °C 12,5 °C 1,6 km/h (1 Bft)
31.05.2023 00:06 20,7 °C 12,4 °C 54 % 74 % 1024,6 hPa 0,0 l/m² 0,0 km/h (0 Bft) N 0 ° 0 min 0 W/m² 7,9 °C 12,4 °C 0,0 km/h (0 Bft)
31.05.2023 00:07 20,7 °C 12,2 °C 54 % 74 % 1024,6 hPa 0,0 l/m² 0,0 km/h (0 Bft) N 0 ° 0 min 0 W/m² 7,7 °C 12,2 °C 0,0 km/h (0 Bft)
31.05.2023 00:08 20,8 °C 11,9 °C 54 % 74 % 1024,6 hPa 0,0 l/m² 0,0 km/h (0 Bft) N 0 ° 0 min 0 W/m² 7,4 °C 11,9 °C 0,0 km/h (0 Bft)
31.05.2023 00:09 20,7 °C 11,7 °C 54 % 76 % 1024,5 hPa 0,0 l/m² 1,6 km/h (1 Bft) W 270 ° 0 min 0 W/m² 7,6 °C 11,7 °C 3,2 km/h (1 Bft)
31.05.2023 00:10 20,8 °C 11,4 °C 55 % 76 % 1024,6 hPa 0,0 l/m² 1,6 km/h (1 Bft) W 270 ° 0 min 0 W/m² 7,3 °C 11,4 °C 3,2 km/h (1 Bft)
31.05.2023 00:11 20,7 °C 11,3 °C 54 % 77 % 1024,6 hPa 0,0 l/m² 1,6 km/h (1 Bft) W 270 ° 0 min 0 W/m² 7,4 °C 11,3 °C 1,6 km/h (1 Bft)
31.05.2023 00:12 20,7 °C 11,1 °C 54 % 78 % 1024,6 hPa 0,0 l/m² 3,2 km/h (1 Bft) W 270 ° 0 min 0 W/m² 7,4 °C 11,1 °C 4,8 km/h (1 Bft)
31.05.2023 00:13 20,7 °C 11,0 °C 54 % 78 % 1024,6 hPa 0,0 l/m² 3,2 km/h (1 Bft) W-SW 247 ° 0 min 0 W/m² 7,3 °C 11,0 °C 4,8 km/h (1 Bft)
31.05.2023 00:14 20,7 °C 10,9 °C 54 % 79 % 1024,6 hPa 0,0 l/m² 1,6 km/h (1 Bft) W-SW 247 ° 0 min 0 W/m² 7,4 °C 10,9 °C 3,2 km/h (1 Bft)
31.05.2023 00:15 20,7 °C 10,8 °C 54 % 80 % 1024,6 hPa 0,0 l/m² 3,2 km/h (1 Bft) W-SW 247 ° 0 min 0 W/m² 7,5 °C 10,8 °C 4,8 km/h (1 Bft)
31.05.2023 00:16 20,7 °C 10,7 °C 55 % 80 % 1024,6 hPa 0,0 l/m² 3,2 km/h (1 Bft) W-SW 247 ° 0 min 0 W/m² 7,4 °C 10,7 °C 3,2 km/h (1 Bft)
31.05.2023 00:17 20,7 °C 10,7 °C 54 % 80 % 1024,7 hPa 0,0 l/m² 1,6 km/h (1 Bft) W-SW 247 ° 0 min 0 W/m² 7,4 °C 10,7 °C 3,2 km/h (1 Bft)
31.05.2023 00:18 20,7 °C 10,6 °C 55 % 80 % 1024,6 hPa 0,0 l/m² 1,6 km/h (1 Bft) W-SW 247 ° 0 min 0 W/m² 7,3 °C 10,6 °C 3,2 km/h (1 Bft)
31.05.2023 00:19 20,7 °C 10,6 °C 55 % 80 % 1024,6 hPa 0,0 l/m² 0,0 km/h (0 Bft) W-SW 247 ° 0 min 0 W/m² 7,3 °C 10,6 °C 1,6 km/h (1 Bft)
31.05.2023 00:20 20,7 °C 10,6 °C 55 % 81 % 1024,6 hPa 0,0 l/m² 1,6 km/h (1 Bft) W-SW 247 ° 0 min 0 W/m² 7,5 °C 10,6 °C 4,8 km/h (1 Bft)
31.05.2023 00:21 20,7 °C 10,6 °C 54 % 81 % 1024,6 hPa 0,0 l/m² 3,2 km/h (1 Bft) W-SW 247 ° 0 min 0 W/m² 7,5 °C 10,6 °C 4,8 km/h (1 Bft)
31.05.2023 00:22 20,7 °C 10,6 °C 55 % 81 % 1024,6 hPa 0,0 l/m² 3,2 km/h (1 Bft) W-SW 247 ° 0 min 0 W/m² 7,5 °C 10,6 °C 6,4 km/h (2 Bft)
31.05.2023 00:23 20,7 °C 10,6 °C 55 % 81 % 1024,7 hPa 0,0 l/m² 1,6 km/h (1 Bft) W-SW 247 ° 0 min 0 W/m² 7,5 °C 10,6 °C 4,8 km/h (1 Bft)
31.05.2023 00:24 20,7 °C 10,6 °C 55 % 81 % 1024,6 hPa 0,0 l/m² 3,2 km/h (1 Bft) W-SW 247 ° 0 min 0 W/m² 7,5 °C 10,6 °C 4,8 km/h (1 Bft)
31.05.2023 00:25 20,7 °C 10,5 °C 55 % 82 % 1024,7 hPa 0,0 l/m² 3,2 km/h (1 Bft) W-SW 247 ° 0 min 0 W/m² 7,6 °C 10,5 °C 4,8 km/h (1 Bft)
31.05.2023 00:26 20,7 °C 10,5 °C 55 % 82 % 1024,7 hPa 0,0 l/m² 3,2 km/h (1 Bft) W-SW 247 ° 0 min 0 W/m² 7,6 °C 10,5 °C 4,8 km/h (1 Bft)
31.05.2023 00:27 20,7 °C 10,4 °C 55 % 82 % 1024,7 hPa 0,0 l/m² 1,6 km/h (1 Bft) W-SW 247 ° 0 min 0 W/m² 7,5 °C 10,4 °C 3,2 km/h (1 Bft)
31.05.2023 00:28 20,7 °C 10,4 °C 55 % 82 % 1024,7 hPa 0,0 l/m² 1,6 km/h (1 Bft) W-SW 247 ° 0 min 0 W/m² 7,5 °C 10,4 °C 3,2 km/h (1 Bft)
31.05.2023 00:29 20,7 °C 10,3 °C 55 % 81 % 1024,7 hPa 0,0 l/m² 1,6 km/h (1 Bft) W-SW 247 ° 0 min 0 W/m² 7,2 °C 10,3 °C 3,2 km/h (1 Bft)
31.05.2023 00:30 20,7 °C 10,3 °C 55 % 82 % 1024,7 hPa 0,0 l/m² 3,2 km/h (1 Bft) W-SW 247 ° 0 min 0 W/m² 7,4 °C 10,3 °C 4,8 km/h (1 Bft)
31.05.2023 00:31 20,7 °C 10,3 °C 55 % 82 % 1024,7 hPa 0,0 l/m² 1,6 km/h (1 Bft) W-SW 247 ° 0 min 0 W/m² 7,4 °C 10,3 °C 3,2 km/h (1 Bft)
31.05.2023 00:32 20,7 °C 10,2 °C 55 % 82 % 1024,7 hPa 0,0 l/m² 1,6 km/h (1 Bft) W-SW 247 ° 0 min 0 W/m² 7,3 °C 10,2 °C 3,2 km/h (1 Bft)
31.05.2023 00:33 20,7 °C 10,2 °C 55 % 82 % 1024,7 hPa 0,0 l/m² 1,6 km/h (1 Bft) W-SW 247 ° 0 min 0 W/m² 7,3 °C 10,2 °C 3,2 km/h (1 Bft)
31.05.2023 00:34 20,7 °C 10,2 °C 55 % 82 % 1024,8 hPa 0,0 l/m² 3,2 km/h (1 Bft) W-SW 247 ° 0 min 0 W/m² 7,3 °C 10,2 °C 4,8 km/h (1 Bft)
31.05.2023 00:35 20,7 °C 10,1 °C 55 % 82 % 1024,7 hPa 0,0 l/m² 3,2 km/h (1 Bft) W-SW 247 ° 0 min 0 W/m² 7,2 °C 10,1 °C 4,8 km/h (1 Bft)
31.05.2023 00:36 20,7 °C 10,1 °C 55 % 82 % 1024,7 hPa 0,0 l/m² 1,6 km/h (1 Bft) W-SW 247 ° 0 min 0 W/m² 7,2 °C 10,1 °C 3,2 km/h (1 Bft)
31.05.2023 00:37 20,7 °C 10,0 °C 55 % 82 % 1024,8 hPa 0,0 l/m² 0,0 km/h (0 Bft) W-SW 247 ° 0 min 0 W/m² 7,1 °C 10,0 °C 1,6 km/h (1 Bft)
31.05.2023 00:38 20,7 °C 10,0 °C 55 % 82 % 1024,7 hPa 0,0 l/m² 3,2 km/h (1 Bft) W-SW 247 ° 0 min 0 W/m² 7,1 °C 10,0 °C 4,8 km/h (1 Bft)
31.05.2023 00:39 20,7 °C 9,9 °C 55 % 82 % 1024,7 hPa 0,0 l/m² 1,6 km/h (1 Bft) W-SW 247 ° 0 min 0 W/m² 7,0 °C 9,9 °C 3,2 km/h (1 Bft)
31.05.2023 00:40 20,7 °C 9,9 °C 55 % 83 % 1024,7 hPa 0,0 l/m² 1,6 km/h (1 Bft) W-SW 247 ° 0 min 0 W/m² 7,2 °C 9,9 °C 3,2 km/h (1 Bft)
31.05.2023 00:41 20,7 °C 9,8 °C 55 % 83 % 1024,7 hPa 0,0 l/m² 1,6 km/h (1 Bft) W-SW 247 ° 0 min 0 W/m² 7,1 °C 9,8 °C 3,2 km/h (1 Bft)
31.05.2023 00:42 20,7 °C 9,9 °C 55 % 83 % 1024,6 hPa 0,0 l/m² 1,6 km/h (1 Bft) W-SW 247 ° 0 min 0 W/m² 7,2 °C 9,9 °C 4,8 km/h (1 Bft)
31.05.2023 00:43 20,7 °C 9,8 °C 55 % 83 % 1024,7 hPa 0,0 l/m² 1,6 km/h (1 Bft) W-SW 247 ° 0 min 0 W/m² 7,1 °C 9,8 °C 3,2 km/h (1 Bft)
31.05.2023 00:44 20,7 °C 9,9 °C 55 % 83 % 1024,7 hPa 0,0 l/m² 1,6 km/h (1 Bft) W-SW 247 ° 0 min 0 W/m² 7,2 °C 9,9 °C 3,2 km/h (1 Bft)
31.05.2023 00:45 20,7 °C 9,9 °C 55 % 83 % 1024,7 hPa 0,0 l/m² 0,0 km/h (0 Bft) W-SW 247 ° 0 min 0 W/m² 7,2 °C 9,9 °C 3,2 km/h (1 Bft)
31.05.2023 00:46 20,7 °C 9,9 °C 55 % 83 % 1024,7 hPa 0,0 l/m² 3,2 km/h (1 Bft) W-SW 247 ° 0 min 0 W/m² 7,2 °C 9,9 °C 6,4 km/h (2 Bft)
31.05.2023 00:47 20,7 °C 9,9 °C 55 % 83 % 1024,6 hPa 0,0 l/m² 1,6 km/h (1 Bft) W-SW 247 ° 0 min 0 W/m² 7,2 °C 9,9 °C 3,2 km/h (1 Bft)
31.05.2023 00:48 20,7 °C 9,9 °C 55 % 83 % 1024,7 hPa 0,0 l/m² 0,0 km/h (0 Bft) W-SW 247 ° 0 min 0 W/m² 7,2 °C 9,9 °C 3,2 km/h (1 Bft)
31.05.2023 00:49 20,7 °C 9,8 °C 55 % 83 % 1024,6 hPa 0,0 l/m² 1,6 km/h (1 Bft) W-SW 247 ° 0 min 0 W/m² 7,1 °C 9,8 °C 3,2 km/h (1 Bft)
31.05.2023 00:50 20,7 °C 9,8 °C 55 % 83 % 1024,7 hPa 0,0 l/m² 1,6 km/h (1 Bft) W-SW 247 ° 0 min 0 W/m² 7,1 °C 9,8 °C 3,2 km/h (1 Bft)
31.05.2023 00:51 20,7 °C 9,8 °C 55 % 83 % 1024,6 hPa 0,0 l/m² 0,0 km/h (0 Bft) W-SW 247 ° 0 min 0 W/m² 7,1 °C 9,8 °C 1,6 km/h (1 Bft)
31.05.2023 00:52 20,7 °C 9,8 °C 55 % 83 % 1024,8 hPa 0,0 l/m² 0,0 km/h (0 Bft) W-SW 247 ° 0 min 0 W/m² 7,1 °C 9,8 °C 1,6 km/h (1 Bft)
31.05.2023 00:53 20,7 °C 9,8 °C 55 % 83 % 1024,7 hPa 0,0 l/m² 0,0 km/h (0 Bft) W-SW 247 ° 0 min 0 W/m² 7,1 °C 9,8 °C 1,6 km/h (1 Bft)
31.05.2023 00:54 20,7 °C 9,8 °C 55 % 83 % 1024,7 hPa 0,0 l/m² 3,2 km/h (1 Bft) W-SW 247 ° 0 min 0 W/m² 7,1 °C 9,8 °C 4,8 km/h (1 Bft)
31.05.2023 00:55 20,7 °C 9,8 °C 55 % 83 % 1024,7 hPa 0,0 l/m² 3,2 km/h (1 Bft) W-SW 247 ° 0 min 0 W/m² 7,1 °C 9,8 °C 4,8 km/h (1 Bft)
31.05.2023 00:56 20,7 °C 9,7 °C 55 % 83 % 1024,7 hPa 0,0 l/m² 0,0 km/h (0 Bft) W-SW 247 ° 0 min 0 W/m² 7,0 °C 9,7 °C 1,6 km/h (1 Bft)
31.05.2023 00:57 20,7 °C 9,7 °C 55 % 83 % 1024,7 hPa 0,0 l/m² 1,6 km/h (1 Bft) W-SW 247 ° 0 min 0 W/m² 7,0 °C 9,7 °C 3,2 km/h (1 Bft)
31.05.2023 00:58 20,7 °C 9,7 °C 55 % 83 % 1024,8 hPa 0,0 l/m² 1,6 km/h (1 Bft) W-SW 247 ° 0 min 0 W/m² 7,0 °C 9,7 °C 3,2 km/h (1 Bft)
31.05.2023 00:59 20,7 °C 9,7 °C 55 % 83 % 1024,7 hPa 0,0 l/m² 0,0 km/h (0 Bft) W-SW 247 ° 0 min 0 W/m² 7,0 °C 9,7 °C 1,6 km/h (1 Bft)
31.05.2023 01:00 20,7 °C 9,7 °C 55 % 83 % 1024,8 hPa 0,0 l/m² 1,6 km/h (1 Bft) W-SW 247 ° 0 min 0 W/m² 7,0 °C 9,7 °C 3,2 km/h (1 Bft)
31.05.2023 01:01 20,7 °C 9,7 °C 55 % 83 % 1024,7 hPa 0,0 l/m² 3,2 km/h (1 Bft) W-SW 247 ° 0 min 0 W/m² 7,0 °C 9,7 °C 4,8 km/h (1 Bft)
31.05.2023 01:02 20,7 °C 9,6 °C 55 % 83 % 1024,7 hPa 0,0 l/m² 0,0 km/h (0 Bft) W-SW 247 ° 0 min 0 W/m² 6,9 °C 9,6 °C 3,2 km/h (1 Bft)
31.05.2023 01:03 20,7 °C 9,6 °C 55 % 83 % 1024,8 hPa 0,0 l/m² 0,0 km/h (0 Bft) W-SW 247 ° 0 min 0 W/m² 6,9 °C 9,6 °C 1,6 km/h (1 Bft)
31.05.2023 01:04 20,7 °C 9,6 °C 55 % 83 % 1024,8 hPa 0,0 l/m² 0,0 km/h (0 Bft) W-SW 247 ° 0 min 0 W/m² 6,9 °C 9,6 °C 1,6 km/h (1 Bft)
31.05.2023 01:05 20,7 °C 9,5 °C 55 % 83 % 1024,7 hPa 0,0 l/m² 0,0 km/h (0 Bft) N 0 ° 0 min 0 W/m² 6,8 °C 9,5 °C 0,0 km/h (0 Bft)
31.05.2023 01:06 20,7 °C 9,4 °C 55 % 83 % 1024,7 hPa 0,0 l/m² 1,6 km/h (1 Bft) W-SW 247 ° 0 min 0 W/m² 6,7 °C 9,4 °C 4,8 km/h (1 Bft)
31.05.2023 01:07 20,7 °C 9,4 °C 55 % 83 % 1024,7 hPa 0,0 l/m² 3,2 km/h (1 Bft) W-SW 247 ° 0 min 0 W/m² 6,7 °C 9,4 °C 4,8 km/h (1 Bft)
31.05.2023 01:08 20,7 °C 9,4 °C 55 % 83 % 1024,7 hPa 0,0 l/m² 0,0 km/h (0 Bft) W-SW 247 ° 0 min 0 W/m² 6,7 °C 9,4 °C 3,2 km/h (1 Bft)
31.05.2023 01:09 20,7 °C 9,3 °C 55 % 83 % 1024,8 hPa 0,0 l/m² 0,0 km/h (0 Bft) N 0 ° 0 min 0 W/m² 6,6 °C 9,3 °C 0,0 km/h (0 Bft)
31.05.2023 01:10 20,7 °C 9,3 °C 55 % 83 % 1024,7 hPa 0,0 l/m² 1,6 km/h (1 Bft) W-SW 247 ° 0 min 0 W/m² 6,6 °C 9,3 °C 3,2 km/h (1 Bft)
31.05.2023 01:11 20,7 °C 9,3 °C 55 % 83 % 1024,8 hPa 0,0 l/m² 1,6 km/h (1 Bft) W-SW 247 ° 0 min 0 W/m² 6,6 °C 9,3 °C 3,2 km/h (1 Bft)
31.05.2023 01:12 20,7 °C 9,2 °C 55 % 83 % 1024,8 hPa 0,0 l/m² 0,0 km/h (0 Bft) W-SW 247 ° 0 min 0 W/m² 6,5 °C 9,2 °C 3,2 km/h (1 Bft)
31.05.2023 01:13 20,7 °C 9,2 °C 55 % 84 % 1024,7 hPa 0,0 l/m² 1,6 km/h (1 Bft) W-SW 247 ° 0 min 0 W/m² 6,6 °C 9,2 °C 4,8 km/h (1 Bft)
31.05.2023 01:14 20,6 °C 9,2 °C 55 % 84 % 1024,7 hPa 0,0 l/m² 1,6 km/h (1 Bft) W-SW 247 ° 0 min 0 W/m² 6,6 °C 9,2 °C 3,2 km/h (1 Bft)
31.05.2023 01:15 20,7 °C 9,2 °C 55 % 84 % 1024,8 hPa 0,0 l/m² 0,0 km/h (0 Bft) W-SW 247 ° 0 min 0 W/m² 6,6 °C 9,2 °C 1,6 km/h (1 Bft)
31.05.2023 01:16 20,7 °C 9,1 °C 55 % 83 % 1024,8 hPa 0,0 l/m² 1,6 km/h (1 Bft) W-SW 247 ° 0 min 0 W/m² 6,4 °C 9,1 °C 3,2 km/h (1 Bft)
31.05.2023 01:17 20,7 °C 8,9 °C 55 % 83 % 1024,9 hPa 0,0 l/m² 1,6 km/h (1 Bft) W-SW 247 ° 0 min 0 W/m² 6,2 °C 8,9 °C 3,2 km/h (1 Bft)
31.05.2023 01:18 20,7 °C 8,7 °C 55 % 83 % 1024,8 hPa 0,0 l/m² 0,0 km/h (0 Bft) W-SW 247 ° 0 min 0 W/m² 6,0 °C 8,7 °C 1,6 km/h (1 Bft)
31.05.2023 01:19 20,7 °C 8,6 °C 55 % 83 % 1024,8 hPa 0,0 l/m² 0,0 km/h (0 Bft) N 0 ° 0 min 0 W/m² 5,9 °C 8,6 °C 0,0 km/h (0 Bft)
31.05.2023 01:20 20,7 °C 8,3 °C 55 % 83 % 1025,0 hPa 0,0 l/m² 0,0 km/h (0 Bft) N 0 ° 0 min 0 W/m² 5,6 °C 8,3 °C 0,0 km/h (0 Bft)
31.05.2023 01:21 20,7 °C 8,3 °C 55 % 84 % 1024,9 hPa 0,0 l/m² 0,0 km/h (0 Bft) N 0 ° 0 min 0 W/m² 5,8 °C 8,3 °C 0,0 km/h (0 Bft)
31.05.2023 01:22 20,7 °C 8,2 °C 55 % 84 % 1024,9 hPa 0,0 l/m² 0,0 km/h (0 Bft) N 0 ° 0 min 0 W/m² 5,7 °C 8,2 °C 0,0 km/h (0 Bft)
31.05.2023 01:23 20,7 °C 8,1 °C 55 % 84 % 1024,8 hPa 0,0 l/m² 0,0 km/h (0 Bft) N 0 ° 0 min 0 W/m² 5,6 °C 8,1 °C 0,0 km/h (0 Bft)
31.05.2023 01:24 20,6 °C 8,1 °C 55 % 85 % 1024,8 hPa 0,0 l/m² 0,0 km/h (0 Bft) N 0 ° 0 min 0 W/m² 5,7 °C 8,1 °C 0,0 km/h (0 Bft)
31.05.2023 01:25 20,7 °C 8,1 °C 55 % 86 % 1024,8 hPa 0,0 l/m² 0,0 km/h (0 Bft) N 0 ° 0 min 0 W/m² 5,9 °C 8,1 °C 0,0 km/h (0 Bft)
31.05.2023 01:26 20,7 °C 8,1 °C 55 % 86 % 1024,7 hPa 0,0 l/m² 0,0 km/h (0 Bft) N 0 ° 0 min 0 W/m² 5,9 °C 8,1 °C 0,0 km/h (0 Bft)
31.05.2023 01:27 20,7 °C 8,1 °C 55 % 86 % 1024,8 hPa 0,0 l/m² 0,0 km/h (0 Bft) N 0 ° 0 min 0 W/m² 5,9 °C 8,1 °C 0,0 km/h (0 Bft)
31.05.2023 01:28 20,7 °C 8,0 °C 55 % 86 % 1024,8 hPa 0,0 l/m² 0,0 km/h (0 Bft) N 0 ° 0 min 0 W/m² 5,8 °C 8,0 °C 0,0 km/h (0 Bft)
31.05.2023 01:29 20,6 °C 8,0 °C 55 % 86 % 1024,8 hPa 0,0 l/m² 0,0 km/h (0 Bft) N 0 ° 0 min 0 W/m² 5,8 °C 8,0 °C 0,0 km/h (0 Bft)
31.05.2023 01:30 20,7 °C 7,9 °C 55 % 86 % 1024,8 hPa 0,0 l/m² 0,0 km/h (0 Bft) N 0 ° 0 min 0 W/m² 5,7 °C 7,9 °C 0,0 km/h (0 Bft)
31.05.2023 01:31 20,6 °C 7,9 °C 55 % 86 % 1024,9 hPa 0,0 l/m² 0,0 km/h (0 Bft) N 0 ° 0 min 0 W/m² 5,7 °C 7,9 °C 0,0 km/h (0 Bft)
31.05.2023 01:32 20,7 °C 7,9 °C 55 % 86 % 1024,8 hPa 0,0 l/m² 0,0 km/h (0 Bft) N 0 ° 0 min 0 W/m² 5,7 °C 7,9 °C 0,0 km/h (0 Bft)
31.05.2023 01:33 20,6 °C 8,0 °C 55 % 86 % 1024,8 hPa 0,0 l/m² 0,0 km/h (0 Bft) N 0 ° 0 min 0 W/m² 5,8 °C 8,0 °C 0,0 km/h (0 Bft)
31.05.2023 01:34 20,7 °C 8,1 °C 55 % 86 % 1024,8 hPa 0,0 l/m² 0,0 km/h (0 Bft) N 0 ° 0 min 0 W/m² 5,9 °C 8,1 °C 0,0 km/h (0 Bft)
31.05.2023 01:35 20,7 °C 8,1 °C 55 % 87 % 1024,7 hPa 0,0 l/m² 0,0 km/h (0 Bft) N 0 ° 0 min 0 W/m² 6,1 °C 8,1 °C 0,0 km/h (0 Bft)
31.05.2023 01:36 20,6 °C 8,1 °C 55 % 86 % 1024,8 hPa 0,0 l/m² 0,0 km/h (0 Bft) N 0 ° 0 min 0 W/m² 5,9 °C 8,1 °C 0,0 km/h (0 Bft)
31.05.2023 01:37 20,6 °C 8,1 °C 55 % 86 % 1024,8 hPa 0,0 l/m² 0,0 km/h (0 Bft) N 0 ° 0 min 0 W/m² 5,9 °C 8,1 °C 0,0 km/h (0 Bft)
31.05.2023 01:38 20,6 °C 8,1 °C 55 % 86 % 1024,8 hPa 0,0 l/m² 0,0 km/h (0 Bft) N 0 ° 0 min 0 W/m² 5,9 °C 8,1 °C 0,0 km/h (0 Bft)
31.05.2023 01:39 20,6 °C 8,1 °C 55 % 86 % 1024,9 hPa 0,0 l/m² 0,0 km/h (0 Bft) N 0 ° 0 min 0 W/m² 5,9 °C 8,1 °C 0,0 km/h (0 Bft)
31.05.2023 01:40 20,7 °C 8,1 °C 55 % 87 % 1024,8 hPa 0,0 l/m² 1,6 km/h (1 Bft) W-SW 247 ° 0 min 0 W/m² 6,1 °C 8,1 °C 3,2 km/h (1 Bft)
31.05.2023 01:41 20,6 °C 8,2 °C 55 % 87 % 1024,8 hPa 0,0 l/m² 1,6 km/h (1 Bft) W-SW 247 ° 0 min 0 W/m² 6,2 °C 8,2 °C 3,2 km/h (1 Bft)
31.05.2023 01:42 20,6 °C 8,2 °C 55 % 87 % 1024,8 hPa 0,0 l/m² 0,0 km/h (0 Bft) N 0 ° 0 min 0 W/m² 6,2 °C 8,2 °C 0,0 km/h (0 Bft)
31.05.2023 01:43 20,6 °C 8,2 °C 55 % 87 % 1024,8 hPa 0,0 l/m² 0,0 km/h (0 Bft) N 0 ° 0 min 0 W/m² 6,2 °C 8,2 °C 0,0 km/h (0 Bft)
31.05.2023 01:44 20,6 °C 8,3 °C 55 % 87 % 1024,8 hPa 0,0 l/m² 0,0 km/h (0 Bft) N 0 ° 0 min 0 W/m² 6,3 °C 8,3 °C 0,0 km/h (0 Bft)
31.05.2023 01:45 20,7 °C 8,3 °C 55 % 87 % 1024,9 hPa 0,0 l/m² 0,0 km/h (0 Bft) N 0 ° 0 min 0 W/m² 6,3 °C 8,3 °C 0,0 km/h (0 Bft)
31.05.2023 01:46 20,6 °C 8,3 °C 55 % 87 % 1024,8 hPa 0,0 l/m² 0,0 km/h (0 Bft) N 0 ° 0 min 0 W/m² 6,3 °C 8,3 °C 0,0 km/h (0 Bft)
31.05.2023 01:47 20,6 °C 8,3 °C 55 % 87 % 1024,9 hPa 0,0 l/m² 0,0 km/h (0 Bft) N 0 ° 0 min 0 W/m² 6,3 °C 8,3 °C 0,0 km/h (0 Bft)
31.05.2023 01:48 20,6 °C 8,3 °C 55 % 87 % 1024,9 hPa 0,0 l/m² 0,0 km/h (0 Bft) N 0 ° 0 min 0 W/m² 6,3 °C 8,3 °C 0,0 km/h (0 Bft)
31.05.2023 01:49 20,6 °C 8,3 °C 55 % 87 % 1024,9 hPa 0,0 l/m² 0,0 km/h (0 Bft) N 0 ° 0 min 0 W/m² 6,3 °C 8,3 °C 0,0 km/h (0 Bft)
31.05.2023 01:50 20,6 °C 8,4 °C 55 % 87 % 1024,9 hPa 0,0 l/m² 0,0 km/h (0 Bft) N 0 ° 0 min 0 W/m² 6,4 °C 8,4 °C 0,0 km/h (0 Bft)
31.05.2023 01:51 20,6 °C 8,3 °C 55 % 87 % 1024,9 hPa 0,0 l/m² 0,0 km/h (0 Bft) N 0 ° 0 min 0 W/m² 6,3 °C 8,3 °C 0,0 km/h (0 Bft)
31.05.2023 01:52 20,6 °C 8,4 °C 55 % 87 % 1024,9 hPa 0,0 l/m² 0,0 km/h (0 Bft) N 0 ° 0 min 0 W/m² 6,4 °C 8,4 °C 0,0 km/h (0 Bft)
31.05.2023 01:53 20,6 °C 8,4 °C 55 % 87 % 1024,9 hPa 0,0 l/m² 0,0 km/h (0 Bft) N 0 ° 0 min 0 W/m² 6,4 °C 8,4 °C 0,0 km/h (0 Bft)
31.05.2023 01:54 20,6 °C 8,4 °C 55 % 86 % 1024,9 hPa 0,0 l/m² 0,0 km/h (0 Bft) N 0 ° 0 min 0 W/m² 6,2 °C 8,4 °C 0,0 km/h (0 Bft)
31.05.2023 01:55 20,6 °C 8,3 °C 55 % 86 % 1024,9 hPa 0,0 l/m² 0,0 km/h (0 Bft) N 0 ° 0 min 0 W/m² 6,1 °C 8,3 °C 0,0 km/h (0 Bft)
31.05.2023 01:56 20,6 °C 8,3 °C 55 % 86 % 1025,0 hPa 0,0 l/m² 0,0 km/h (0 Bft) N 0 ° 0 min 0 W/m² 6,1 °C 8,3 °C 0,0 km/h (0 Bft)
31.05.2023 01:57 20,6 °C 8,2 °C 55 % 86 % 1024,9 hPa 0,0 l/m² 0,0 km/h (0 Bft) N 0 ° 0 min 0 W/m² 6,0 °C 8,2 °C 0,0 km/h (0 Bft)
31.05.2023 01:58 20,6 °C 8,2 °C 55 % 86 % 1025,0 hPa 0,0 l/m² 0,0 km/h (0 Bft) N 0 ° 0 min 0 W/m² 6,0 °C 8,2 °C 0,0 km/h (0 Bft)
31.05.2023 01:59 20,6 °C 8,1 °C 55 % 86 % 1025,0 hPa 0,0 l/m² 0,0 km/h (0 Bft) N 0 ° 0 min 0 W/m² 5,9 °C 8,1 °C 0,0 km/h (0 Bft)
31.05.2023 02:00 20,6 °C 8,0 °C 55 % 86 % 1025,0 hPa 0,0 l/m² 0,0 km/h (0 Bft) N 0 ° 0 min 0 W/m² 5,8 °C 8,0 °C 0,0 km/h (0 Bft)
31.05.2023 02:01 20,6 °C 7,9 °C 55 % 86 % 1024,9 hPa 0,0 l/m² 0,0 km/h (0 Bft) N 0 ° 0 min 0 W/m² 5,7 °C 7,9 °C 0,0 km/h (0 Bft)
31.05.2023 02:02 20,6 °C 7,8 °C 55 % 86 % 1025,0 hPa 0,0 l/m² 0,0 km/h (0 Bft) N 0 ° 0 min 0 W/m² 5,6 °C 7,8 °C 0,0 km/h (0 Bft)
31.05.2023 02:03 20,6 °C 7,8 °C 55 % 86 % 1024,9 hPa 0,0 l/m² 0,0 km/h (0 Bft) N 0 ° 0 min 0 W/m² 5,6 °C 7,8 °C 0,0 km/h (0 Bft)
31.05.2023 02:04 20,6 °C 7,7 °C 55 % 86 % 1024,9 hPa 0,0 l/m² 0,0 km/h (0 Bft) N 0 ° 0 min 0 W/m² 5,5 °C 7,7 °C 0,0 km/h (0 Bft)
31.05.2023 02:05 20,6 °C 7,6 °C 55 % 86 % 1024,9 hPa 0,0 l/m² 0,0 km/h (0 Bft) N 0 ° 0 min 0 W/m² 5,4 °C 7,6 °C 0,0 km/h (0 Bft)
31.05.2023 02:06 20,6 °C 7,6 °C 55 % 86 % 1025,0 hPa 0,0 l/m² 0,0 km/h (0 Bft) N 0 ° 0 min 0 W/m² 5,4 °C 7,6 °C 0,0 km/h (0 Bft)
31.05.2023 02:07 20,6 °C 7,4 °C 55 % 86 % 1024,9 hPa 0,0 l/m² 0,0 km/h (0 Bft) N 0 ° 0 min 0 W/m² 5,2 °C 7,4 °C 0,0 km/h (0 Bft)
31.05.2023 02:08 20,6 °C 7,4 °C 55 % 86 % 1025,0 hPa 0,0 l/m² 0,0 km/h (0 Bft) N 0 ° 0 min 0 W/m² 5,2 °C 7,4 °C 0,0 km/h (0 Bft)
31.05.2023 02:09 20,6 °C 7,3 °C 55 % 87 % 1025,0 hPa 0,0 l/m² 0,0 km/h (0 Bft) N 0 ° 0 min 0 W/m² 5,3 °C 7,3 °C 0,0 km/h (0 Bft)
31.05.2023 02:10 20,6 °C 7,3 °C 55 % 87 % 1024,9 hPa 0,0 l/m² 0,0 km/h (0 Bft) N 0 ° 0 min 0 W/m² 5,3 °C 7,3 °C 0,0 km/h (0 Bft)
31.05.2023 02:11 20,6 °C 7,4 °C 55 % 87 % 1025,0 hPa 0,0 l/m² 0,0 km/h (0 Bft) N 0 ° 0 min 0 W/m² 5,4 °C 7,4 °C 0,0 km/h (0 Bft)
31.05.2023 02:12 20,6 °C 7,4 °C 55 % 88 % 1025,0 hPa 0,0 l/m² 0,0 km/h (0 Bft) N 0 ° 0 min 0 W/m² 5,5 °C 7,4 °C 0,0 km/h (0 Bft)
31.05.2023 02:13 20,6 °C 7,4 °C 55 % 88 % 1025,0 hPa 0,0 l/m² 0,0 km/h (0 Bft) N 0 ° 0 min 0 W/m² 5,5 °C 7,4 °C 0,0 km/h (0 Bft)
31.05.2023 02:14 20,6 °C 7,3 °C 55 % 87 % 1025,0 hPa 0,0 l/m² 0,0 km/h (0 Bft) N 0 ° 0 min 0 W/m² 5,3 °C 7,3 °C 0,0 km/h (0 Bft)
31.05.2023 02:15 20,6 °C 7,3 °C 55 % 87 % 1024,9 hPa 0,0 l/m² 0,0 km/h (0 Bft) N 0 ° 0 min 0 W/m² 5,3 °C 7,3 °C 0,0 km/h (0 Bft)
31.05.2023 02:16 20,6 °C 7,3 °C 55 % 87 % 1024,9 hPa 0,0 l/m² 0,0 km/h (0 Bft) N 0 ° 0 min 0 W/m² 5,3 °C 7,3 °C 0,0 km/h (0 Bft)
31.05.2023 02:17 20,6 °C 7,3 °C 55 % 88 % 1025,0 hPa 0,0 l/m² 0,0 km/h (0 Bft) W-SW 247 ° 0 min 0 W/m² 5,4 °C 7,3 °C 1,6 km/h (1 Bft)
31.05.2023 02:18 20,6 °C 7,2 °C 55 % 87 % 1024,9 hPa 0,0 l/m² 0,0 km/h (0 Bft) N 0 ° 0 min 0 W/m² 5,2 °C 7,2 °C 0,0 km/h (0 Bft)
31.05.2023 02:19 20,6 °C 7,2 °C 55 % 87 % 1025,0 hPa 0,0 l/m² 0,0 km/h (0 Bft) N 0 ° 0 min 0 W/m² 5,2 °C 7,2 °C 0,0 km/h (0 Bft)
31.05.2023 02:20 20,6 °C 7,2 °C 55 % 88 % 1025,0 hPa 0,0 l/m² 0,0 km/h (0 Bft) N 0 ° 0 min 0 W/m² 5,3 °C 7,2 °C 0,0 km/h (0 Bft)
31.05.2023 02:21 20,6 °C 7,2 °C 55 % 88 % 1025,0 hPa 0,0 l/m² 0,0 km/h (0 Bft) N 0 ° 0 min 0 W/m² 5,3 °C 7,2 °C 0,0 km/h (0 Bft)
31.05.2023 02:22 20,6 °C 7,2 °C 55 % 88 % 1024,9 hPa 0,0 l/m² 0,0 km/h (0 Bft) N 0 ° 0 min 0 W/m² 5,3 °C 7,2 °C 0,0 km/h (0 Bft)
31.05.2023 02:23 20,6 °C 7,2 °C 55 % 88 % 1025,0 hPa 0,0 l/m² 0,0 km/h (0 Bft) N 0 ° 0 min 0 W/m² 5,3 °C 7,2 °C 0,0 km/h (0 Bft)
31.05.2023 02:24 20,6 °C 7,2 °C 55 % 88 % 1025,0 hPa 0,0 l/m² 0,0 km/h (0 Bft) N 0 ° 0 min 0 W/m² 5,3 °C 7,2 °C 0,0 km/h (0 Bft)
31.05.2023 02:25 20,6 °C 7,2 °C 55 % 88 % 1025,0 hPa 0,0 l/m² 0,0 km/h (0 Bft) N 0 ° 0 min 0 W/m² 5,3 °C 7,2 °C 0,0 km/h (0 Bft)
31.05.2023 02:26 20,6 °C 7,2 °C 55 % 88 % 1025,0 hPa 0,0 l/m² 0,0 km/h (0 Bft) N 0 ° 0 min 0 W/m² 5,3 °C 7,2 °C 0,0 km/h (0 Bft)
31.05.2023 02:27 20,6 °C 7,2 °C 55 % 88 % 1025,0 hPa 0,0 l/m² 0,0 km/h (0 Bft) N 0 ° 0 min 0 W/m² 5,3 °C 7,2 °C 0,0 km/h (0 Bft)
31.05.2023 02:28 20,6 °C 7,2 °C 55 % 88 % 1025,0 hPa 0,0 l/m² 0,0 km/h (0 Bft) N 0 ° 0 min 0 W/m² 5,3 °C 7,2 °C 0,0 km/h (0 Bft)
31.05.2023 02:29 20,6 °C 7,2 °C 55 % 88 % 1025,0 hPa 0,0 l/m² 0,0 km/h (0 Bft) N 0 ° 0 min 0 W/m² 5,3 °C 7,2 °C 0,0 km/h (0 Bft)
31.05.2023 02:30 20,6 °C 7,1 °C 55 % 87 % 1025,0 hPa 0,0 l/m² 0,0 km/h (0 Bft) N 0 ° 0 min 0 W/m² 5,1 °C 7,1 °C 0,0 km/h (0 Bft)
31.05.2023 02:31 20,6 °C 6,9 °C 55 % 87 % 1024,9 hPa 0,0 l/m² 0,0 km/h (0 Bft) N 0 ° 0 min 0 W/m² 4,9 °C 6,9 °C 0,0 km/h (0 Bft)
31.05.2023 02:32 20,6 °C 6,8 °C 55 % 87 % 1025,0 hPa 0,0 l/m² 0,0 km/h (0 Bft) N 0 ° 0 min 0 W/m² 4,8 °C 6,8 °C 0,0 km/h (0 Bft)
31.05.2023 02:33 20,6 °C 6,7 °C 55 % 87 % 1025,1 hPa 0,0 l/m² 0,0 km/h (0 Bft) N 0 ° 0 min 0 W/m² 4,7 °C 6,7 °C 0,0 km/h (0 Bft)
31.05.2023 02:34 20,6 °C 6,7 °C 55 % 87 % 1025,0 hPa 0,0 l/m² 0,0 km/h (0 Bft) N 0 ° 0 min 0 W/m² 4,7 °C 6,7 °C 0,0 km/h (0 Bft)
31.05.2023 02:35 20,6 °C 6,7 °C 55 % 88 % 1025,1 hPa 0,0 l/m² 0,0 km/h (0 Bft) N 0 ° 0 min 0 W/m² 4,9 °C 6,7 °C 0,0 km/h (0 Bft)
31.05.2023 02:36 20,6 °C 6,7 °C 55 % 88 % 1025,0 hPa 0,0 l/m² 0,0 km/h (0 Bft) N 0 ° 0 min 0 W/m² 4,9 °C 6,7 °C 0,0 km/h (0 Bft)
31.05.2023 02:37 20,6 °C 6,7 °C 55 % 88 % 1025,0 hPa 0,0 l/m² 0,0 km/h (0 Bft) W-SW 247 ° 0 min 0 W/m² 4,9 °C 6,7 °C 1,6 km/h (1 Bft)
31.05.2023 02:38 20,6 °C 6,8 °C 55 % 88 % 1025,0 hPa 0,0 l/m² 0,0 km/h (0 Bft) N 0 ° 0 min 0 W/m² 5,0 °C 6,8 °C 0,0 km/h (0 Bft)
31.05.2023 02:39 20,6 °C 6,8 °C 55 % 89 % 1025,1 hPa 0,0 l/m² 0,0 km/h (0 Bft) N 0 ° 0 min 0 W/m² 5,1 °C 6,8 °C 0,0 km/h (0 Bft)
31.05.2023 02:40 20,6 °C 6,8 °C 55 % 88 % 1025,1 hPa 0,0 l/m² 0,0 km/h (0 Bft) N 0 ° 0 min 0 W/m² 5,0 °C 6,8 °C 0,0 km/h (0 Bft)
31.05.2023 02:41 20,6 °C 6,8 °C 55 % 88 % 1025,1 hPa 0,0 l/m² 0,0 km/h (0 Bft) N 0 ° 0 min 0 W/m² 5,0 °C 6,8 °C 0,0 km/h (0 Bft)
31.05.2023 02:42 20,6 °C 6,7 °C 55 % 88 % 1025,1 hPa 0,0 l/m² 0,0 km/h (0 Bft) N 0 ° 0 min 0 W/m² 4,9 °C 6,7 °C 0,0 km/h (0 Bft)
31.05.2023 02:43 20,6 °C 6,7 °C 55 % 88 % 1025,0 hPa 0,0 l/m² 0,0 km/h (0 Bft) N 0 ° 0 min 0 W/m² 4,9 °C 6,7 °C 0,0 km/h (0 Bft)
31.05.2023 02:44 20,6 °C 6,7 °C 55 % 88 % 1025,0 hPa 0,0 l/m² 0,0 km/h (0 Bft) N 0 ° 0 min 0 W/m² 4,9 °C 6,7 °C 0,0 km/h (0 Bft)
31.05.2023 02:45 20,6 °C 6,7 °C 55 % 88 % 1025,0 hPa 0,0 l/m² 0,0 km/h (0 Bft) N 0 ° 0 min 0 W/m² 4,9 °C 6,7 °C 0,0 km/h (0 Bft)
31.05.2023 02:46 20,6 °C 6,8 °C 55 % 89 % 1025,0 hPa 0,0 l/m² 0,0 km/h (0 Bft) N 0 ° 0 min 0 W/m² 5,1 °C 6,8 °C 0,0 km/h (0 Bft)
31.05.2023 02:47 20,6 °C 6,7 °C 55 % 88 % 1025,0 hPa 0,0 l/m² 0,0 km/h (0 Bft) N 0 ° 0 min 0 W/m² 4,9 °C 6,7 °C 0,0 km/h (0 Bft)
31.05.2023 02:48 20,6 °C 6,7 °C 55 % 88 % 1025,0 hPa 0,0 l/m² 0,0 km/h (0 Bft) N 0 ° 0 min 0 W/m² 4,9 °C 6,7 °C 0,0 km/h (0 Bft)
31.05.2023 02:49 20,6 °C 6,7 °C 55 % 88 % 1025,0 hPa 0,0 l/m² 0,0 km/h (0 Bft) N 0 ° 0 min 0 W/m² 4,9 °C 6,7 °C 0,0 km/h (0 Bft)
31.05.2023 02:50 20,6 °C 6,7 °C 55 % 88 % 1025,1 hPa 0,0 l/m² 0,0 km/h (0 Bft) N 0 ° 0 min 0 W/m² 4,9 °C 6,7 °C 0,0 km/h (0 Bft)
31.05.2023 02:51 20,6 °C 6,7 °C 55 % 89 % 1025,0 hPa 0,0 l/m² 0,0 km/h (0 Bft) N 0 ° 0 min 0 W/m² 5,0 °C 6,7 °C 0,0 km/h (0 Bft)
31.05.2023 02:52 20,6 °C 6,6 °C 55 % 88 % 1025,0 hPa 0,0 l/m² 0,0 km/h (0 Bft) N 0 ° 0 min 0 W/m² 4,8 °C 6,6 °C 0,0 km/h (0 Bft)
31.05.2023 02:53 20,6 °C 6,6 °C 55 % 89 % 1025,0 hPa 0,0 l/m² 0,0 km/h (0 Bft) N 0 ° 0 min 0 W/m² 4,9 °C 6,6 °C 0,0 km/h (0 Bft)
31.05.2023 02:54 20,6 °C 6,6 °C 55 % 89 % 1025,0 hPa 0,0 l/m² 0,0 km/h (0 Bft) N 0 ° 0 min 0 W/m² 4,9 °C 6,6 °C 0,0 km/h (0 Bft)
31.05.2023 02:55 20,5 °C 6,6 °C 55 % 89 % 1025,0 hPa 0,0 l/m² 0,0 km/h (0 Bft) N 0 ° 0 min 0 W/m² 4,9 °C 6,6 °C 0,0 km/h (0 Bft)
31.05.2023 02:56 20,5 °C 6,6 °C 55 % 89 % 1025,0 hPa 0,0 l/m² 0,0 km/h (0 Bft) N 0 ° 0 min 0 W/m² 4,9 °C 6,6 °C 0,0 km/h (0 Bft)
31.05.2023 02:57 20,6 °C 6,6 °C 55 % 89 % 1025,0 hPa 0,0 l/m² 0,0 km/h (0 Bft) N 0 ° 0 min 0 W/m² 4,9 °C 6,6 °C 0,0 km/h (0 Bft)
31.05.2023 02:58 20,6 °C 6,7 °C 55 % 89 % 1025,0 hPa 0,0 l/m² 0,0 km/h (0 Bft) N 0 ° 0 min 0 W/m² 5,0 °C 6,7 °C 0,0 km/h (0 Bft)
31.05.2023 02:59 20,5 °C 6,7 °C 55 % 89 % 1025,0 hPa 0,0 l/m² 0,0 km/h (0 Bft) N 0 ° 0 min 0 W/m² 5,0 °C 6,7 °C 0,0 km/h (0 Bft)
31.05.2023 03:00 20,5 °C 6,7 °C 55 % 89 % 1025,0 hPa 0,0 l/m² 0,0 km/h (0 Bft) N 0 ° 0 min 0 W/m² 5,0 °C 6,7 °C 0,0 km/h (0 Bft)
31.05.2023 03:01 20,5 °C 6,7 °C 55 % 89 % 1025,0 hPa 0,0 l/m² 0,0 km/h (0 Bft) N 0 ° 0 min 0 W/m² 5,0 °C 6,7 °C 0,0 km/h (0 Bft)
31.05.2023 03:02 20,6 °C 6,7 °C 55 % 89 % 1025,0 hPa 0,0 l/m² 0,0 km/h (0 Bft) N 0 ° 0 min 0 W/m² 5,0 °C 6,7 °C 0,0 km/h (0 Bft)
31.05.2023 03:03 20,5 °C 6,7 °C 55 % 89 % 1025,0 hPa 0,0 l/m² 0,0 km/h (0 Bft) N 0 ° 0 min 0 W/m² 5,0 °C 6,7 °C 0,0 km/h (0 Bft)
31.05.2023 03:04 20,5 °C 6,8 °C 55 % 89 % 1025,0 hPa 0,0 l/m² 0,0 km/h (0 Bft) N 0 ° 0 min 0 W/m² 5,1 °C 6,8 °C 0,0 km/h (0 Bft)
31.05.2023 03:05 20,6 °C 6,7 °C 55 % 89 % 1025,1 hPa 0,0 l/m² 0,0 km/h (0 Bft) N 0 ° 0 min 0 W/m² 5,0 °C 6,7 °C 0,0 km/h (0 Bft)
31.05.2023 03:06 20,6 °C 6,8 °C 55 % 89 % 1025,0 hPa 0,0 l/m² 0,0 km/h (0 Bft) N 0 ° 0 min 0 W/m² 5,1 °C 6,8 °C 0,0 km/h (0 Bft)
31.05.2023 03:07 20,5 °C 6,7 °C 55 % 89 % 1025,0 hPa 0,0 l/m² 0,0 km/h (0 Bft) N 0 ° 0 min 0 W/m² 5,0 °C 6,7 °C 0,0 km/h (0 Bft)
31.05.2023 03:08 20,5 °C 6,7 °C 55 % 89 % 1025,1 hPa 0,0 l/m² 0,0 km/h (0 Bft) N 0 ° 0 min 0 W/m² 5,0 °C 6,7 °C 0,0 km/h (0 Bft)
31.05.2023 03:09 20,5 °C 6,7 °C 55 % 89 % 1025,0 hPa 0,0 l/m² 0,0 km/h (0 Bft) N 0 ° 0 min 0 W/m² 5,0 °C 6,7 °C 0,0 km/h (0 Bft)
31.05.2023 03:10 20,6 °C 6,8 °C 55 % 90 % 1025,0 hPa 0,0 l/m² 0,0 km/h (0 Bft) N 0 ° 0 min 0 W/m² 5,3 °C 6,8 °C 0,0 km/h (0 Bft)
31.05.2023 03:11 20,5 °C 6,8 °C 55 % 90 % 1025,0 hPa 0,0 l/m² 0,0 km/h (0 Bft) N 0 ° 0 min 0 W/m² 5,3 °C 6,8 °C 0,0 km/h (0 Bft)
31.05.2023 03:12 20,5 °C 6,8 °C 55 % 90 % 1025,0 hPa 0,0 l/m² 0,0 km/h (0 Bft) N 0 ° 0 min 0 W/m² 5,3 °C 6,8 °C 0,0 km/h (0 Bft)
31.05.2023 03:13 20,5 °C 6,9 °C 55 % 90 % 1025,0 hPa 0,0 l/m² 1,6 km/h (1 Bft) W-SW 247 ° 0 min 0 W/m² 5,4 °C 6,9 °C 3,2 km/h (1 Bft)
31.05.2023 03:14 20,5 °C 6,9 °C 55 % 90 % 1025,0 hPa 0,0 l/m² 1,6 km/h (1 Bft) W-SW 247 ° 0 min 0 W/m² 5,4 °C 6,9 °C 3,2 km/h (1 Bft)
31.05.2023 03:15 20,5 °C 6,9 °C 55 % 90 % 1025,0 hPa 0,0 l/m² 0,0 km/h (0 Bft) W-SW 247 ° 0 min 0 W/m² 5,4 °C 6,9 °C 1,6 km/h (1 Bft)
31.05.2023 03:16 20,5 °C 7,0 °C 55 % 90 % 1025,0 hPa 0,0 l/m² 0,0 km/h (0 Bft) N 0 ° 0 min 0 W/m² 5,5 °C 7,0 °C 0,0 km/h (0 Bft)
31.05.2023 03:17 20,5 °C 7,0 °C 55 % 90 % 1025,0 hPa 0,0 l/m² 0,0 km/h (0 Bft) N 0 ° 0 min 0 W/m² 5,5 °C 7,0 °C 0,0 km/h (0 Bft)
31.05.2023 03:18 20,5 °C 7,0 °C 55 % 90 % 1025,0 hPa 0,0 l/m² 0,0 km/h (0 Bft) N 0 ° 0 min 0 W/m² 5,5 °C 7,0 °C 0,0 km/h (0 Bft)
31.05.2023 03:19 20,5 °C 7,1 °C 55 % 90 % 1025,0 hPa 0,0 l/m² 0,0 km/h (0 Bft) N 0 ° 0 min 0 W/m² 5,6 °C 7,1 °C 0,0 km/h (0 Bft)
31.05.2023 03:20 20,5 °C 7,1 °C 55 % 90 % 1024,9 hPa 0,0 l/m² 0,0 km/h (0 Bft) N 0 ° 0 min 0 W/m² 5,6 °C 7,1 °C 0,0 km/h (0 Bft)
31.05.2023 03:21 20,5 °C 7,1 °C 55 % 89 % 1025,0 hPa 0,0 l/m² 0,0 km/h (0 Bft) N 0 ° 0 min 0 W/m² 5,4 °C 7,1 °C 0,0 km/h (0 Bft)
31.05.2023 03:22 20,5 °C 7,0 °C 55 % 89 % 1025,0 hPa 0,0 l/m² 0,0 km/h (0 Bft) N 0 ° 0 min 0 W/m² 5,3 °C 7,0 °C 0,0 km/h (0 Bft)
31.05.2023 03:23 20,5 °C 7,0 °C 55 % 89 % 1025,0 hPa 0,0 l/m² 0,0 km/h (0 Bft) N 0 ° 0 min 0 W/m² 5,3 °C 7,0 °C 0,0 km/h (0 Bft)
31.05.2023 03:24 20,5 °C 7,0 °C 55 % 89 % 1024,9 hPa 0,0 l/m² 0,0 km/h (0 Bft) N 0 ° 0 min 0 W/m² 5,3 °C 7,0 °C 0,0 km/h (0 Bft)
31.05.2023 03:25 20,5 °C 7,0 °C 55 % 89 % 1024,9 hPa 0,0 l/m² 0,0 km/h (0 Bft) N 0 ° 0 min 0 W/m² 5,3 °C 7,0 °C 0,0 km/h (0 Bft)
31.05.2023 03:26 20,4 °C 7,1 °C 55 % 89 % 1024,9 hPa 0,0 l/m² 0,0 km/h (0 Bft) N 0 ° 0 min 0 W/m² 5,4 °C 7,1 °C 0,0 km/h (0 Bft)
31.05.2023 03:27 20,5 °C 7,1 °C 55 % 89 % 1025,0 hPa 0,0 l/m² 0,0 km/h (0 Bft) N 0 ° 0 min 0 W/m² 5,4 °C 7,1 °C 0,0 km/h (0 Bft)
31.05.2023 03:28 20,5 °C 7,1 °C 55 % 90 % 1025,0 hPa 0,0 l/m² 0,0 km/h (0 Bft) N 0 ° 0 min 0 W/m² 5,6 °C 7,1 °C 0,0 km/h (0 Bft)
31.05.2023 03:29 20,4 °C 7,1 °C 55 % 90 % 1025,0 hPa 0,0 l/m² 0,0 km/h (0 Bft) N 0 ° 0 min 0 W/m² 5,6 °C 7,1 °C 0,0 km/h (0 Bft)
31.05.2023 03:30 20,5 °C 7,1 °C 55 % 90 % 1025,0 hPa 0,0 l/m² 0,0 km/h (0 Bft) N 0 ° 0 min 0 W/m² 5,6 °C 7,1 °C 0,0 km/h (0 Bft)
31.05.2023 03:31 20,5 °C 7,2 °C 55 % 90 % 1025,0 hPa 0,0 l/m² 0,0 km/h (0 Bft) N 0 ° 0 min 0 W/m² 5,7 °C 7,2 °C 0,0 km/h (0 Bft)
31.05.2023 03:32 20,4 °C 7,1 °C 55 % 90 % 1025,0 hPa 0,0 l/m² 0,0 km/h (0 Bft) N 0 ° 0 min 0 W/m² 5,6 °C 7,1 °C 0,0 km/h (0 Bft)
31.05.2023 03:33 20,5 °C 7,1 °C 55 % 90 % 1025,0 hPa 0,0 l/m² 0,0 km/h (0 Bft) N 0 ° 0 min 0 W/m² 5,6 °C 7,1 °C 0,0 km/h (0 Bft)
31.05.2023 03:34 20,5 °C 7,1 °C 55 % 89 % 1025,0 hPa 0,0 l/m² 0,0 km/h (0 Bft) N 0 ° 0 min 0 W/m² 5,4 °C 7,1 °C 0,0 km/h (0 Bft)
31.05.2023 03:35 20,5 °C 7,1 °C 55 % 89 % 1025,0 hPa 0,0 l/m² 0,0 km/h (0 Bft) N 0 ° 0 min 0 W/m² 5,4 °C 7,1 °C 0,0 km/h (0 Bft)
31.05.2023 03:36 20,5 °C 7,0 °C 55 % 89 % 1025,0 hPa 0,0 l/m² 0,0 km/h (0 Bft) N 0 ° 0 min 0 W/m² 5,3 °C 7,0 °C 0,0 km/h (0 Bft)
31.05.2023 03:37 20,5 °C 7,1 °C 55 % 89 % 1025,0 hPa 0,0 l/m² 0,0 km/h (0 Bft) N 0 ° 0 min 0 W/m² 5,4 °C 7,1 °C 0,0 km/h (0 Bft)
31.05.2023 03:38 20,4 °C 7,0 °C 55 % 90 % 1025,0 hPa 0,0 l/m² 0,0 km/h (0 Bft) N 0 ° 0 min 0 W/m² 5,5 °C 7,0 °C 0,0 km/h (0 Bft)
31.05.2023 03:39 20,4 °C 7,1 °C 55 % 89 % 1025,0 hPa 0,0 l/m² 0,0 km/h (0 Bft) N 0 ° 0 min 0 W/m² 5,4 °C 7,1 °C 0,0 km/h (0 Bft)
31.05.2023 03:40 20,4 °C 7,0 °C 55 % 89 % 1025,0 hPa 0,0 l/m² 0,0 km/h (0 Bft) N 0 ° 0 min 0 W/m² 5,3 °C 7,0 °C 0,0 km/h (0 Bft)
31.05.2023 03:41 20,4 °C 7,1 °C 55 % 89 % 1025,0 hPa 0,0 l/m² 0,0 km/h (0 Bft) N 0 ° 0 min 0 W/m² 5,4 °C 7,1 °C 0,0 km/h (0 Bft)
31.05.2023 03:42 20,5 °C 7,0 °C 55 % 90 % 1025,0 hPa 0,0 l/m² 0,0 km/h (0 Bft) N 0 ° 0 min 0 W/m² 5,5 °C 7,0 °C 0,0 km/h (0 Bft)
31.05.2023 03:43 20,5 °C 7,0 °C 55 % 90 % 1025,0 hPa 0,0 l/m² 0,0 km/h (0 Bft) N 0 ° 0 min 0 W/m² 5,5 °C 7,0 °C 0,0 km/h (0 Bft)
31.05.2023 03:44 20,4 °C 7,0 °C 55 % 89 % 1025,1 hPa 0,0 l/m² 0,0 km/h (0 Bft) N 0 ° 0 min 0 W/m² 5,3 °C 7,0 °C 0,0 km/h (0 Bft)
31.05.2023 03:45 20,4 °C 7,0 °C 55 % 89 % 1025,1 hPa 0,0 l/m² 0,0 km/h (0 Bft) W-SW 247 ° 0 min 0 W/m² 5,3 °C 7,0 °C 1,6 km/h (1 Bft)
31.05.2023 03:46 20,4 °C 6,9 °C 55 % 89 % 1025,0 hPa 0,0 l/m² 0,0 km/h (0 Bft) W-SW 247 ° 0 min 0 W/m² 5,2 °C 6,9 °C 1,6 km/h (1 Bft)
31.05.2023 03:47 20,4 °C 6,9 °C 55 % 89 % 1025,0 hPa 0,0 l/m² 0,0 km/h (0 Bft) N 0 ° 0 min 0 W/m² 5,2 °C 6,9 °C 0,0 km/h (0 Bft)
31.05.2023 03:48 20,4 °C 6,9 °C 55 % 89 % 1025,0 hPa 0,0 l/m² 0,0 km/h (0 Bft) W-SW 247 ° 0 min 0 W/m² 5,2 °C 6,9 °C 1,6 km/h (1 Bft)
31.05.2023 03:49 20,4 °C 6,8 °C 55 % 89 % 1025,0 hPa 0,0 l/m² 1,6 km/h (1 Bft) W-SW 247 ° 0 min 0 W/m² 5,1 °C 6,8 °C 3,2 km/h (1 Bft)
31.05.2023 03:50 20,4 °C 6,8 °C 55 % 89 % 1025,0 hPa 0,0 l/m² 3,2 km/h (1 Bft) W-SW 247 ° 0 min 0 W/m² 5,1 °C 6,8 °C 3,2 km/h (1 Bft)
31.05.2023 03:51 20,4 °C 6,8 °C 55 % 90 % 1025,0 hPa 0,0 l/m² 1,6 km/h (1 Bft) W-SW 247 ° 0 min 0 W/m² 5,3 °C 6,8 °C 3,2 km/h (1 Bft)
31.05.2023 03:52 20,4 °C 6,9 °C 55 % 90 % 1025,0 hPa 0,0 l/m² 3,2 km/h (1 Bft) W-SW 247 ° 0 min 0 W/m² 5,4 °C 6,9 °C 4,8 km/h (1 Bft)
31.05.2023 03:53 20,4 °C 6,9 °C 55 % 90 % 1025,0 hPa 0,0 l/m² 3,2 km/h (1 Bft) W-SW 247 ° 0 min 0 W/m² 5,4 °C 6,9 °C 4,8 km/h (1 Bft)
31.05.2023 03:54 20,4 °C 6,9 °C 55 % 90 % 1025,0 hPa 0,0 l/m² 4,8 km/h (1 Bft) W-SW 247 ° 0 min 0 W/m² 5,4 °C 6,9 °C 6,4 km/h (2 Bft)
31.05.2023 03:55 20,4 °C 6,9 °C 55 % 90 % 1025,0 hPa 0,0 l/m² 4,8 km/h (1 Bft) SW 225 ° 0 min 0 W/m² 5,4 °C 6,9 °C 6,4 km/h (2 Bft)
31.05.2023 03:56 20,4 °C 6,9 °C 55 % 89 % 1025,1 hPa 0,0 l/m² 4,8 km/h (1 Bft) SW 225 ° 0 min 0 W/m² 5,2 °C 6,9 °C 6,4 km/h (2 Bft)
31.05.2023 03:57 20,4 °C 6,9 °C 55 % 89 % 1025,0 hPa 0,0 l/m² 4,8 km/h (1 Bft) SW 225 ° 0 min 0 W/m² 5,2 °C 6,9 °C 6,4 km/h (2 Bft)
31.05.2023 03:58 20,4 °C 6,8 °C 55 % 89 % 1025,1 hPa 0,0 l/m² 3,2 km/h (1 Bft) SW 225 ° 0 min 0 W/m² 5,1 °C 6,8 °C 4,8 km/h (1 Bft)
31.05.2023 03:59 20,4 °C 6,9 °C 55 % 90 % 1025,0 hPa 0,0 l/m² 3,2 km/h (1 Bft) SW 225 ° 0 min 0 W/m² 5,4 °C 6,9 °C 4,8 km/h (1 Bft)
31.05.2023 04:00 20,4 °C 6,9 °C 55 % 90 % 1025,0 hPa 0,0 l/m² 3,2 km/h (1 Bft) SW 225 ° 0 min 0 W/m² 5,4 °C 6,9 °C 4,8 km/h (1 Bft)
31.05.2023 04:01 20,4 °C 6,9 °C 55 % 90 % 1024,9 hPa 0,0 l/m² 3,2 km/h (1 Bft) SW 225 ° 0 min 0 W/m² 5,4 °C 6,9 °C 4,8 km/h (1 Bft)
31.05.2023 04:02 20,4 °C 7,0 °C 55 % 90 % 1024,9 hPa 0,0 l/m² 3,2 km/h (1 Bft) SW 225 ° 0 min 0 W/m² 5,5 °C 7,0 °C 4,8 km/h (1 Bft)
31.05.2023 04:03 20,4 °C 7,1 °C 55 % 90 % 1025,0 hPa 0,0 l/m² 3,2 km/h (1 Bft) SW 225 ° 0 min 0 W/m² 5,6 °C 7,1 °C 4,8 km/h (1 Bft)
31.05.2023 04:04 20,4 °C 7,0 °C 55 % 90 % 1025,0 hPa 0,0 l/m² 3,2 km/h (1 Bft) SW 225 ° 0 min 0 W/m² 5,5 °C 7,0 °C 3,2 km/h (1 Bft)
31.05.2023 04:05 20,4 °C 7,0 °C 55 % 89 % 1024,9 hPa 0,0 l/m² 1,6 km/h (1 Bft) SW 225 ° 0 min 0 W/m² 5,3 °C 7,0 °C 3,2 km/h (1 Bft)
31.05.2023 04:06 20,4 °C 6,9 °C 55 % 89 % 1025,0 hPa 0,0 l/m² 1,6 km/h (1 Bft) SW 225 ° 0 min 0 W/m² 5,2 °C 6,9 °C 3,2 km/h (1 Bft)
31.05.2023 04:07 20,4 °C 6,9 °C 55 % 89 % 1024,9 hPa 0,0 l/m² 1,6 km/h (1 Bft) SW 225 ° 0 min 0 W/m² 5,2 °C 6,9 °C 1,6 km/h (1 Bft)
31.05.2023 04:08 20,4 °C 6,9 °C 55 % 90 % 1025,0 hPa 0,0 l/m² 3,2 km/h (1 Bft) SW 225 ° 0 min 0 W/m² 5,4 °C 6,9 °C 3,2 km/h (1 Bft)
31.05.2023 04:09 20,4 °C 6,8 °C 55 % 90 % 1025,0 hPa 0,0 l/m² 1,6 km/h (1 Bft) SW 225 ° 0 min 0 W/m² 5,3 °C 6,8 °C 3,2 km/h (1 Bft)
31.05.2023 04:10 20,4 °C 6,8 °C 55 % 90 % 1025,0 hPa 0,0 l/m² 1,6 km/h (1 Bft) SW 225 ° 0 min 0 W/m² 5,3 °C 6,8 °C 3,2 km/h (1 Bft)
31.05.2023 04:11 20,4 °C 6,8 °C 55 % 90 % 1025,0 hPa 0,0 l/m² 0,0 km/h (0 Bft) SW 225 ° 0 min 0 W/m² 5,3 °C 6,8 °C 1,6 km/h (1 Bft)
31.05.2023 04:12 20,4 °C 6,8 °C 55 % 89 % 1025,0 hPa 0,0 l/m² 0,0 km/h (0 Bft) SW 225 ° 0 min 0 W/m² 5,1 °C 6,8 °C 1,6 km/h (1 Bft)
31.05.2023 04:13 20,4 °C 6,7 °C 55 % 89 % 1025,0 hPa 0,0 l/m² 0,0 km/h (0 Bft) N 0 ° 0 min 0 W/m² 5,0 °C 6,7 °C 0,0 km/h (0 Bft)
31.05.2023 04:14 20,4 °C 6,7 °C 55 % 90 % 1025,0 hPa 0,0 l/m² 0,0 km/h (0 Bft) N 0 ° 0 min 0 W/m² 5,2 °C 6,7 °C 0,0 km/h (0 Bft)
31.05.2023 04:15 20,4 °C 6,6 °C 55 % 89 % 1025,0 hPa 0,0 l/m² 0,0 km/h (0 Bft) N 0 ° 0 min 0 W/m² 4,9 °C 6,6 °C 0,0 km/h (0 Bft)
31.05.2023 04:16 20,4 °C 6,6 °C 55 % 89 % 1025,0 hPa 0,0 l/m² 0,0 km/h (0 Bft) N 0 ° 0 min 0 W/m² 4,9 °C 6,6 °C 0,0 km/h (0 Bft)
31.05.2023 04:17 20,4 °C 6,5 °C 55 % 89 % 1025,0 hPa 0,0 l/m² 0,0 km/h (0 Bft) N 0 ° 0 min 0 W/m² 4,8 °C 6,5 °C 0,0 km/h (0 Bft)
31.05.2023 04:18 20,4 °C 6,4 °C 55 % 89 % 1025,0 hPa 0,0 l/m² 0,0 km/h (0 Bft) N 0 ° 0 min 0 W/m² 4,7 °C 6,4 °C 0,0 km/h (0 Bft)
31.05.2023 04:19 20,4 °C 6,4 °C 55 % 89 % 1025,0 hPa 0,0 l/m² 0,0 km/h (0 Bft) N 0 ° 0 min 0 W/m² 4,7 °C 6,4 °C 0,0 km/h (0 Bft)
31.05.2023 04:20 20,4 °C 6,3 °C 55 % 89 % 1025,0 hPa 0,0 l/m² 0,0 km/h (0 Bft) SW 225 ° 0 min 0 W/m² 4,6 °C 6,3 °C 1,6 km/h (1 Bft)
31.05.2023 04:21 20,4 °C 6,3 °C 55 % 89 % 1025,0 hPa 0,0 l/m² 3,2 km/h (1 Bft) SW 225 ° 0 min 0 W/m² 4,6 °C 6,3 °C 3,2 km/h (1 Bft)
31.05.2023 04:22 20,4 °C 6,2 °C 55 % 89 % 1025,0 hPa 0,0 l/m² 3,2 km/h (1 Bft) SW 225 ° 0 min 0 W/m² 4,5 °C 6,2 °C 3,2 km/h (1 Bft)
31.05.2023 04:23 20,4 °C 6,2 °C 55 % 89 % 1025,0 hPa 0,0 l/m² 3,2 km/h (1 Bft) SW 225 ° 0 min 0 W/m² 4,5 °C 6,2 °C 3,2 km/h (1 Bft)
31.05.2023 04:24 20,4 °C 6,2 °C 55 % 90 % 1025,0 hPa 0,0 l/m² 0,0 km/h (0 Bft) SW 225 ° 0 min 0 W/m² 4,7 °C 6,2 °C 3,2 km/h (1 Bft)
31.05.2023 04:25 20,4 °C 6,2 °C 55 % 90 % 1024,9 hPa 0,0 l/m² 1,6 km/h (1 Bft) SW 225 ° 0 min 0 W/m² 4,7 °C 6,2 °C 3,2 km/h (1 Bft)
31.05.2023 04:26 20,4 °C 6,1 °C 55 % 90 % 1025,0 hPa 0,0 l/m² 3,2 km/h (1 Bft) SW 225 ° 0 min 0 W/m² 4,6 °C 6,1 °C 3,2 km/h (1 Bft)
31.05.2023 04:27 20,4 °C 6,1 °C 55 % 90 % 1025,0 hPa 0,0 l/m² 1,6 km/h (1 Bft) SW 225 ° 0 min 0 W/m² 4,6 °C 6,1 °C 3,2 km/h (1 Bft)
31.05.2023 04:28 20,4 °C 6,1 °C 55 % 90 % 1025,0 hPa 0,0 l/m² 1,6 km/h (1 Bft) SW 225 ° 0 min 0 W/m² 4,6 °C 6,1 °C 3,2 km/h (1 Bft)
31.05.2023 04:29 20,4 °C 6,1 °C 55 % 90 % 1024,9 hPa 0,0 l/m² 0,0 km/h (0 Bft) N 0 ° 0 min 0 W/m² 4,6 °C 6,1 °C 0,0 km/h (0 Bft)
31.05.2023 04:30 20,4 °C 5,9 °C 55 % 90 % 1025,0 hPa 0,0 l/m² 0,0 km/h (0 Bft) N 0 ° 0 min 0 W/m² 4,4 °C 5,9 °C 0,0 km/h (0 Bft)
31.05.2023 04:31 20,4 °C 5,9 °C 55 % 90 % 1025,0 hPa 0,0 l/m² 0,0 km/h (0 Bft) N 0 ° 0 min 0 W/m² 4,4 °C 5,9 °C 0,0 km/h (0 Bft)
31.05.2023 04:32 20,4 °C 5,9 °C 55 % 90 % 1024,9 hPa 0,0 l/m² 0,0 km/h (0 Bft) N 0 ° 0 min 0 W/m² 4,4 °C 5,9 °C 0,0 km/h (0 Bft)
31.05.2023 04:33 20,4 °C 5,9 °C 55 % 90 % 1025,0 hPa 0,0 l/m² 0,0 km/h (0 Bft) N 0 ° 0 min 0 W/m² 4,4 °C 5,9 °C 0,0 km/h (0 Bft)
31.05.2023 04:34 20,4 °C 5,8 °C 55 % 90 % 1025,0 hPa 0,0 l/m² 0,0 km/h (0 Bft) N 0 ° 0 min 0 W/m² 4,3 °C 5,8 °C 0,0 km/h (0 Bft)
31.05.2023 04:35 20,4 °C 5,8 °C 55 % 90 % 1025,0 hPa 0,0 l/m² 0,0 km/h (0 Bft) N 0 ° 0 min 0 W/m² 4,3 °C 5,8 °C 0,0 km/h (0 Bft)
31.05.2023 04:36 20,4 °C 5,8 °C 55 % 90 % 1025,0 hPa 0,0 l/m² 0,0 km/h (0 Bft) N 0 ° 0 min 0 W/m² 4,3 °C 5,8 °C 0,0 km/h (0 Bft)
31.05.2023 04:37 20,4 °C 5,7 °C 55 % 90 % 1025,0 hPa 0,0 l/m² 0,0 km/h (0 Bft) N 0 ° 0 min 0 W/m² 4,2 °C 5,7 °C 0,0 km/h (0 Bft)
31.05.2023 04:38 20,4 °C 5,7 °C 55 % 90 % 1025,0 hPa 0,0 l/m² 0,0 km/h (0 Bft) N 0 ° 0 min 0 W/m² 4,2 °C 5,7 °C 0,0 km/h (0 Bft)
31.05.2023 04:39 20,4 °C 5,7 °C 55 % 90 % 1025,0 hPa 0,0 l/m² 0,0 km/h (0 Bft) N 0 ° 0 min 0 W/m² 4,2 °C 5,7 °C 0,0 km/h (0 Bft)
31.05.2023 04:40 20,4 °C 5,7 °C 55 % 90 % 1025,1 hPa 0,0 l/m² 0,0 km/h (0 Bft) N 0 ° 0 min 0 W/m² 4,2 °C 5,7 °C 0,0 km/h (0 Bft)
31.05.2023 04:41 20,4 °C 5,7 °C 55 % 90 % 1025,0 hPa 0,0 l/m² 0,0 km/h (0 Bft) N 0 ° 0 min 0 W/m² 4,2 °C 5,7 °C 0,0 km/h (0 Bft)
31.05.2023 04:42 20,4 °C 5,6 °C 55 % 90 % 1025,1 hPa 0,0 l/m² 0,0 km/h (0 Bft) SW 225 ° 0 min 0 W/m² 4,1 °C 5,6 °C 1,6 km/h (1 Bft)
31.05.2023 04:43 20,4 °C 5,6 °C 55 % 90 % 1025,1 hPa 0,0 l/m² 0,0 km/h (0 Bft) SW 225 ° 0 min 0 W/m² 4,1 °C 5,6 °C 1,6 km/h (1 Bft)
31.05.2023 04:44 20,4 °C 5,5 °C 55 % 90 % 1025,1 hPa 0,0 l/m² 0,0 km/h (0 Bft) N 0 ° 0 min 0 W/m² 4,0 °C 5,5 °C 0,0 km/h (0 Bft)
31.05.2023 04:45 20,4 °C 5,5 °C 55 % 90 % 1025,1 hPa 0,0 l/m² 0,0 km/h (0 Bft) N 0 ° 0 min 0 W/m² 4,0 °C 5,5 °C 0,0 km/h (0 Bft)
31.05.2023 04:46 20,4 °C 5,5 °C 55 % 90 % 1025,1 hPa 0,0 l/m² 0,0 km/h (0 Bft) N 0 ° 0 min 0 W/m² 4,0 °C 5,5 °C 0,0 km/h (0 Bft)
31.05.2023 04:47 20,4 °C 5,6 °C 55 % 91 % 1025,0 hPa 0,0 l/m² 0,0 km/h (0 Bft) SW 225 ° 0 min 0 W/m² 4,2 °C 5,6 °C 1,6 km/h (1 Bft)
31.05.2023 04:48 20,4 °C 5,7 °C 55 % 91 % 1025,0 hPa 0,0 l/m² 1,6 km/h (1 Bft) W-SW 247 ° 0 min 0 W/m² 4,3 °C 5,7 °C 3,2 km/h (1 Bft)
31.05.2023 04:49 20,4 °C 5,7 °C 55 % 91 % 1025,1 hPa 0,0 l/m² 1,6 km/h (1 Bft) W-SW 247 ° 0 min 0 W/m² 4,3 °C 5,7 °C 3,2 km/h (1 Bft)
31.05.2023 04:50 20,4 °C 5,8 °C 55 % 91 % 1025,1 hPa 0,0 l/m² 1,6 km/h (1 Bft) W-SW 247 ° 0 min 0 W/m² 4,4 °C 5,8 °C 1,6 km/h (1 Bft)
31.05.2023 04:51 20,4 °C 5,8 °C 55 % 91 % 1025,1 hPa 0,0 l/m² 1,6 km/h (1 Bft) W-SW 247 ° 0 min 0 W/m² 4,4 °C 5,8 °C 3,2 km/h (1 Bft)
31.05.2023 04:52 20,4 °C 5,8 °C 55 % 91 % 1025,1 hPa 0,0 l/m² 1,6 km/h (1 Bft) W-SW 247 ° 0 min 0 W/m² 4,4 °C 5,8 °C 3,2 km/h (1 Bft)
31.05.2023 04:58 20,4 °C 6,3 °C 55 % 92 % 1025,2 hPa 0,0 l/m² 5,0 km/h (1 Bft) W-NW 296 ° 0 min 0 W/m² 5,1 °C 6,3 °C 6,4 km/h (2 Bft)
31.05.2023 05:00 20,4 °C 6,6 °C 55 % 92 % 1025,1 hPa 0,0 l/m² 1,1 km/h (1 Bft) W-NW 296 ° 0 min 0 W/m² 5,4 °C 6,6 °C 3,2 km/h (1 Bft)
31.05.2023 05:01 20,4 °C 6,6 °C 55 % 92 % 1025,1 hPa 0,0 l/m² 1,2 km/h (1 Bft) W-NW 296 ° 0 min 0 W/m² 5,4 °C 6,6 °C 3,2 km/h (1 Bft)
31.05.2023 05:03 20,4 °C 6,8 °C 55 % 92 % 1025,1 hPa 0,0 l/m² 0,5 km/h (0 Bft) W-NW 296 ° 0 min 5 W/m² 5,6 °C 6,8 °C 3,2 km/h (1 Bft)
31.05.2023 05:05 20,5 °C 6,7 °C 55 % 91 % 1025,1 hPa 0,0 l/m² 1,9 km/h (1 Bft) W-NW 294 ° 0 min 5 W/m² 5,3 °C 6,7 °C 6,4 km/h (2 Bft)
31.05.2023 05:07 20,5 °C 6,6 °C 55 % 91 % 1025,2 hPa 0,0 l/m² 1,4 km/h (1 Bft) W 271 ° 0 min 5 W/m² 5,2 °C 6,6 °C 4,8 km/h (1 Bft)
31.05.2023 05:09 20,6 °C 6,6 °C 55 % 91 % 1025,2 hPa 0,0 l/m² 1,0 km/h (0 Bft) W 271 ° 0 min 7 W/m² 5,2 °C 6,6 °C 3,2 km/h (1 Bft)
31.05.2023 05:11 20,6 °C 6,5 °C 55 % 91 % 1025,2 hPa 0,0 l/m² 2,6 km/h (1 Bft) SW 232 ° 0 min 7 W/m² 5,1 °C 6,5 °C 6,4 km/h (2 Bft)
31.05.2023 05:12 20,6 °C 6,6 °C 55 % 91 % 1025,2 hPa 0,0 l/m² 2,1 km/h (1 Bft) SW 234 ° 0 min 7 W/m² 5,2 °C 6,6 °C 3,2 km/h (1 Bft)
31.05.2023 05:13 20,6 °C 6,6 °C 55 % 91 % 1025,2 hPa 0,0 l/m² 2,2 km/h (1 Bft) SW 234 ° 0 min 9 W/m² 5,2 °C 6,6 °C 4,8 km/h (1 Bft)
31.05.2023 05:15 20,6 °C 6,7 °C 55 % 91 % 1025,1 hPa 0,0 l/m² 1,0 km/h (0 Bft) SW 236 ° 0 min 9 W/m² 5,3 °C 6,7 °C 3,2 km/h (1 Bft)
31.05.2023 05:17 20,6 °C 6,9 °C 55 % 92 % 1025,2 hPa 0,0 l/m² 2,4 km/h (1 Bft) W-NW 291 ° 0 min 11 W/m² 5,7 °C 6,9 °C 6,4 km/h (2 Bft)
31.05.2023 05:19 20,6 °C 7,1 °C 55 % 92 % 1025,3 hPa 0,0 l/m² 2,9 km/h (1 Bft) NW 310 ° 0 min 11 W/m² 5,9 °C 7,1 °C 6,4 km/h (2 Bft)
31.05.2023 05:21 20,6 °C 7,3 °C 55 % 92 % 1025,2 hPa 0,0 l/m² 1,6 km/h (1 Bft) NW 312 ° 0 min 12 W/m² 6,1 °C 7,3 °C 4,8 km/h (1 Bft)
31.05.2023 05:22 20,6 °C 7,4 °C 55 % 92 % 1025,2 hPa 0,0 l/m² 1,6 km/h (1 Bft) NW 313 ° 0 min 12 W/m² 6,2 °C 7,4 °C 3,2 km/h (1 Bft)
31.05.2023 05:23 20,6 °C 7,6 °C 55 % 92 % 1025,3 hPa 0,0 l/m² 1,5 km/h (1 Bft) W-NW 298 ° 0 min 12 W/m² 6,4 °C 7,6 °C 4,8 km/h (1 Bft)
31.05.2023 05:25 20,6 °C 7,7 °C 55 % 91 % 1025,2 hPa 0,0 l/m² 0,8 km/h (0 Bft) W-NW 296 ° 0 min 12 W/m² 6,3 °C 7,7 °C 3,2 km/h (1 Bft)
31.05.2023 05:27 20,6 °C 7,6 °C 55 % 91 % 1025,2 hPa 0,0 l/m² 1,0 km/h (0 Bft) W-NW 295 ° 0 min 14 W/m² 6,2 °C 7,6 °C 3,2 km/h (1 Bft)
31.05.2023 05:29 20,7 °C 7,3 °C 55 % 90 % 1025,2 hPa 0,0 l/m² 2,5 km/h (1 Bft) W-NW 292 ° 0 min 14 W/m² 5,8 °C 7,3 °C 4,8 km/h (1 Bft)
31.05.2023 05:31 20,7 °C 7,2 °C 55 % 90 % 1025,2 hPa 0,0 l/m² 1,9 km/h (1 Bft) W-NW 292 ° 0 min 16 W/m² 5,7 °C 7,2 °C 3,2 km/h (1 Bft)
31.05.2023 05:32 20,7 °C 7,2 °C 55 % 91 % 1025,2 hPa 0,0 l/m² 0,3 km/h (0 Bft) W-NW 292 ° 0 min 16 W/m² 5,8 °C 7,2 °C 1,6 km/h (1 Bft)
31.05.2023 05:33 20,7 °C 7,3 °C 55 % 91 % 1025,2 hPa 0,0 l/m² 0,0 km/h (0 Bft) W-NW 292 ° 0 min 16 W/m² 5,9 °C 7,3 °C 0,0 km/h (0 Bft)
31.05.2023 05:35 20,7 °C 7,3 °C 55 % 91 % 1025,2 hPa 0,0 l/m² 1,3 km/h (1 Bft) W-NW 292 ° 0 min 16 W/m² 5,9 °C 7,3 °C 4,8 km/h (1 Bft)
31.05.2023 05:37 20,7 °C 7,4 °C 55 % 91 % 1025,2 hPa 0,0 l/m² 1,4 km/h (1 Bft) W-NW 292 ° 0 min 18 W/m² 6,0 °C 7,4 °C 4,8 km/h (1 Bft)
31.05.2023 05:39 20,7 °C 7,4 °C 55 % 91 % 1025,2 hPa 0,0 l/m² 0,9 km/h (0 Bft) W-NW 292 ° 0 min 19 W/m² 6,0 °C 7,4 °C 3,2 km/h (1 Bft)
31.05.2023 05:41 20,7 °C 7,4 °C 55 % 90 % 1025,2 hPa 0,0 l/m² 0,6 km/h (0 Bft) W-NW 292 ° 0 min 19 W/m² 5,9 °C 7,4 °C 3,2 km/h (1 Bft)
31.05.2023 05:42 20,7 °C 7,3 °C 55 % 90 % 1025,3 hPa 0,0 l/m² 0,0 km/h (0 Bft) W-NW 292 ° 0 min 19 W/m² 5,8 °C 7,3 °C 0,0 km/h (0 Bft)
31.05.2023 05:43 20,7 °C 7,2 °C 55 % 89 % 1025,2 hPa 0,0 l/m² 0,1 km/h (0 Bft) W-NW 292 ° 0 min 19 W/m² 5,5 °C 7,2 °C 1,6 km/h (1 Bft)
31.05.2023 05:45 20,7 °C 6,9 °C 55 % 89 % 1025,3 hPa 0,0 l/m² 0,0 km/h (0 Bft) W-NW 292 ° 0 min 21 W/m² 5,2 °C 6,9 °C 1,6 km/h (1 Bft)
31.05.2023 05:47 20,7 °C 6,8 °C 55 % 90 % 1025,3 hPa 0,0 l/m² 0,0 km/h (0 Bft) W-NW 292 ° 0 min 25 W/m² 5,3 °C 6,8 °C 1,6 km/h (1 Bft)
31.05.2023 05:49 20,7 °C 6,7 °C 55 % 90 % 1025,3 hPa 0,0 l/m² 0,0 km/h (0 Bft) W-NW 292 ° 0 min 26 W/m² 5,2 °C 6,7 °C 0,0 km/h (0 Bft)
31.05.2023 05:51 20,7 °C 6,6 °C 55 % 90 % 1025,2 hPa 0,0 l/m² 0,0 km/h (0 Bft) W-NW 292 ° 0 min 30 W/m² 5,1 °C 6,6 °C 0,0 km/h (0 Bft)
31.05.2023 05:52 20,7 °C 6,6 °C 55 % 90 % 1025,2 hPa 0,0 l/m² 0,0 km/h (0 Bft) W-NW 292 ° 0 min 30 W/m² 5,1 °C 6,6 °C 0,0 km/h (0 Bft)
31.05.2023 05:53 20,7 °C 6,5 °C 55 % 90 % 1025,2 hPa 0,0 l/m² 0,0 km/h (0 Bft) W-NW 292 ° 0 min 32 W/m² 5,0 °C 6,5 °C 0,0 km/h (0 Bft)
31.05.2023 05:55 20,7 °C 6,6 °C 55 % 91 % 1025,2 hPa 0,0 l/m² 0,0 km/h (0 Bft) W-NW 292 ° 0 min 33 W/m² 5,2 °C 6,6 °C 0,0 km/h (0 Bft)
31.05.2023 05:57 20,7 °C 6,7 °C 55 % 91 % 1025,2 hPa 0,0 l/m² 0,8 km/h (0 Bft) W-NW 292 ° 0 min 37 W/m² 5,3 °C 6,7 °C 3,2 km/h (1 Bft)
31.05.2023 05:59 20,7 °C 6,8 °C 55 % 91 % 1025,3 hPa 0,0 l/m² 1,5 km/h (1 Bft) W-NW 292 ° 0 min 40 W/m² 5,4 °C 6,8 °C 3,2 km/h (1 Bft)
31.05.2023 06:01 20,7 °C 6,9 °C 55 % 91 % 1025,2 hPa 0,0 l/m² 1,7 km/h (1 Bft) W-NW 291 ° 0 min 44 W/m² 5,5 °C 6,9 °C 3,2 km/h (1 Bft)
31.05.2023 06:02 20,7 °C 6,9 °C 55 % 91 % 1025,3 hPa 0,0 l/m² 1,1 km/h (1 Bft) W-NW 291 ° 0 min 47 W/m² 5,5 °C 6,9 °C 3,2 km/h (1 Bft)
31.05.2023 06:03 20,7 °C 7,0 °C 55 % 91 % 1025,3 hPa 0,0 l/m² 1,9 km/h (1 Bft) W-NW 290 ° 0 min 49 W/m² 5,6 °C 7,0 °C 3,2 km/h (1 Bft)
31.05.2023 06:05 20,7 °C 7,3 °C 55 % 92 % 1025,3 hPa 0,0 l/m² 0,6 km/h (0 Bft) W-NW 290 ° 2 min 53 W/m² 6,1 °C 7,3 °C 3,2 km/h (1 Bft)
31.05.2023 06:07 20,7 °C 7,3 °C 55 % 91 % 1025,3 hPa 0,0 l/m² 0,0 km/h (0 Bft) W-NW 290 ° 2 min 56 W/m² 5,9 °C 7,3 °C 0,0 km/h (0 Bft)
31.05.2023 06:09 20,7 °C 7,3 °C 55 % 90 % 1025,3 hPa 0,0 l/m² 0,0 km/h (0 Bft) W-NW 290 ° 2 min 62 W/m² 5,8 °C 7,3 °C 0,0 km/h (0 Bft)
31.05.2023 06:11 20,7 °C 7,4 °C 55 % 91 % 1025,3 hPa 0,0 l/m² 0,5 km/h (0 Bft) W 269 ° 2 min 65 W/m² 6,0 °C 7,4 °C 4,8 km/h (1 Bft)
31.05.2023 06:12 20,7 °C 7,6 °C 55 % 91 % 1025,2 hPa 0,0 l/m² 0,6 km/h (0 Bft) W 269 ° 1 min 67 W/m² 6,2 °C 7,6 °C 3,2 km/h (1 Bft)
31.05.2023 06:13 20,7 °C 7,7 °C 55 % 92 % 1025,3 hPa 0,0 l/m² 0,0 km/h (0 Bft) W 269 ° 1 min 69 W/m² 6,5 °C 7,7 °C 0,0 km/h (0 Bft)
31.05.2023 06:15 20,7 °C 7,9 °C 55 % 91 % 1025,3 hPa 0,0 l/m² 1,0 km/h (0 Bft) W-SW 248 ° 2 min 74 W/m² 6,5 °C 7,9 °C 4,8 km/h (1 Bft)
31.05.2023 06:17 20,7 °C 8,0 °C 55 % 91 % 1025,3 hPa 0,0 l/m² 2,4 km/h (1 Bft) W 261 ° 2 min 77 W/m² 6,6 °C 8,0 °C 9,7 km/h (2 Bft)
31.05.2023 06:19 20,7 °C 8,2 °C 55 % 91 % 1025,2 hPa 0,0 l/m² 0,5 km/h (0 Bft) W 269 ° 2 min 81 W/m² 6,8 °C 8,2 °C 3,2 km/h (1 Bft)
31.05.2023 06:21 20,7 °C 8,4 °C 55 % 90 % 1025,2 hPa 0,0 l/m² 2,1 km/h (1 Bft) W 273 ° 2 min 88 W/m² 6,9 °C 8,4 °C 6,4 km/h (2 Bft)
31.05.2023 06:22 20,7 °C 8,6 °C 55 % 90 % 1025,3 hPa 0,0 l/m² 2,5 km/h (1 Bft) W-NW 290 ° 1 min 90 W/m² 7,1 °C 8,6 °C 6,4 km/h (2 Bft)
31.05.2023 06:23 20,7 °C 8,7 °C 55 % 90 % 1025,3 hPa 0,0 l/m² 0,0 km/h (0 Bft) W-NW 290 ° 1 min 91 W/m² 7,2 °C 8,7 °C 0,0 km/h (0 Bft)
31.05.2023 06:25 20,7 °C 8,9 °C 55 % 90 % 1025,3 hPa 0,0 l/m² 0,7 km/h (0 Bft) W-NW 290 ° 2 min 97 W/m² 7,4 °C 8,9 °C 3,2 km/h (1 Bft)
31.05.2023 06:27 20,7 °C 9,1 °C 55 % 89 % 1025,3 hPa 0,0 l/m² 0,4 km/h (0 Bft) W-NW 290 ° 2 min 102 W/m² 7,4 °C 9,1 °C 1,6 km/h (1 Bft)
31.05.2023 06:29 20,7 °C 9,2 °C 55 % 89 % 1025,3 hPa 0,0 l/m² 2,7 km/h (1 Bft) W-NW 294 ° 2 min 107 W/m² 7,5 °C 9,2 °C 6,4 km/h (2 Bft)
31.05.2023 06:31 20,7 °C 9,3 °C 55 % 88 % 1025,4 hPa 0,0 l/m² 1,7 km/h (1 Bft) W-NW 294 ° 2 min 111 W/m² 7,4 °C 9,3 °C 4,8 km/h (1 Bft)
31.05.2023 06:32 20,7 °C 9,4 °C 55 % 88 % 1025,3 hPa 0,0 l/m² 0,7 km/h (0 Bft) W-NW 294 ° 1 min 116 W/m² 7,5 °C 9,4 °C 3,2 km/h (1 Bft)
31.05.2023 06:33 20,7 °C 9,5 °C 55 % 88 % 1025,3 hPa 0,0 l/m² 0,7 km/h (0 Bft) W-NW 294 ° 1 min 118 W/m² 7,6 °C 9,5 °C 1,6 km/h (1 Bft)
31.05.2023 06:35 20,7 °C 9,7 °C 55 % 88 % 1025,3 hPa 0,0 l/m² 2,8 km/h (1 Bft) W-NW 294 ° 2 min 123 W/m² 7,8 °C 9,7 °C 6,4 km/h (2 Bft)
31.05.2023 06:37 20,7 °C 9,8 °C 55 % 87 % 1025,4 hPa 0,0 l/m² 1,0 km/h (0 Bft) W-NW 294 ° 2 min 132 W/m² 7,7 °C 9,8 °C 3,2 km/h (1 Bft)
31.05.2023 06:39 20,7 °C 9,9 °C 55 % 86 % 1025,4 hPa 0,0 l/m² 2,6 km/h (1 Bft) W 278 ° 2 min 135 W/m² 7,7 °C 9,9 °C 4,8 km/h (1 Bft)
31.05.2023 06:41 20,7 °C 10,1 °C 55 % 86 % 1025,4 hPa 0,0 l/m² 3,0 km/h (1 Bft) W-NW 291 ° 2 min 141 W/m² 7,9 °C 10,1 °C 6,4 km/h (2 Bft)
31.05.2023 06:42 20,7 °C 10,1 °C 55 % 86 % 1025,4 hPa 0,0 l/m² 3,9 km/h (1 Bft) W-NW 301 ° 1 min 146 W/m² 7,9 °C 10,1 °C 6,4 km/h (2 Bft)
31.05.2023 06:43 20,7 °C 10,2 °C 55 % 86 % 1025,4 hPa 0,0 l/m² 2,9 km/h (1 Bft) W 278 ° 1 min 149 W/m² 8,0 °C 10,2 °C 6,4 km/h (2 Bft)
31.05.2023 06:45 20,7 °C 10,3 °C 55 % 85 % 1025,3 hPa 0,0 l/m² 0,5 km/h (0 Bft) W 277 ° 2 min 151 W/m² 7,9 °C 10,3 °C 4,8 km/h (1 Bft)
31.05.2023 06:48 20,7 °C 10,3 °C 55 % 85 % 1025,3 hPa 0,0 l/m² 1,5 km/h (1 Bft) W 277 ° 3 min 153 W/m² 7,9 °C 10,3 °C 6,4 km/h (2 Bft)
31.05.2023 06:50 20,7 °C 10,4 °C 55 % 84 % 1025,4 hPa 0,0 l/m² 1,4 km/h (1 Bft) W 278 ° 2 min 151 W/m² 7,8 °C 10,4 °C 3,2 km/h (1 Bft)
31.05.2023 06:51 20,7 °C 10,5 °C 55 % 84 % 1025,4 hPa 0,0 l/m² 0,8 km/h (0 Bft) W 278 ° 1 min 151 W/m² 7,9 °C 10,5 °C 1,6 km/h (1 Bft)
31.05.2023 06:53 20,7 °C 10,6 °C 55 % 84 % 1025,3 hPa 0,0 l/m² 3,1 km/h (1 Bft) W-SW 238 ° 2 min 153 W/m² 8,0 °C 10,6 °C 6,4 km/h (2 Bft)
31.05.2023 06:55 20,7 °C 10,7 °C 55 % 84 % 1025,4 hPa 0,0 l/m² 2,9 km/h (1 Bft) W-NW 284 ° 2 min 155 W/m² 8,1 °C 10,7 °C 6,4 km/h (2 Bft)
31.05.2023 06:57 20,7 °C 10,7 °C 55 % 83 % 1025,4 hPa 0,0 l/m² 3,2 km/h (1 Bft) W 263 ° 2 min 160 W/m² 7,9 °C 10,7 °C 11,3 km/h (2 Bft)
31.05.2023 06:59 20,7 °C 10,9 °C 55 % 83 % 1025,3 hPa 0,0 l/m² 2,9 km/h (1 Bft) W 259 ° 2 min 167 W/m² 8,1 °C 10,9 °C 6,4 km/h (2 Bft)
31.05.2023 07:01 20,7 °C 11,0 °C 55 % 83 % 1025,4 hPa 0,0 l/m² 2,3 km/h (1 Bft) W-NW 284 ° 2 min 77 W/m² 8,2 °C 11,0 °C 6,4 km/h (2 Bft)
31.05.2023 07:02 20,7 °C 11,0 °C 55 % 83 % 1025,5 hPa 0,0 l/m² 4,8 km/h (1 Bft) NW 306 ° 1 min 53 W/m² 8,2 °C 11,0 °C 8,0 km/h (2 Bft)
31.05.2023 07:03 20,7 °C 11,1 °C 55 % 83 % 1025,5 hPa 0,0 l/m² 2,7 km/h (1 Bft) W-NW 298 ° 0 min 51 W/m² 8,3 °C 11,1 °C 3,2 km/h (1 Bft)
31.05.2023 07:04 20,7 °C 11,1 °C 55 % 83 % 1025,4 hPa 0,0 l/m² 5,2 km/h (1 Bft) W 273 ° 0 min 51 W/m² 8,3 °C 11,1 °C 8,0 km/h (2 Bft)
31.05.2023 07:05 20,7 °C 11,2 °C 55 % 82 % 1025,5 hPa 0,0 l/m² 4,1 km/h (1 Bft) NW 319 ° 0 min 51 W/m² 8,2 °C 11,2 °C 8,0 km/h (2 Bft)
31.05.2023 07:07 20,7 °C 11,2 °C 55 % 83 % 1025,4 hPa 0,0 l/m² 3,7 km/h (1 Bft) SW 232 ° 2 min 100 W/m² 8,4 °C 11,2 °C 6,4 km/h (2 Bft)
31.05.2023 07:09 20,7 °C 11,3 °C 55 % 83 % 1025,4 hPa 0,0 l/m² 3,5 km/h (1 Bft) W-NW 296 ° 2 min 221 W/m² 8,5 °C 11,3 °C 6,4 km/h (2 Bft)
31.05.2023 07:11 20,7 °C 11,4 °C 55 % 83 % 1025,5 hPa 0,0 l/m² 1,8 km/h (1 Bft) N-NW 328 ° 2 min 236 W/m² 8,6 °C 11,4 °C 6,4 km/h (2 Bft)
31.05.2023 07:12 20,7 °C 11,5 °C 55 % 83 % 1025,5 hPa 0,0 l/m² 2,3 km/h (1 Bft) W 277 ° 1 min 241 W/m² 8,7 °C 11,5 °C 4,8 km/h (1 Bft)
31.05.2023 07:13 20,7 °C 11,6 °C 55 % 82 % 1025,5 hPa 0,0 l/m² 2,2 km/h (1 Bft) NW 306 ° 1 min 244 W/m² 8,6 °C 11,6 °C 4,8 km/h (1 Bft)
31.05.2023 07:15 20,7 °C 11,7 °C 55 % 82 % 1025,5 hPa 0,0 l/m² 3,9 km/h (1 Bft) W 273 ° 2 min 250 W/m² 8,7 °C 11,7 °C 9,7 km/h (2 Bft)
31.05.2023 07:17 20,7 °C 11,9 °C 55 % 82 % 1025,4 hPa 0,0 l/m² 2,4 km/h (1 Bft) W-NW 290 ° 2 min 257 W/m² 8,9 °C 11,9 °C 6,4 km/h (2 Bft)
31.05.2023 07:18 20,7 °C 11,9 °C 55 % 81 % 1025,4 hPa 0,0 l/m² 1,0 km/h (0 Bft) W-NW 290 ° 1 min 260 W/m² 8,7 °C 11,9 °C 3,2 km/h (1 Bft)
31.05.2023 07:19 20,7 °C 12,1 °C 55 % 81 % 1025,4 hPa 0,0 l/m² 5,1 km/h (1 Bft) NW 319 ° 1 min 262 W/m² 8,9 °C 12,1 °C 8,0 km/h (2 Bft)
31.05.2023 07:20 20,7 °C 12,1 °C 55 % 80 % 1025,4 hPa 0,0 l/m² 2,2 km/h (1 Bft) W 273 ° 1 min 264 W/m² 8,8 °C 12,1 °C 4,8 km/h (1 Bft)
31.05.2023 07:21 20,7 °C 12,2 °C 55 % 80 % 1025,4 hPa 0,0 l/m² 1,4 km/h (1 Bft) W 259 ° 1 min 267 W/m² 8,9 °C 12,2 °C 4,8 km/h (1 Bft)
31.05.2023 07:23 20,7 °C 12,2 °C 55 % 80 % 1025,4 hPa 0,0 l/m² 2,2 km/h (1 Bft) W-NW 286 ° 2 min 271 W/m² 8,9 °C 12,2 °C 6,4 km/h (2 Bft)
31.05.2023 07:24 20,7 °C 12,3 °C 55 % 80 % 1025,5 hPa 0,0 l/m² 1,1 km/h (1 Bft) W-NW 302 ° 1 min 276 W/m² 8,9 °C 12,3 °C 4,8 km/h (1 Bft)
31.05.2023 07:25 20,7 °C 12,3 °C 55 % 80 % 1025,4 hPa 0,0 l/m² 2,6 km/h (1 Bft) W 278 ° 1 min 278 W/m² 8,9 °C 12,3 °C 6,4 km/h (2 Bft)
31.05.2023 07:26 20,7 °C 12,4 °C 55 % 80 % 1025,4 hPa 0,0 l/m² 3,1 km/h (1 Bft) NW 319 ° 1 min 281 W/m² 9,0 °C 12,4 °C 6,4 km/h (2 Bft)
31.05.2023 07:27 20,7 °C 12,5 °C 55 % 80 % 1025,4 hPa 0,0 l/m² 4,9 km/h (1 Bft) W-NW 286 ° 1 min 283 W/m² 9,1 °C 12,5 °C 6,4 km/h (2 Bft)
31.05.2023 07:28 20,7 °C 12,7 °C 55 % 79 % 1025,4 hPa 0,0 l/m² 1,5 km/h (1 Bft) W-NW 300 ° 1 min 287 W/m² 9,2 °C 12,7 °C 4,8 km/h (1 Bft)
31.05.2023 07:29 20,7 °C 12,7 °C 55 % 79 % 1025,5 hPa 0,0 l/m² 1,3 km/h (1 Bft) W 279 ° 1 min 290 W/m² 9,2 °C 12,7 °C 4,8 km/h (1 Bft)
31.05.2023 07:30 20,7 °C 12,8 °C 55 % 78 % 1025,5 hPa 0,0 l/m² 1,9 km/h (1 Bft) W 264 ° 1 min 294 W/m² 9,1 °C 12,8 °C 3,2 km/h (1 Bft)
31.05.2023 07:31 20,7 °C 12,8 °C 55 % 78 % 1025,5 hPa 0,0 l/m² 2,8 km/h (1 Bft) W 267 ° 1 min 295 W/m² 9,1 °C 12,8 °C 4,8 km/h (1 Bft)
31.05.2023 07:33 20,7 °C 12,8 °C 55 % 78 % 1025,5 hPa 0,0 l/m² 1,9 km/h (1 Bft) W 265 ° 2 min 295 W/m² 9,1 °C 12,8 °C 4,8 km/h (1 Bft)
31.05.2023 07:34 20,7 °C 12,9 °C 55 % 78 % 1025,4 hPa 0,0 l/m² 1,6 km/h (1 Bft) W 277 ° 1 min 294 W/m² 9,2 °C 12,9 °C 3,2 km/h (1 Bft)
31.05.2023 07:35 20,7 °C 12,9 °C 55 % 78 % 1025,4 hPa 0,0 l/m² 0,9 km/h (0 Bft) W 267 ° 1 min 292 W/m² 9,2 °C 12,9 °C 3,2 km/h (1 Bft)
31.05.2023 07:36 20,7 °C 13,0 °C 55 % 78 % 1025,4 hPa 0,0 l/m² 1,4 km/h (1 Bft) NW 304 ° 1 min 288 W/m² 9,3 °C 13,0 °C 3,2 km/h (1 Bft)
31.05.2023 07:37 20,7 °C 13,1 °C 55 % 78 % 1025,4 hPa 0,0 l/m² 3,6 km/h (1 Bft) W-NW 293 ° 1 min 287 W/m² 9,4 °C 13,1 °C 6,4 km/h (2 Bft)
31.05.2023 07:38 20,7 °C 13,1 °C 55 % 77 % 1025,4 hPa 0,0 l/m² 1,8 km/h (1 Bft) W 275 ° 1 min 285 W/m² 9,2 °C 13,1 °C 4,8 km/h (1 Bft)
31.05.2023 07:39 20,7 °C 13,2 °C 55 % 76 % 1025,4 hPa 0,0 l/m² 3,0 km/h (1 Bft) W 277 ° 1 min 281 W/m² 9,1 °C 13,2 °C 6,4 km/h (2 Bft)
31.05.2023 07:40 20,7 °C 13,2 °C 55 % 75 % 1025,4 hPa 0,0 l/m² 3,4 km/h (1 Bft) W-NW 289 ° 1 min 279 W/m² 8,9 °C 13,2 °C 6,4 km/h (2 Bft)
31.05.2023 07:41 20,7 °C 13,2 °C 55 % 76 % 1025,5 hPa 0,0 l/m² 0,9 km/h (0 Bft) W 280 ° 1 min 274 W/m² 9,1 °C 13,2 °C 3,2 km/h (1 Bft)
31.05.2023 07:43 20,7 °C 13,3 °C 55 % 77 % 1025,4 hPa 0,0 l/m² 2,4 km/h (1 Bft) W-NW 287 ° 2 min 274 W/m² 9,4 °C 13,3 °C 4,8 km/h (1 Bft)
31.05.2023 07:44 20,7 °C 13,4 °C 55 % 77 % 1025,4 hPa 0,0 l/m² 1,2 km/h (1 Bft) W 271 ° 1 min 274 W/m² 9,5 °C 13,4 °C 9,7 km/h (2 Bft)
31.05.2023 07:45 20,7 °C 13,4 °C 55 % 76 % 1025,4 hPa 0,0 l/m² 4,0 km/h (1 Bft) W 277 ° 1 min 274 W/m² 9,3 °C 13,4 °C 6,4 km/h (2 Bft)
31.05.2023 07:46 20,7 °C 13,4 °C 55 % 76 % 1025,4 hPa 0,0 l/m² 2,0 km/h (1 Bft) W-NW 295 ° 1 min 276 W/m² 9,3 °C 13,4 °C 3,2 km/h (1 Bft)
31.05.2023 07:47 20,8 °C 13,5 °C 55 % 76 % 1025,4 hPa 0,0 l/m² 7,2 km/h (2 Bft) W 261 ° 1 min 278 W/m² 9,4 °C 13,0 °C 11,3 km/h (2 Bft)
31.05.2023 07:48 20,8 °C 13,5 °C 55 % 75 % 1025,5 hPa 0,0 l/m² 1,9 km/h (1 Bft) W 280 ° 1 min 287 W/m² 9,2 °C 13,5 °C 3,2 km/h (1 Bft)
31.05.2023 07:49 20,7 °C 13,6 °C 55 % 76 % 1025,5 hPa 0,0 l/m² 3,5 km/h (1 Bft) W 277 ° 1 min 290 W/m² 9,4 °C 13,6 °C 4,8 km/h (1 Bft)
31.05.2023 07:50 20,8 °C 13,6 °C 55 % 75 % 1025,6 hPa 0,0 l/m² 1,7 km/h (1 Bft) W-SW 252 ° 1 min 297 W/m² 9,3 °C 13,6 °C 4,8 km/h (1 Bft)
31.05.2023 07:51 20,8 °C 13,7 °C 55 % 75 % 1025,5 hPa 0,0 l/m² 2,2 km/h (1 Bft) W-SW 250 ° 1 min 302 W/m² 9,3 °C 13,7 °C 6,4 km/h (2 Bft)
31.05.2023 07:53 20,8 °C 13,7 °C 55 % 75 % 1025,5 hPa 0,0 l/m² 2,0 km/h (1 Bft) W 275 ° 2 min 316 W/m² 9,3 °C 13,7 °C 6,4 km/h (2 Bft)
31.05.2023 07:54 20,8 °C 13,7 °C 55 % 75 % 1025,5 hPa 0,0 l/m² 2,1 km/h (1 Bft) W-NW 298 ° 1 min 334 W/m² 9,3 °C 13,7 °C 4,8 km/h (1 Bft)
31.05.2023 07:55 20,8 °C 13,8 °C 55 % 75 % 1025,5 hPa 0,0 l/m² 0,8 km/h (0 Bft) W-NW 290 ° 1 min 343 W/m² 9,4 °C 13,8 °C 3,2 km/h (1 Bft)
31.05.2023 07:56 20,8 °C 13,9 °C 55 % 76 % 1025,5 hPa 0,0 l/m² 0,3 km/h (0 Bft) W 281 ° 1 min 350 W/m² 9,7 °C 13,9 °C 3,2 km/h (1 Bft)
31.05.2023 07:57 20,8 °C 13,9 °C 55 % 74 % 1025,5 hPa 0,0 l/m² 5,4 km/h (2 Bft) N-NW 342 ° 1 min 359 W/m² 9,3 °C 13,9 °C 6,4 km/h (2 Bft)
31.05.2023 07:58 20,8 °C 13,9 °C 55 % 74 % 1025,5 hPa 0,0 l/m² 0,2 km/h (0 Bft) NW 316 ° 1 min 366 W/m² 9,3 °C 13,9 °C 1,6 km/h (1 Bft)
31.05.2023 07:59 20,8 °C 14,1 °C 55 % 75 % 1025,5 hPa 0,0 l/m² 0,0 km/h (0 Bft) W 267 ° 1 min 376 W/m² 9,7 °C 14,1 °C 0,0 km/h (0 Bft)
31.05.2023 08:00 20,8 °C 14,2 °C 55 % 75 % 1025,5 hPa 0,0 l/m² 1,1 km/h (1 Bft) W 259 ° 1 min 380 W/m² 9,8 °C 14,2 °C 3,2 km/h (1 Bft)
31.05.2023 08:01 20,8 °C 14,3 °C 55 % 74 % 1025,5 hPa 0,0 l/m² 0,7 km/h (0 Bft) W-NW 289 ° 1 min 383 W/m² 9,7 °C 14,3 °C 1,6 km/h (1 Bft)
31.05.2023 08:03 20,8 °C 14,3 °C 54 % 73 % 1025,5 hPa 0,0 l/m² 2,5 km/h (1 Bft) W 281 ° 2 min 387 W/m² 9,5 °C 14,3 °C 4,8 km/h (1 Bft)
31.05.2023 08:04 20,8 °C 14,4 °C 55 % 73 % 1025,5 hPa 0,0 l/m² 3,8 km/h (1 Bft) N-NW 336 ° 1 min 390 W/m² 9,6 °C 14,4 °C 9,7 km/h (2 Bft)
31.05.2023 08:05 20,8 °C 14,5 °C 55 % 73 % 1025,5 hPa 0,0 l/m² 3,8 km/h (1 Bft) NW 322 ° 1 min 394 W/m² 9,7 °C 14,5 °C 8,0 km/h (2 Bft)
31.05.2023 08:06 20,8 °C 14,6 °C 55 % 73 % 1025,4 hPa 0,0 l/m² 4,5 km/h (1 Bft) W 281 ° 1 min 394 W/m² 9,8 °C 14,6 °C 8,0 km/h (2 Bft)
31.05.2023 08:07 20,8 °C 14,7 °C 55 % 72 % 1025,5 hPa 0,0 l/m² 3,6 km/h (1 Bft) W-NW 289 ° 1 min 396 W/m² 9,7 °C 14,7 °C 6,4 km/h (2 Bft)
31.05.2023 08:08 20,8 °C 14,7 °C 55 % 72 % 1025,6 hPa 0,0 l/m² 5,2 km/h (1 Bft) W 281 ° 1 min 397 W/m² 9,7 °C 14,7 °C 9,7 km/h (2 Bft)
31.05.2023 08:09 20,8 °C 14,7 °C 54 % 71 % 1025,5 hPa 0,0 l/m² 6,0 km/h (2 Bft) NW 316 ° 1 min 397 W/m² 9,5 °C 14,7 °C 9,7 km/h (2 Bft)
31.05.2023 08:10 20,8 °C 14,8 °C 54 % 72 % 1025,5 hPa 0,0 l/m² 4,0 km/h (1 Bft) W-NW 290 ° 1 min 397 W/m² 9,8 °C 14,8 °C 6,4 km/h (2 Bft)
31.05.2023 08:11 20,8 °C 14,8 °C 55 % 71 % 1025,6 hPa 0,0 l/m² 1,9 km/h (1 Bft) NW 314 ° 1 min 397 W/m² 9,6 °C 14,8 °C 4,8 km/h (1 Bft)
31.05.2023 08:13 20,8 °C 14,9 °C 54 % 71 % 1025,6 hPa 0,0 l/m² 4,6 km/h (1 Bft) W 265 ° 2 min 392 W/m² 9,7 °C 14,9 °C 11,3 km/h (2 Bft)
31.05.2023 08:14 20,8 °C 15,1 °C 54 % 72 % 1025,5 hPa 0,0 l/m² 2,6 km/h (1 Bft) NW 305 ° 1 min 392 W/m² 10,1 °C 15,1 °C 4,8 km/h (1 Bft)
31.05.2023 08:15 20,8 °C 15,2 °C 55 % 72 % 1025,6 hPa 0,0 l/m² 4,2 km/h (1 Bft) NW 323 ° 1 min 390 W/m² 10,2 °C 15,2 °C 6,4 km/h (2 Bft)
31.05.2023 08:16 20,8 °C 15,2 °C 54 % 71 % 1025,6 hPa 0,0 l/m² 6,4 km/h (2 Bft) W 281 ° 1 min 387 W/m² 10,0 °C 15,2 °C 8,0 km/h (2 Bft)
31.05.2023 08:17 20,8 °C 15,2 °C 54 % 71 % 1025,5 hPa 0,0 l/m² 4,0 km/h (1 Bft) W-SW 256 ° 1 min 380 W/m² 10,0 °C 15,2 °C 11,3 km/h (2 Bft)
31.05.2023 08:18 20,8 °C 15,2 °C 54 % 71 % 1025,5 hPa 0,0 l/m² 6,4 km/h (2 Bft) N-NW 336 ° 1 min 376 W/m² 10,0 °C 15,2 °C 11,3 km/h (2 Bft)
31.05.2023 08:19 20,8 °C 15,3 °C 54 % 70 % 1025,6 hPa 0,0 l/m² 2,3 km/h (1 Bft) W-NW 286 ° 1 min 374 W/m² 9,9 °C 15,3 °C 4,8 km/h (1 Bft)
31.05.2023 08:21 20,8 °C 15,4 °C 54 % 69 % 1025,6 hPa 0,0 l/m² 3,7 km/h (1 Bft) N-NO 13 ° 2 min 373 W/m² 9,7 °C 15,4 °C 11,3 km/h (2 Bft)
31.05.2023 08:24 20,8 °C 15,6 °C 54 % 69 % 1025,6 hPa 0,0 l/m² 5,2 km/h (1 Bft) N-NW 344 ° 3 min 373 W/m² 9,9 °C 15,6 °C 12,9 km/h (3 Bft)
31.05.2023 08:25 20,9 °C 15,6 °C 54 % 68 % 1025,6 hPa 0,0 l/m² 5,8 km/h (2 Bft) N-NW 336 ° 1 min 373 W/m² 9,7 °C 15,6 °C 8,0 km/h (2 Bft)
31.05.2023 08:26 20,9 °C 15,6 °C 54 % 68 % 1025,6 hPa 0,0 l/m² 6,4 km/h (2 Bft) NW 326 ° 1 min 371 W/m² 9,7 °C 15,6 °C 9,7 km/h (2 Bft)
31.05.2023 08:27 20,9 °C 15,6 °C 54 % 67 % 1025,6 hPa 0,0 l/m² 8,0 km/h (2 Bft) N-NW 337 ° 1 min 369 W/m² 9,5 °C 14,7 °C 12,9 km/h (3 Bft)
31.05.2023 08:28 20,9 °C 15,6 °C 54 % 67 % 1025,6 hPa 0,0 l/m² 8,5 km/h (2 Bft) N-NW 338 ° 1 min 366 W/m² 9,5 °C 14,5 °C 12,9 km/h (3 Bft)
31.05.2023 08:29 20,8 °C 15,6 °C 54 % 67 % 1025,6 hPa 0,0 l/m² 6,7 km/h (2 Bft) N-NW 342 ° 1 min 353 W/m² 9,5 °C 15,4 °C 9,7 km/h (2 Bft)
31.05.2023 08:31 20,9 °C 15,6 °C 54 % 67 % 1025,6 hPa 0,0 l/m² 5,8 km/h (2 Bft) NW 305 ° 2 min 345 W/m² 9,5 °C 15,6 °C 11,3 km/h (2 Bft)
31.05.2023 08:34 20,9 °C 15,9 °C 54 % 67 % 1025,6 hPa 0,0 l/m² 4,6 km/h (1 Bft) NW 318 ° 3 min 327 W/m² 9,8 °C 15,9 °C 8,0 km/h (2 Bft)
31.05.2023 08:35 20,9 °C 15,9 °C 54 % 66 % 1025,6 hPa 0,0 l/m² 4,0 km/h (1 Bft) N-NW 332 ° 1 min 323 W/m² 9,6 °C 15,9 °C 8,0 km/h (2 Bft)
31.05.2023 08:36 20,9 °C 15,9 °C 54 % 65 % 1025,6 hPa 0,0 l/m² 4,8 km/h (1 Bft) NW 323 ° 1 min 322 W/m² 9,3 °C 15,9 °C 8,0 km/h (2 Bft)
31.05.2023 08:37 20,9 °C 15,8 °C 54 % 65 % 1025,6 hPa 0,0 l/m² 4,8 km/h (1 Bft) N 350 ° 1 min 323 W/m² 9,2 °C 15,8 °C 8,0 km/h (2 Bft)
31.05.2023 08:38 20,9 °C 15,9 °C 54 % 66 % 1025,6 hPa 0,0 l/m² 6,1 km/h (2 Bft) N-NW 329 ° 1 min 322 W/m² 9,6 °C 15,9 °C 8,0 km/h (2 Bft)
31.05.2023 08:39 20,9 °C 16,0 °C 54 % 66 % 1025,5 hPa 0,0 l/m² 3,6 km/h (1 Bft) N-NW 332 ° 1 min 327 W/m² 9,7 °C 16,0 °C 9,7 km/h (2 Bft)
31.05.2023 08:41 20,9 °C 16,2 °C 54 % 65 % 1025,5 hPa 0,0 l/m² 3,1 km/h (1 Bft) W 281 ° 2 min 353 W/m² 9,6 °C 16,2 °C 6,4 km/h (2 Bft)
31.05.2023 08:44 20,9 °C 16,2 °C 54 % 66 % 1025,5 hPa 0,0 l/m² 3,7 km/h (1 Bft) W-NW 301 ° 3 min 390 W/m² 9,8 °C 16,2 °C 6,4 km/h (2 Bft)
31.05.2023 08:45 20,9 °C 16,3 °C 54 % 66 % 1025,6 hPa 0,0 l/m² 3,8 km/h (1 Bft) N-NW 342 ° 1 min 401 W/m² 9,9 °C 16,3 °C 6,4 km/h (2 Bft)
31.05.2023 08:46 20,9 °C 16,4 °C 54 % 65 % 1025,5 hPa 0,0 l/m² 4,9 km/h (1 Bft) N-NW 340 ° 1 min 422 W/m² 9,8 °C 16,4 °C 6,4 km/h (2 Bft)
31.05.2023 08:47 20,9 °C 16,3 °C 54 % 64 % 1025,6 hPa 0,0 l/m² 3,2 km/h (1 Bft) W-NW 302 ° 1 min 432 W/m² 9,5 °C 16,3 °C 6,4 km/h (2 Bft)
31.05.2023 08:48 20,9 °C 16,3 °C 54 % 65 % 1025,6 hPa 0,0 l/m² 4,5 km/h (1 Bft) W-NW 293 ° 1 min 439 W/m² 9,7 °C 16,3 °C 8,0 km/h (2 Bft)
31.05.2023 08:49 20,9 °C 16,4 °C 54 % 65 % 1025,4 hPa 0,0 l/m² 3,6 km/h (1 Bft) W-NW 287 ° 1 min 448 W/m² 9,8 °C 16,4 °C 6,4 km/h (2 Bft)
31.05.2023 08:51 20,9 °C 16,4 °C 54 % 65 % 1025,4 hPa 0,0 l/m² 4,5 km/h (1 Bft) NW 308 ° 2 min 462 W/m² 9,8 °C 16,4 °C 11,3 km/h (2 Bft)
31.05.2023 08:54 20,9 °C 16,7 °C 54 % 64 % 1025,5 hPa 0,0 l/m² 4,6 km/h (1 Bft) N-NW 327 ° 3 min 490 W/m² 9,9 °C 16,7 °C 8,0 km/h (2 Bft)
31.05.2023 08:55 20,9 °C 16,7 °C 54 % 63 % 1025,5 hPa 0,0 l/m² 5,4 km/h (2 Bft) N-NW 339 ° 1 min 496 W/m² 9,6 °C 16,7 °C 8,0 km/h (2 Bft)
31.05.2023 08:56 20,9 °C 16,6 °C 54 % 63 % 1025,5 hPa 0,0 l/m² 3,6 km/h (1 Bft) W-NW 286 ° 1 min 503 W/m² 9,5 °C 16,6 °C 4,8 km/h (1 Bft)
31.05.2023 08:57 20,9 °C 16,7 °C 54 % 64 % 1025,6 hPa 0,0 l/m² 1,0 km/h (0 Bft) N-NW 344 ° 1 min 510 W/m² 9,9 °C 16,7 °C 3,2 km/h (1 Bft)
31.05.2023 08:58 20,9 °C 16,7 °C 54 % 64 % 1025,5 hPa 0,0 l/m² 3,3 km/h (1 Bft) N-NW 332 ° 1 min 520 W/m² 9,9 °C 16,7 °C 6,4 km/h (2 Bft)
31.05.2023 08:59 20,9 °C 16,7 °C 54 % 63 % 1025,5 hPa 0,0 l/m² 4,6 km/h (1 Bft) W-NW 297 ° 1 min 527 W/m² 9,6 °C 16,7 °C 6,4 km/h (2 Bft)
31.05.2023 09:02 20,9 °C 16,7 °C 54 % 63 % 1025,4 hPa 0,0 l/m² 5,0 km/h (1 Bft) N-NW 343 ° 3 min 547 W/m² 9,6 °C 16,7 °C 8,0 km/h (2 Bft)
31.05.2023 09:03 20,9 °C 16,7 °C 54 % 63 % 1025,5 hPa 0,0 l/m² 4,1 km/h (1 Bft) NO 36 ° 1 min 559 W/m² 9,6 °C 16,7 °C 6,4 km/h (2 Bft)
31.05.2023 09:04 20,9 °C 16,8 °C 54 % 66 % 1025,5 hPa 0,0 l/m² 2,9 km/h (1 Bft) N-NW 333 ° 1 min 561 W/m² 10,4 °C 16,8 °C 4,8 km/h (1 Bft)
31.05.2023 09:05 20,9 °C 16,9 °C 54 % 63 % 1025,5 hPa 0,0 l/m² 4,3 km/h (1 Bft) N-NW 345 ° 1 min 566 W/m² 9,8 °C 16,9 °C 6,4 km/h (2 Bft)
31.05.2023 09:06 20,9 °C 16,9 °C 54 % 63 % 1025,4 hPa 0,0 l/m² 2,2 km/h (1 Bft) NW 324 ° 1 min 570 W/m² 9,8 °C 16,9 °C 4,8 km/h (1 Bft)
31.05.2023 09:07 20,9 °C 16,9 °C 54 % 62 % 1025,4 hPa 0,0 l/m² 1,3 km/h (1 Bft) NW 317 ° 1 min 571 W/m² 9,6 °C 16,9 °C 3,2 km/h (1 Bft)
31.05.2023 09:08 21,0 °C 17,0 °C 54 % 63 % 1025,5 hPa 0,0 l/m² 1,7 km/h (1 Bft) NW 315 ° 1 min 575 W/m² 9,9 °C 17,0 °C 3,2 km/h (1 Bft)
31.05.2023 09:09 21,0 °C 17,2 °C 54 % 62 % 1025,4 hPa 0,0 l/m² 1,8 km/h (1 Bft) NW 314 ° 1 min 578 W/m² 9,9 °C 17,2 °C 3,2 km/h (1 Bft)
31.05.2023 09:11 20,9 °C 17,1 °C 54 % 62 % 1025,4 hPa 0,0 l/m² 1,6 km/h (1 Bft) N 360 ° 2 min 587 W/m² 9,8 °C 17,1 °C 8,0 km/h (2 Bft)
31.05.2023 09:14 21,0 °C 17,3 °C 54 % 62 % 1025,3 hPa 0,0 l/m² 3,5 km/h (1 Bft) N-NO 13 ° 3 min 592 W/m² 9,9 °C 17,3 °C 6,4 km/h (2 Bft)
31.05.2023 09:15 21,0 °C 17,4 °C 54 % 62 % 1025,3 hPa 0,0 l/m² 3,1 km/h (1 Bft) N-NO 28 ° 1 min 598 W/m² 10,0 °C 17,4 °C 4,8 km/h (1 Bft)
31.05.2023 09:16 20,9 °C 17,4 °C 54 % 62 % 1025,4 hPa 0,0 l/m² 0,5 km/h (0 Bft) N-NO 30 ° 1 min 601 W/m² 10,0 °C 17,4 °C 3,2 km/h (1 Bft)
31.05.2023 09:17 21,0 °C 17,6 °C 54 % 65 % 1025,4 hPa 0,0 l/m² 0,7 km/h (0 Bft) N 10 ° 1 min 601 W/m² 10,9 °C 17,6 °C 1,6 km/h (1 Bft)
31.05.2023 09:18 21,0 °C 17,6 °C 54 % 62 % 1025,3 hPa 0,0 l/m² 2,3 km/h (1 Bft) N 9 ° 1 min 603 W/m² 10,2 °C 17,6 °C 3,2 km/h (1 Bft)
31.05.2023 09:19 21,0 °C 17,5 °C 54 % 60 % 1025,3 hPa 0,0 l/m² 0,5 km/h (0 Bft) N 9 ° 1 min 606 W/m² 9,6 °C 17,5 °C 1,6 km/h (1 Bft)
31.05.2023 09:21 21,0 °C 17,3 °C 54 % 61 % 1025,3 hPa 0,0 l/m² 0,0 km/h (0 Bft) N 360 ° 2 min 610 W/m² 9,7 °C 17,3 °C 0,0 km/h (0 Bft)
31.05.2023 09:24 20,9 °C 17,6 °C 54 % 61 % 1025,3 hPa 0,0 l/m² 0,3 km/h (0 Bft) NW 321 ° 3 min 622 W/m² 10,0 °C 17,6 °C 3,2 km/h (1 Bft)
31.05.2023 09:25 21,0 °C 17,7 °C 54 % 62 % 1025,3 hPa 0,0 l/m² 2,8 km/h (1 Bft) W-NW 286 ° 1 min 624 W/m² 10,3 °C 17,7 °C 4,8 km/h (1 Bft)
31.05.2023 09:26 21,0 °C 17,6 °C 54 % 61 % 1025,3 hPa 0,0 l/m² 2,6 km/h (1 Bft) W 278 ° 1 min 628 W/m² 10,0 °C 17,6 °C 4,8 km/h (1 Bft)
31.05.2023 09:27 21,0 °C 17,6 °C 54 % 62 % 1025,3 hPa 0,0 l/m² 1,3 km/h (1 Bft) W 281 ° 1 min 631 W/m² 10,2 °C 17,6 °C 4,8 km/h (1 Bft)
31.05.2023 09:28 21,0 °C 17,7 °C 54 % 61 % 1025,3 hPa 0,0 l/m² 1,3 km/h (1 Bft) NW 318 ° 1 min 633 W/m² 10,1 °C 17,7 °C 3,2 km/h (1 Bft)
31.05.2023 09:29 21,0 °C 17,7 °C 54 % 61 % 1025,3 hPa 0,0 l/m² 0,9 km/h (0 Bft) N-NW 343 ° 1 min 636 W/m² 10,1 °C 17,7 °C 3,2 km/h (1 Bft)
31.05.2023 09:31 21,0 °C 17,8 °C 54 % 63 % 1025,3 hPa 0,0 l/m² 0,1 km/h (0 Bft) N 9 ° 2 min 638 W/m² 10,7 °C 17,8 °C 1,6 km/h (1 Bft)
31.05.2023 09:34 21,0 °C 18,3 °C 54 % 60 % 1025,2 hPa 0,0 l/m² 1,6 km/h (1 Bft) NW 325 ° 3 min 649 W/m² 10,4 °C 18,3 °C 4,8 km/h (1 Bft)
31.05.2023 09:35 21,0 °C 18,3 °C 54 % 59 % 1025,2 hPa 0,0 l/m² 2,4 km/h (1 Bft) W-NW 291 ° 1 min 650 W/m² 10,1 °C 18,3 °C 4,8 km/h (1 Bft)
31.05.2023 09:36 21,0 °C 18,2 °C 54 % 59 % 1025,3 hPa 0,0 l/m² 1,8 km/h (1 Bft) W-NW 288 ° 1 min 652 W/m² 10,1 °C 18,2 °C 4,8 km/h (1 Bft)
31.05.2023 09:37 21,0 °C 18,2 °C 54 % 59 % 1025,2 hPa 0,0 l/m² 0,1 km/h (0 Bft) W-NW 288 ° 1 min 654 W/m² 10,1 °C 18,2 °C 1,6 km/h (1 Bft)
31.05.2023 09:38 21,1 °C 18,2 °C 54 % 60 % 1025,3 hPa 0,0 l/m² 0,0 km/h (0 Bft) W-NW 288 ° 1 min 657 W/m² 10,3 °C 18,2 °C 0,0 km/h (0 Bft)
31.05.2023 09:39 21,1 °C 18,3 °C 54 % 62 % 1025,2 hPa 0,0 l/m² 0,4 km/h (0 Bft) N-NW 330 ° 1 min 661 W/m² 10,9 °C 18,3 °C 3,2 km/h (1 Bft)
31.05.2023 09:41 21,1 °C 18,4 °C 54 % 59 % 1025,2 hPa 0,0 l/m² 0,3 km/h (0 Bft) N-NW 330 ° 2 min 664 W/m² 10,2 °C 18,4 °C 1,6 km/h (1 Bft)
31.05.2023 09:44 21,1 °C 18,7 °C 54 % 60 % 1025,2 hPa 0,0 l/m² 0,7 km/h (0 Bft) N-NW 331 ° 3 min 671 W/m² 10,8 °C 18,7 °C 4,8 km/h (1 Bft)
31.05.2023 09:46 21,1 °C 18,8 °C 54 % 59 % 1025,1 hPa 0,0 l/m² 3,7 km/h (1 Bft) NW 310 ° 2 min 679 W/m² 10,6 °C 18,8 °C 6,4 km/h (2 Bft)
31.05.2023 09:47 21,1 °C 18,8 °C 54 % 60 % 1025,1 hPa 0,0 l/m² 3,4 km/h (1 Bft) W-NW 290 ° 1 min 680 W/m² 10,9 °C 18,8 °C 4,8 km/h (1 Bft)
31.05.2023 09:48 21,1 °C 18,8 °C 54 % 59 % 1025,1 hPa 0,0 l/m² 1,2 km/h (1 Bft) W-NW 290 ° 1 min 682 W/m² 10,6 °C 18,8 °C 3,2 km/h (1 Bft)
31.05.2023 09:49 21,1 °C 18,8 °C 54 % 59 % 1025,2 hPa 0,0 l/m² 3,6 km/h (1 Bft) NW 304 ° 1 min 682 W/m² 10,6 °C 18,8 °C 6,4 km/h (2 Bft)
31.05.2023 09:51 21,1 °C 18,9 °C 54 % 57 % 1025,1 hPa 0,0 l/m² 3,0 km/h (1 Bft) W-NW 284 ° 2 min 689 W/m² 10,2 °C 18,9 °C 6,4 km/h (2 Bft)
31.05.2023 09:54 21,1 °C 18,9 °C 54 % 58 % 1025,1 hPa 0,0 l/m² 1,0 km/h (0 Bft) W 277 ° 3 min 696 W/m² 10,5 °C 18,9 °C 6,4 km/h (2 Bft)
31.05.2023 09:55 21,1 °C 19,0 °C 54 % 58 % 1025,1 hPa 0,0 l/m² 5,8 km/h (2 Bft) NW 322 ° 1 min 698 W/m² 10,5 °C 19,0 °C 12,9 km/h (3 Bft)
31.05.2023 09:56 21,1 °C 19,1 °C 54 % 58 % 1025,1 hPa 0,0 l/m² 7,8 km/h (2 Bft) N 9 ° 1 min 703 W/m² 10,6 °C 18,5 °C 12,9 km/h (3 Bft)
31.05.2023 09:57 21,1 °C 19,1 °C 54 % 58 % 1025,1 hPa 0,0 l/m² 8,6 km/h (2 Bft) N 360 ° 1 min 705 W/m² 10,6 °C 18,2 °C 12,9 km/h (3 Bft)
31.05.2023 09:58 21,1 °C 18,9 °C 54 % 57 % 1025,0 hPa 0,0 l/m² 6,4 km/h (2 Bft) NO 36 ° 1 min 708 W/m² 10,2 °C 18,9 °C 8,0 km/h (2 Bft)
31.05.2023 09:59 21,1 °C 18,9 °C 54 % 57 % 1025,1 hPa 0,0 l/m² 5,4 km/h (2 Bft) NW 320 ° 1 min 708 W/m² 10,2 °C 18,9 °C 6,4 km/h (2 Bft)
31.05.2023 10:01 21,1 °C 19,0 °C 54 % 58 % 1025,1 hPa 0,0 l/m² 4,8 km/h (1 Bft) N-NW 344 ° 2 min 712 W/m² 10,5 °C 19,0 °C 8,0 km/h (2 Bft)
31.05.2023 10:04 21,1 °C 19,3 °C 54 % 59 % 1025,1 hPa 0,0 l/m² 3,1 km/h (1 Bft) N-NO 19 ° 3 min 721 W/m² 11,1 °C 19,3 °C 6,4 km/h (2 Bft)
31.05.2023 10:05 21,1 °C 19,5 °C 54 % 60 % 1025,0 hPa 0,0 l/m² 4,8 km/h (1 Bft) NW 314 ° 1 min 721 W/m² 11,5 °C 19,5 °C 8,0 km/h (2 Bft)
31.05.2023 10:06 21,1 °C 19,7 °C 54 % 58 % 1025,0 hPa 0,0 l/m² 4,8 km/h (1 Bft) NW 319 ° 1 min 722 W/m² 11,2 °C 19,7 °C 8,0 km/h (2 Bft)
31.05.2023 10:07 21,1 °C 19,8 °C 54 % 58 % 1025,1 hPa 0,0 l/m² 6,9 km/h (2 Bft) N-NW 346 ° 1 min 726 W/m² 11,3 °C 19,6 °C 11,3 km/h (2 Bft)
31.05.2023 10:08 21,1 °C 19,8 °C 54 % 57 % 1025,1 hPa 0,0 l/m² 5,2 km/h (1 Bft) W-NW 290 ° 1 min 729 W/m² 11,0 °C 19,8 °C 6,4 km/h (2 Bft)
31.05.2023 10:09 21,1 °C 19,7 °C 54 % 56 % 1025,1 hPa 0,0 l/m² 3,8 km/h (1 Bft) NW 320 ° 1 min 731 W/m² 10,7 °C 19,7 °C 6,4 km/h (2 Bft)
31.05.2023 10:11 21,1 °C 19,4 °C 54 % 56 % 1025,0 hPa 0,0 l/m² 3,9 km/h (1 Bft) N-NW 346 ° 2 min 735 W/m² 10,4 °C 19,4 °C 6,4 km/h (2 Bft)
31.05.2023 10:14 21,1 °C 19,6 °C 54 % 59 % 1025,0 hPa 0,0 l/m² 3,2 km/h (1 Bft) N-NW 344 ° 3 min 744 W/m² 11,4 °C 19,6 °C 6,4 km/h (2 Bft)
31.05.2023 10:15 21,1 °C 19,7 °C 54 % 59 % 1025,0 hPa 0,0 l/m² 5,8 km/h (2 Bft) N-NW 346 ° 1 min 745 W/m² 11,5 °C 19,7 °C 9,7 km/h (2 Bft)
31.05.2023 10:16 21,2 °C 19,7 °C 54 % 56 % 1025,0 hPa 0,0 l/m² 4,0 km/h (1 Bft) N-NW 346 ° 1 min 747 W/m² 10,7 °C 19,7 °C 8,0 km/h (2 Bft)
31.05.2023 10:17 21,2 °C 19,6 °C 54 % 58 % 1025,0 hPa 0,0 l/m² 3,7 km/h (1 Bft) W-NW 296 ° 1 min 749 W/m² 11,1 °C 19,6 °C 6,4 km/h (2 Bft)
31.05.2023 10:18 21,1 °C 19,6 °C 54 % 58 % 1025,0 hPa 0,0 l/m² 0,6 km/h (0 Bft) N-NW 331 ° 1 min 749 W/m² 11,1 °C 19,6 °C 3,2 km/h (1 Bft)
31.05.2023 10:19 21,1 °C 19,7 °C 54 % 58 % 1025,0 hPa 0,0 l/m² 6,2 km/h (2 Bft) N 11 ° 1 min 754 W/m² 11,2 °C 19,7 °C 14,5 km/h (3 Bft)
31.05.2023 10:21 21,2 °C 19,7 °C 54 % 55 % 1025,0 hPa 0,0 l/m² 3,9 km/h (1 Bft) W-NW 284 ° 2 min 758 W/m² 10,4 °C 19,7 °C 6,4 km/h (2 Bft)
31.05.2023 10:24 21,2 °C 19,9 °C 54 % 59 % 1025,0 hPa 0,0 l/m² 2,0 km/h (1 Bft) N-NO 20 ° 3 min 765 W/m² 11,6 °C 19,9 °C 6,4 km/h (2 Bft)
31.05.2023 10:25 21,2 °C 20,1 °C 54 % 57 % 1024,9 hPa 0,0 l/m² 2,7 km/h (1 Bft) NO 50 ° 1 min 763 W/m² 11,3 °C 20,1 °C 4,8 km/h (1 Bft)
31.05.2023 10:26 21,2 °C 20,2 °C 54 % 56 % 1024,9 hPa 0,0 l/m² 5,9 km/h (2 Bft) NO 55 ° 1 min 768 W/m² 11,1 °C 20,2 °C 8,0 km/h (2 Bft)
31.05.2023 10:27 21,2 °C 20,3 °C 54 % 58 % 1024,9 hPa 0,0 l/m² 1,9 km/h (1 Bft) NO 45 ° 1 min 770 W/m² 11,8 °C 20,3 °C 4,8 km/h (1 Bft)
31.05.2023 10:28 21,2 °C 20,4 °C 54 % 57 % 1024,9 hPa 0,0 l/m² 2,4 km/h (1 Bft) W-NW 290 ° 1 min 773 W/m² 11,6 °C 20,4 °C 4,8 km/h (1 Bft)
31.05.2023 10:29 21,2 °C 20,4 °C 54 % 55 % 1024,9 hPa 0,0 l/m² 5,0 km/h (1 Bft) N 5 ° 1 min 775 W/m² 11,1 °C 20,4 °C 9,7 km/h (2 Bft)
31.05.2023 10:31 21,2 °C 20,3 °C 54 % 54 % 1024,9 hPa 0,0 l/m² 6,0 km/h (2 Bft) N 355 ° 2 min 780 W/m² 10,7 °C 20,3 °C 12,9 km/h (3 Bft)
31.05.2023 10:34 21,2 °C 20,2 °C 54 % 55 % 1024,8 hPa 0,0 l/m² 4,4 km/h (1 Bft) NW 305 ° 3 min 786 W/m² 10,9 °C 20,2 °C 12,9 km/h (3 Bft)
31.05.2023 10:35 21,2 °C 20,1 °C 54 % 55 % 1024,9 hPa 0,0 l/m² 2,7 km/h (1 Bft) NW 318 ° 1 min 786 W/m² 10,8 °C 20,1 °C 4,8 km/h (1 Bft)
31.05.2023 10:36 21,2 °C 20,1 °C 54 % 58 % 1024,9 hPa 0,0 l/m² 4,4 km/h (1 Bft) N 360 ° 1 min 788 W/m² 11,6 °C 20,1 °C 12,9 km/h (3 Bft)
31.05.2023 10:37 21,2 °C 20,0 °C 54 % 55 % 1024,9 hPa 0,0 l/m² 5,2 km/h (1 Bft) N 360 ° 1 min 788 W/m² 10,7 °C 20,0 °C 8,0 km/h (2 Bft)
31.05.2023 10:38 21,2 °C 19,9 °C 54 % 55 % 1024,9 hPa 0,0 l/m² 3,5 km/h (1 Bft) N-NW 333 ° 1 min 793 W/m² 10,6 °C 19,9 °C 8,0 km/h (2 Bft)
31.05.2023 10:39 21,2 °C 19,9 °C 54 % 54 % 1024,9 hPa 0,0 l/m² 6,6 km/h (2 Bft) N-NW 334 ° 1 min 796 W/m² 10,3 °C 19,8 °C 8,0 km/h (2 Bft)
31.05.2023 10:41 21,2 °C 19,8 °C 54 % 55 % 1024,8 hPa 0,0 l/m² 6,3 km/h (2 Bft) N-NO 13 ° 2 min 798 W/m² 10,5 °C 19,8 °C 9,7 km/h (2 Bft)
31.05.2023 10:44 21,2 °C 20,3 °C 54 % 57 % 1024,9 hPa 0,0 l/m² 4,8 km/h (1 Bft) N-NW 346 ° 3 min 803 W/m² 11,5 °C 20,3 °C 11,3 km/h (2 Bft)
31.05.2023 10:45 21,2 °C 20,4 °C 54 % 57 % 1024,8 hPa 0,0 l/m² 1,2 km/h (1 Bft) N 10 ° 1 min 809 W/m² 11,6 °C 20,4 °C 3,2 km/h (1 Bft)
31.05.2023 10:46 21,2 °C 20,4 °C 54 % 53 % 1024,8 hPa 0,0 l/m² 1,0 km/h (0 Bft) W 261 ° 1 min 807 W/m² 10,5 °C 20,4 °C 3,2 km/h (1 Bft)
31.05.2023 10:47 21,2 °C 20,5 °C 54 % 58 % 1024,9 hPa 0,0 l/m² 3,0 km/h (1 Bft) N-NW 338 ° 1 min 809 W/m² 11,9 °C 20,5 °C 8,0 km/h (2 Bft)
31.05.2023 10:48 21,2 °C 20,7 °C 54 % 55 % 1024,9 hPa 0,0 l/m² 7,3 km/h (2 Bft) N 10 ° 1 min 810 W/m² 11,3 °C 20,4 °C 9,7 km/h (2 Bft)
31.05.2023 10:49 21,2 °C 20,6 °C 54 % 56 % 1024,8 hPa 0,0 l/m² 7,7 km/h (2 Bft) N-NW 333 ° 1 min 812 W/m² 11,5 °C 20,1 °C 12,9 km/h (3 Bft)
31.05.2023 10:51 21,2 °C 20,7 °C 54 % 57 % 1024,7 hPa 0,0 l/m² 5,4 km/h (2 Bft) N-NW 345 ° 2 min 817 W/m² 11,9 °C 20,7 °C 12,9 km/h (3 Bft)
31.05.2023 10:54 21,3 °C 21,1 °C 54 % 56 % 1024,8 hPa 0,0 l/m² 3,7 km/h (1 Bft) N 10 ° 3 min 819 W/m² 12,0 °C 21,1 °C 8,0 km/h (2 Bft)
31.05.2023 10:55 21,3 °C 21,3 °C 54 % 54 % 1024,7 hPa 0,0 l/m² 7,4 km/h (2 Bft) N-NO 19 ° 1 min 823 W/m² 11,6 °C 20,9 °C 14,5 km/h (3 Bft)
31.05.2023 10:56 21,2 °C 21,2 °C 54 % 53 % 1024,8 hPa 0,0 l/m² 6,3 km/h (2 Bft) NO 52 ° 1 min 828 W/m² 11,2 °C 21,2 °C 12,9 km/h (3 Bft)
31.05.2023 10:57 21,3 °C 21,3 °C 54 % 57 % 1024,7 hPa 0,0 l/m² 2,7 km/h (1 Bft) N 351 ° 1 min 828 W/m² 12,4 °C 21,3 °C 6,4 km/h (2 Bft)
31.05.2023 10:58 21,3 °C 21,4 °C 54 % 55 % 1024,7 hPa 0,0 l/m² 5,6 km/h (2 Bft) N-NW 336 ° 1 min 830 W/m² 12,0 °C 21,4 °C 8,0 km/h (2 Bft)
31.05.2023 10:59 21,3 °C 21,4 °C 54 % 52 % 1024,7 hPa 0,0 l/m² 7,4 km/h (2 Bft) N 5 ° 1 min 830 W/m² 11,1 °C 21,0 °C 9,7 km/h (2 Bft)
31.05.2023 11:02 21,3 °C 21,1 °C 54 % 54 % 1024,7 hPa 0,0 l/m² 5,6 km/h (2 Bft) N-NW 341 ° 3 min 833 W/m² 11,4 °C 21,1 °C 12,9 km/h (3 Bft)
31.05.2023 11:03 21,3 °C 21,1 °C 54 % 53 % 1024,6 hPa 0,0 l/m² 9,4 km/h (2 Bft) N 350 ° 1 min 837 W/m² 11,1 °C 20,0 °C 14,5 km/h (3 Bft)
31.05.2023 11:04 21,3 °C 21,1 °C 54 % 54 % 1024,6 hPa 0,0 l/m² 6,7 km/h (2 Bft) NW 324 ° 1 min 838 W/m² 11,4 °C 21,0 °C 11,3 km/h (2 Bft)
31.05.2023 11:05 21,3 °C 21,0 °C 54 % 53 % 1024,6 hPa 0,0 l/m² 1,6 km/h (1 Bft) N-NW 327 ° 1 min 840 W/m² 11,0 °C 21,0 °C 3,2 km/h (1 Bft)
31.05.2023 11:06 21,3 °C 21,1 °C 54 % 57 % 1024,6 hPa 0,0 l/m² 3,2 km/h (1 Bft) W-NW 288 ° 1 min 842 W/m² 12,2 °C 21,1 °C 6,4 km/h (2 Bft)
31.05.2023 11:07 21,3 °C 21,3 °C 54 % 56 % 1024,6 hPa 0,0 l/m² 5,4 km/h (2 Bft) NW 306 ° 1 min 844 W/m² 12,2 °C 21,3 °C 11,3 km/h (2 Bft)
31.05.2023 11:08 21,3 °C 21,5 °C 54 % 55 % 1024,6 hPa 0,0 l/m² 9,1 km/h (2 Bft) N-NW 339 ° 1 min 847 W/m² 12,1 °C 20,6 °C 14,5 km/h (3 Bft)
31.05.2023 11:09 21,3 °C 21,4 °C 54 % 53 % 1024,7 hPa 0,0 l/m² 7,6 km/h (2 Bft) NW 313 ° 1 min 847 W/m² 11,4 °C 21,0 °C 14,5 km/h (3 Bft)
31.05.2023 11:10 21,3 °C 21,4 °C 54 % 53 % 1024,6 hPa 0,0 l/m² 7,4 km/h (2 Bft) N 350 ° 1 min 847 W/m² 11,4 °C 21,0 °C 12,9 km/h (3 Bft)
31.05.2023 11:11 21,3 °C 21,4 °C 54 % 53 % 1024,7 hPa 0,0 l/m² 3,0 km/h (1 Bft) NO 36 ° 1 min 849 W/m² 11,4 °C 21,4 °C 8,0 km/h (2 Bft)
31.05.2023 11:13 21,3 °C 21,6 °C 54 % 54 % 1024,6 hPa 0,0 l/m² 3,9 km/h (1 Bft) NO 53 ° 2 min 856 W/m² 11,9 °C 21,6 °C 8,0 km/h (2 Bft)
31.05.2023 11:14 21,3 °C 21,7 °C 54 % 54 % 1024,6 hPa 0,0 l/m² 3,1 km/h (1 Bft) O 85 ° 1 min 856 W/m² 12,0 °C 21,7 °C 4,8 km/h (1 Bft)
31.05.2023 11:15 21,3 °C 21,9 °C 54 % 55 % 1024,6 hPa 0,0 l/m² 4,3 km/h (1 Bft) W 259 ° 1 min 856 W/m² 12,4 °C 21,9 °C 12,9 km/h (3 Bft)
31.05.2023 11:16 21,3 °C 21,9 °C 54 % 50 % 1024,6 hPa 0,0 l/m² 8,6 km/h (2 Bft) N-NO 13 ° 1 min 858 W/m² 11,0 °C 21,2 °C 14,5 km/h (3 Bft)
31.05.2023 11:17 21,3 °C 21,7 °C 54 % 50 % 1024,6 hPa 0,0 l/m² 6,6 km/h (2 Bft) N 355 ° 1 min 861 W/m² 10,8 °C 21,6 °C 12,9 km/h (3 Bft)
31.05.2023 11:18 21,3 °C 21,8 °C 54 % 53 % 1024,6 hPa 0,0 l/m² 5,2 km/h (1 Bft) N-NO 15 ° 1 min 865 W/m² 11,8 °C 21,8 °C 12,9 km/h (3 Bft)
31.05.2023 11:19 21,3 °C 21,9 °C 54 % 52 % 1024,6 hPa 0,0 l/m² 9,2 km/h (2 Bft) NO 40 ° 1 min 865 W/m² 11,6 °C 21,0 °C 16,1 km/h (3 Bft)
31.05.2023 11:20 21,4 °C 22,0 °C 54 % 52 % 1024,6 hPa 0,0 l/m² 3,3 km/h (1 Bft) N 360 ° 1 min 867 W/m² 11,7 °C 22,0 °C 6,4 km/h (2 Bft)
31.05.2023 11:21 21,3 °C 21,8 °C 54 % 51 % 1024,6 hPa 0,0 l/m² 3,0 km/h (1 Bft) N-NW 333 ° 1 min 870 W/m² 11,2 °C 21,8 °C 6,4 km/h (2 Bft)
31.05.2023 11:23 21,4 °C 21,8 °C 54 % 51 % 1024,6 hPa 0,0 l/m² 5,7 km/h (2 Bft) NO 36 ° 2 min 874 W/m² 11,2 °C 21,8 °C 14,5 km/h (3 Bft)
31.05.2023 11:24 21,4 °C 21,8 °C 54 % 52 % 1024,5 hPa 0,0 l/m² 4,0 km/h (1 Bft) N-NW 331 ° 1 min 870 W/m² 11,5 °C 21,8 °C 8,0 km/h (2 Bft)
31.05.2023 11:25 21,4 °C 21,7 °C 54 % 49 % 1024,6 hPa 0,0 l/m² 4,2 km/h (1 Bft) W-NW 300 ° 1 min 868 W/m² 10,5 °C 21,7 °C 8,0 km/h (2 Bft)
31.05.2023 11:26 21,4 °C 21,7 °C 54 % 52 % 1024,6 hPa 0,0 l/m² 5,4 km/h (2 Bft) NW 306 ° 1 min 872 W/m² 11,4 °C 21,7 °C 8,0 km/h (2 Bft)
31.05.2023 11:27 21,4 °C 21,7 °C 54 % 53 % 1024,5 hPa 0,0 l/m² 4,2 km/h (1 Bft) NW 321 ° 1 min 877 W/m² 11,7 °C 21,7 °C 6,4 km/h (2 Bft)
31.05.2023 11:28 21,4 °C 21,9 °C 54 % 52 % 1024,5 hPa 0,0 l/m² 6,8 km/h (2 Bft) NO 55 ° 1 min 875 W/m² 11,6 °C 21,8 °C 12,9 km/h (3 Bft)
31.05.2023 11:29 21,4 °C 21,9 °C 54 % 51 % 1024,6 hPa 0,0 l/m² 5,0 km/h (1 Bft) NO 40 ° 1 min 877 W/m² 11,3 °C 21,9 °C 8,0 km/h (2 Bft)
31.05.2023 11:31 21,4 °C 22,3 °C 54 % 51 % 1024,6 hPa 0,0 l/m² 5,6 km/h (2 Bft) NO 46 ° 2 min 882 W/m² 11,7 °C 22,3 °C 9,7 km/h (2 Bft)
31.05.2023 11:34 21,4 °C 22,4 °C 54 % 49 % 1024,5 hPa 0,0 l/m² 6,2 km/h (2 Bft) NO 34 ° 3 min 884 W/m² 11,2 °C 22,4 °C 12,9 km/h (3 Bft)
31.05.2023 11:35 21,4 °C 22,4 °C 53 % 51 % 1024,6 hPa 0,0 l/m² 7,2 km/h (2 Bft) W-NW 299 ° 1 min 882 W/m² 11,8 °C 22,1 °C 9,7 km/h (2 Bft)
31.05.2023 11:36 21,4 °C 22,3 °C 53 % 51 % 1024,5 hPa 0,0 l/m² 4,2 km/h (1 Bft) NW 310 ° 1 min 886 W/m² 11,7 °C 22,3 °C 6,4 km/h (2 Bft)
31.05.2023 11:37 21,4 °C 22,0 °C 53 % 48 % 1024,5 hPa 0,0 l/m² 3,2 km/h (1 Bft) NW 317 ° 1 min 886 W/m² 10,5 °C 22,0 °C 4,8 km/h (1 Bft)
31.05.2023 11:38 21,4 °C 21,9 °C 53 % 50 % 1024,4 hPa 0,0 l/m² 3,4 km/h (1 Bft) N 355 ° 1 min 891 W/m² 11,0 °C 21,9 °C 4,8 km/h (1 Bft)
31.05.2023 11:39 21,4 °C 22,1 °C 53 % 50 % 1024,4 hPa 0,0 l/m² 10,1 km/h (2 Bft) O-NO 61 ° 1 min 893 W/m² 11,2 °C 20,9 °C 17,7 km/h (3 Bft)
31.05.2023 11:40 21,4 °C 22,2 °C 53 % 49 % 1024,3 hPa 0,0 l/m² 10,8 km/h (2 Bft) NO 53 ° 1 min 893 W/m² 11,0 °C 20,9 °C 17,7 km/h (3 Bft)
31.05.2023 11:41 21,4 °C 22,4 °C 53 % 48 % 1024,3 hPa 0,0 l/m² 5,4 km/h (2 Bft) O 90 ° 1 min 896 W/m² 10,8 °C 22,4 °C 11,3 km/h (2 Bft)
31.05.2023 11:42 21,4 °C 22,4 °C 53 % 50 % 1024,3 hPa 0,0 l/m² 7,0 km/h (2 Bft) O 98 ° 1 min 893 W/m² 11,5 °C 22,2 °C 11,3 km/h (2 Bft)
31.05.2023 11:43 21,4 °C 22,3 °C 53 % 49 % 1024,3 hPa 0,0 l/m² 7,1 km/h (2 Bft) O 87 ° 1 min 900 W/m² 11,1 °C 22,1 °C 11,3 km/h (2 Bft)
31.05.2023 11:44 21,4 °C 22,3 °C 53 % 52 % 1024,2 hPa 0,0 l/m² 5,4 km/h (2 Bft) O 80 ° 1 min 900 W/m² 12,0 °C 22,3 °C 11,3 km/h (2 Bft)
31.05.2023 11:45 21,4 °C 22,3 °C 53 % 51 % 1024,3 hPa 0,0 l/m² 4,3 km/h (1 Bft) O 79 ° 1 min 904 W/m² 11,7 °C 22,3 °C 8,0 km/h (2 Bft)
31.05.2023 11:46 21,4 °C 22,2 °C 53 % 49 % 1024,3 hPa 0,0 l/m² 3,9 km/h (1 Bft) NO 43 ° 1 min 905 W/m² 11,0 °C 22,2 °C 6,4 km/h (2 Bft)
31.05.2023 11:47 21,4 °C 22,2 °C 53 % 50 % 1024,2 hPa 0,0 l/m² 1,2 km/h (1 Bft) NO 41 ° 1 min 895 W/m² 11,3 °C 22,2 °C 4,8 km/h (1 Bft)
31.05.2023 11:48 21,4 °C 22,4 °C 53 % 51 % 1024,2 hPa 0,0 l/m² 4,0 km/h (1 Bft) N 360 ° 1 min 900 W/m² 11,8 °C 22,4 °C 6,4 km/h (2 Bft)
31.05.2023 11:49 21,4 °C 22,4 °C 53 % 47 % 1024,2 hPa 0,0 l/m² 4,4 km/h (1 Bft) N-NO 23 ° 1 min 904 W/m² 10,5 °C 22,4 °C 9,7 km/h (2 Bft)
31.05.2023 11:50 21,4 °C 22,6 °C 53 % 52 % 1024,1 hPa 0,0 l/m² 6,8 km/h (2 Bft) N 355 ° 1 min 898 W/m² 12,2 °C 22,5 °C 12,9 km/h (3 Bft)
31.05.2023 11:51 21,5 °C 22,6 °C 53 % 48 % 1024,2 hPa 0,0 l/m² 4,9 km/h (1 Bft) N-NO 13 ° 1 min 909 W/m² 11,0 °C 22,6 °C 8,0 km/h (2 Bft)
31.05.2023 11:52 21,5 °C 22,5 °C 53 % 50 % 1024,2 hPa 0,0 l/m² 5,4 km/h (2 Bft) NO 49 ° 1 min 905 W/m² 11,5 °C 22,5 °C 9,7 km/h (2 Bft)
31.05.2023 11:53 21,5 °C 22,5 °C 53 % 48 % 1024,2 hPa 0,0 l/m² 7,8 km/h (2 Bft) N-NO 26 ° 1 min 884 W/m² 10,9 °C 22,0 °C 12,9 km/h (3 Bft)
31.05.2023 11:54 21,5 °C 22,6 °C 53 % 47 % 1024,2 hPa 0,0 l/m² 11,5 km/h (2 Bft) O 84 ° 1 min 923 W/m² 10,7 °C 21,1 °C 16,1 km/h (3 Bft)
31.05.2023 11:55 21,5 °C 22,7 °C 53 % 52 % 1024,2 hPa 0,0 l/m² 8,8 km/h (2 Bft) N 355 ° 1 min 893 W/m² 12,3 °C 21,9 °C 12,9 km/h (3 Bft)
31.05.2023 11:56 21,5 °C 22,7 °C 53 % 49 % 1024,1 hPa 0,0 l/m² 7,8 km/h (2 Bft) NW 319 ° 1 min 919 W/m² 11,4 °C 22,2 °C 12,9 km/h (3 Bft)
31.05.2023 11:57 21,5 °C 22,6 °C 53 % 47 % 1024,1 hPa 0,0 l/m² 6,8 km/h (2 Bft) NO 47 ° 1 min 916 W/m² 10,7 °C 22,5 °C 14,5 km/h (3 Bft)
31.05.2023 11:58 21,5 °C 22,7 °C 53 % 49 % 1024,1 hPa 0,0 l/m² 7,0 km/h (2 Bft) O-NO 67 ° 1 min 860 W/m² 11,4 °C 22,5 °C 11,3 km/h (2 Bft)
31.05.2023 11:59 21,5 °C 22,8 °C 53 % 48 % 1024,1 hPa 0,0 l/m² 5,6 km/h (2 Bft) NO 44 ° 1 min 868 W/m² 11,2 °C 22,8 °C 8,0 km/h (2 Bft)
31.05.2023 12:00 21,5 °C 22,8 °C 53 % 47 % 1024,1 hPa 0,0 l/m² 3,8 km/h (1 Bft) N-NO 19 ° 1 min 914 W/m² 10,9 °C 22,8 °C 8,0 km/h (2 Bft)
31.05.2023 12:01 21,5 °C 22,9 °C 53 % 47 % 1024,1 hPa 0,0 l/m² 3,4 km/h (1 Bft) N 355 ° 1 min 914 W/m² 11,0 °C 22,9 °C 6,4 km/h (2 Bft)
31.05.2023 12:02 21,5 °C 22,9 °C 53 % 49 % 1024,1 hPa 0,0 l/m² 3,9 km/h (1 Bft) N-NO 19 ° 1 min 914 W/m² 11,6 °C 22,9 °C 4,8 km/h (1 Bft)
31.05.2023 12:03 21,5 °C 22,9 °C 53 % 50 % 1024,1 hPa 0,0 l/m² 2,4 km/h (1 Bft) N-NO 30 ° 1 min 860 W/m² 11,9 °C 22,9 °C 4,8 km/h (1 Bft)
31.05.2023 12:04 21,6 °C 23,2 °C 53 % 51 % 1024,1 hPa 0,0 l/m² 3,2 km/h (1 Bft) NO 46 ° 1 min 877 W/m² 12,5 °C 23,2 °C 9,7 km/h (2 Bft)
31.05.2023 12:05 21,6 °C 23,2 °C 53 % 47 % 1024,1 hPa 0,0 l/m² 11,2 km/h (2 Bft) O-NO 69 ° 1 min 849 W/m² 11,3 °C 21,9 °C 14,5 km/h (3 Bft)
31.05.2023 12:06 21,5 °C 23,1 °C 53 % 47 % 1024,1 hPa 0,0 l/m² 5,1 km/h (1 Bft) NO 46 ° 1 min 823 W/m² 11,2 °C 23,1 °C 9,7 km/h (2 Bft)
31.05.2023 12:07 21,6 °C 23,1 °C 53 % 47 % 1024,1 hPa 0,0 l/m² 3,2 km/h (1 Bft) NO 36 ° 1 min 844 W/m² 11,2 °C 23,1 °C 8,0 km/h (2 Bft)
31.05.2023 12:08 21,6 °C 22,9 °C 53 % 46 % 1024,1 hPa 0,0 l/m² 4,2 km/h (1 Bft) NO 36 ° 1 min 895 W/m² 10,7 °C 22,9 °C 8,0 km/h (2 Bft)
31.05.2023 12:09 21,6 °C 22,8 °C 53 % 47 % 1024,0 hPa 0,0 l/m² 4,7 km/h (1 Bft) N 5 ° 1 min 893 W/m² 10,9 °C 22,8 °C 6,4 km/h (2 Bft)
31.05.2023 12:10 21,6 °C 22,8 °C 53 % 47 % 1024,1 hPa 0,0 l/m² 7,1 km/h (2 Bft) W-NW 290 ° 1 min 896 W/m² 10,9 °C 22,6 °C 12,9 km/h (3 Bft)
31.05.2023 12:11 21,6 °C 22,8 °C 53 % 48 % 1024,0 hPa 0,0 l/m² 5,8 km/h (2 Bft) NW 306 ° 1 min 933 W/m² 11,2 °C 22,8 °C 9,7 km/h (2 Bft)
31.05.2023 12:13 21,6 °C 22,7 °C 53 % 47 % 1024,0 hPa 0,0 l/m² 7,3 km/h (2 Bft) N 5 ° 2 min 835 W/m² 10,8 °C 22,4 °C 12,9 km/h (3 Bft)
31.05.2023 12:14 21,6 °C 22,7 °C 53 % 48 % 1024,0 hPa 0,0 l/m² 5,1 km/h (1 Bft) N-NO 17 ° 1 min 840 W/m² 11,1 °C 22,7 °C 8,0 km/h (2 Bft)
31.05.2023 12:15 21,6 °C 22,8 °C 53 % 47 % 1024,0 hPa 0,0 l/m² 2,7 km/h (1 Bft) N-NW 340 ° 1 min 814 W/m² 10,9 °C 22,8 °C 4,8 km/h (1 Bft)
31.05.2023 12:17 21,6 °C 22,4 °C 53 % 47 % 1024,0 hPa 0,0 l/m² 4,7 km/h (1 Bft) O-NO 58 ° 2 min 909 W/m² 10,5 °C 22,4 °C 8,0 km/h (2 Bft)
31.05.2023 12:18 21,6 °C 22,6 °C 53 % 49 % 1024,0 hPa 0,0 l/m² 5,1 km/h (1 Bft) O-NO 69 ° 1 min 932 W/m² 11,3 °C 22,6 °C 8,0 km/h (2 Bft)
31.05.2023 12:19 21,6 °C 22,7 °C 53 % 49 % 1024,0 hPa 0,0 l/m² 3,8 km/h (1 Bft) NO 43 ° 1 min 951 W/m² 11,4 °C 22,7 °C 9,7 km/h (2 Bft)
31.05.2023 12:21 21,6 °C 22,9 °C 53 % 48 % 1024,0 hPa 0,0 l/m² 7,7 km/h (2 Bft) N-NO 26 ° 2 min 925 W/m² 11,3 °C 22,5 °C 14,5 km/h (3 Bft)
31.05.2023 12:22 21,6 °C 22,8 °C 53 % 45 % 1024,0 hPa 0,0 l/m² 5,3 km/h (1 Bft) NW 318 ° 1 min 935 W/m² 10,2 °C 22,8 °C 6,4 km/h (2 Bft)
31.05.2023 12:23 21,6 °C 22,7 °C 53 % 46 % 1023,9 hPa 0,0 l/m² 4,4 km/h (1 Bft) N 350 ° 1 min 918 W/m² 10,5 °C 22,7 °C 8,0 km/h (2 Bft)
31.05.2023 12:24 21,6 °C 22,6 °C 53 % 46 % 1023,9 hPa 0,0 l/m² 6,2 km/h (2 Bft) W-NW 300 ° 1 min 896 W/m² 10,4 °C 22,6 °C 12,9 km/h (3 Bft)
31.05.2023 12:25 21,6 °C 22,6 °C 53 % 49 % 1023,9 hPa 0,0 l/m² 6,1 km/h (2 Bft) N-NW 336 ° 1 min 932 W/m² 11,3 °C 22,6 °C 8,0 km/h (2 Bft)
31.05.2023 12:26 21,6 °C 22,7 °C 53 % 46 % 1023,9 hPa 0,0 l/m² 2,7 km/h (1 Bft) W-NW 290 ° 1 min 886 W/m² 10,5 °C 22,7 °C 4,8 km/h (1 Bft)
31.05.2023 12:27 21,6 °C 22,5 °C 53 % 46 % 1023,9 hPa 0,0 l/m² 8,5 km/h (2 Bft) W-NW 296 ° 1 min 902 W/m² 10,3 °C 21,8 °C 11,3 km/h (2 Bft)
31.05.2023 12:28 21,6 °C 22,4 °C 53 % 48 % 1023,8 hPa 0,0 l/m² 3,2 km/h (1 Bft) SW 229 ° 1 min 909 W/m² 10,8 °C 22,4 °C 4,8 km/h (1 Bft)
31.05.2023 12:29 21,6 °C 22,5 °C 53 % 50 % 1023,9 hPa 0,0 l/m² 5,1 km/h (1 Bft) W 274 ° 1 min 921 W/m² 11,5 °C 22,5 °C 11,3 km/h (2 Bft)
31.05.2023 12:31 21,6 °C 22,6 °C 53 % 49 % 1023,8 hPa 0,0 l/m² 3,8 km/h (1 Bft) W-NW 285 ° 2 min 926 W/m² 11,3 °C 22,6 °C 9,7 km/h (2 Bft)
31.05.2023 12:33 21,7 °C 22,9 °C 53 % 48 % 1023,8 hPa 0,0 l/m² 8,0 km/h (2 Bft) N-NO 22 ° 2 min 933 W/m² 11,3 °C 22,4 °C 16,1 km/h (3 Bft)
31.05.2023 12:34 21,7 °C 23,0 °C 53 % 46 % 1023,9 hPa 0,0 l/m² 6,2 km/h (2 Bft) N-NW 343 ° 1 min 905 W/m² 10,7 °C 23,0 °C 9,7 km/h (2 Bft)
31.05.2023 12:35 21,7 °C 23,2 °C 53 % 48 % 1023,9 hPa 0,0 l/m² 2,7 km/h (1 Bft) N-NW 339 ° 1 min 867 W/m² 11,6 °C 23,2 °C 6,4 km/h (2 Bft)
31.05.2023 12:36 21,7 °C 23,3 °C 53 % 49 % 1023,9 hPa 0,0 l/m² 5,3 km/h (1 Bft) O 84 ° 1 min 849 W/m² 12,0 °C 23,3 °C 9,7 km/h (2 Bft)
31.05.2023 12:37 21,7 °C 23,3 °C 53 % 46 % 1023,9 hPa 0,0 l/m² 6,0 km/h (2 Bft) O 82 ° 1 min 888 W/m² 11,0 °C 23,3 °C 11,3 km/h (2 Bft)
31.05.2023 12:38 21,7 °C 23,3 °C 53 % 46 % 1023,8 hPa 0,0 l/m² 7,2 km/h (2 Bft) O 89 ° 1 min 907 W/m² 11,0 °C 23,1 °C 11,3 km/h (2 Bft)
31.05.2023 12:39 21,7 °C 23,2 °C 53 % 47 % 1023,8 hPa 0,0 l/m² 7,7 km/h (2 Bft) O 90 ° 1 min 923 W/m² 11,3 °C 22,8 °C 14,5 km/h (3 Bft)
31.05.2023 12:41 21,7 °C 23,4 °C 53 % 47 % 1023,9 hPa 0,0 l/m² 7,1 km/h (2 Bft) O-NO 74 ° 2 min 940 W/m² 11,4 °C 23,2 °C 16,1 km/h (3 Bft)
31.05.2023 12:43 21,7 °C 23,4 °C 53 % 45 % 1023,7 hPa 0,0 l/m² 9,1 km/h (2 Bft) O-SO 117 ° 2 min 951 W/m² 10,8 °C 22,6 °C 16,1 km/h (3 Bft)
31.05.2023 12:44 21,7 °C 23,4 °C 53 % 45 % 1023,8 hPa 0,0 l/m² 5,1 km/h (1 Bft) N-NO 24 ° 1 min 942 W/m² 10,8 °C 23,4 °C 9,7 km/h (2 Bft)
31.05.2023 12:46 21,7 °C 23,1 °C 53 % 46 % 1023,8 hPa 0,0 l/m² 3,2 km/h (1 Bft) NW 308 ° 2 min 951 W/m² 10,8 °C 23,1 °C 9,7 km/h (2 Bft)
31.05.2023 12:47 21,7 °C 22,9 °C 53 % 44 % 1023,8 hPa 0,0 l/m² 1,4 km/h (1 Bft) NW 305 ° 1 min 954 W/m² 10,0 °C 22,9 °C 4,8 km/h (1 Bft)
31.05.2023 12:48 21,7 °C 22,9 °C 53 % 46 % 1023,8 hPa 0,0 l/m² 11,0 km/h (2 Bft) N-NW 331 ° 1 min 954 W/m² 10,7 °C 21,6 °C 14,5 km/h (3 Bft)
31.05.2023 12:49 21,7 °C 22,8 °C 53 % 45 % 1023,8 hPa 0,0 l/m² 9,1 km/h (2 Bft) N-NW 348 ° 1 min 956 W/m² 10,2 °C 22,0 °C 12,9 km/h (3 Bft)
31.05.2023 12:50 21,7 °C 22,9 °C 53 % 46 % 1023,8 hPa 0,0 l/m² 9,9 km/h (2 Bft) N-NW 327 ° 1 min 960 W/m² 10,7 °C 21,9 °C 14,5 km/h (3 Bft)
31.05.2023 12:52 21,7 °C 22,9 °C 53 % 44 % 1023,8 hPa 0,0 l/m² 5,1 km/h (1 Bft) N-NW 329 ° 2 min 963 W/m² 10,0 °C 22,9 °C 9,7 km/h (2 Bft)
31.05.2023 12:53 21,7 °C 23,0 °C 53 % 47 % 1023,7 hPa 0,0 l/m² 3,4 km/h (1 Bft) N-NW 327 ° 1 min 967 W/m² 11,1 °C 23,0 °C 8,0 km/h (2 Bft)
31.05.2023 12:54 21,7 °C 23,1 °C 53 % 45 % 1023,7 hPa 0,0 l/m² 3,9 km/h (1 Bft) N-NW 327 ° 1 min 967 W/m² 10,5 °C 23,1 °C 6,4 km/h (2 Bft)
31.05.2023 12:55 21,7 °C 23,1 °C 53 % 47 % 1023,7 hPa 0,0 l/m² 1,1 km/h (1 Bft) NW 313 ° 1 min 967 W/m² 11,2 °C 23,1 °C 3,2 km/h (1 Bft)
31.05.2023 12:56 21,7 °C 22,9 °C 53 % 44 % 1023,6 hPa 0,0 l/m² 2,2 km/h (1 Bft) W 281 ° 1 min 965 W/m² 10,0 °C 22,9 °C 4,8 km/h (1 Bft)
31.05.2023 12:57 21,7 °C 22,7 °C 53 % 46 % 1023,6 hPa 0,0 l/m² 3,3 km/h (1 Bft) W 259 ° 1 min 969 W/m² 10,5 °C 22,7 °C 4,8 km/h (1 Bft)
31.05.2023 12:58 21,7 °C 22,7 °C 53 % 44 % 1023,7 hPa 0,0 l/m² 2,6 km/h (1 Bft) W 259 ° 1 min 969 W/m² 9,8 °C 22,7 °C 3,2 km/h (1 Bft)
31.05.2023 12:59 21,7 °C 22,6 °C 53 % 45 % 1023,6 hPa 0,0 l/m² 0,3 km/h (0 Bft) W 259 ° 1 min 970 W/m² 10,1 °C 22,6 °C 1,6 km/h (1 Bft)
31.05.2023 13:00 21,7 °C 22,7 °C 53 % 48 % 1023,6 hPa 0,0 l/m² 4,7 km/h (1 Bft) N 355 ° 1 min 969 W/m² 11,1 °C 22,7 °C 8,0 km/h (2 Bft)
31.05.2023 13:02 21,7 °C 22,9 °C 53 % 46 % 1023,6 hPa 0,0 l/m² 8,0 km/h (2 Bft) N-NW 333 ° 2 min 976 W/m² 10,7 °C 22,4 °C 12,9 km/h (3 Bft)
31.05.2023 13:03 21,8 °C 23,0 °C 53 % 45 % 1023,6 hPa 0,0 l/m² 4,6 km/h (1 Bft) NW 310 ° 1 min 979 W/m² 10,4 °C 23,0 °C 9,7 km/h (2 Bft)
31.05.2023 13:04 21,7 °C 23,2 °C 53 % 46 % 1023,6 hPa 0,0 l/m² 5,8 km/h (2 Bft) NW 326 ° 1 min 986 W/m² 10,9 °C 23,2 °C 9,7 km/h (2 Bft)
31.05.2023 13:05 21,8 °C 23,2 °C 53 % 44 % 1023,7 hPa 0,0 l/m² 6,4 km/h (2 Bft) N-NW 339 ° 1 min 990 W/m² 10,3 °C 23,2 °C 8,0 km/h (2 Bft)
31.05.2023 13:06 21,8 °C 23,1 °C 53 % 42 % 1023,6 hPa 0,0 l/m² 5,8 km/h (2 Bft) N-NW 342 ° 1 min 1000 W/m² 9,5 °C 23,1 °C 8,0 km/h (2 Bft)
31.05.2023 13:07 21,8 °C 23,1 °C 53 % 45 % 1023,6 hPa 0,0 l/m² 4,5 km/h (1 Bft) W 264 ° 1 min 1007 W/m² 10,5 °C 23,1 °C 6,4 km/h (2 Bft)
31.05.2023 13:08 21,8 °C 23,3 °C 53 % 45 % 1023,6 hPa 0,0 l/m² 5,2 km/h (1 Bft) W-SW 248 ° 1 min 972 W/m² 10,7 °C 23,3 °C 6,4 km/h (2 Bft)
31.05.2023 13:09 21,8 °C 23,2 °C 53 % 44 % 1023,5 hPa 0,0 l/m² 4,7 km/h (1 Bft) W-SW 246 ° 1 min 956 W/m² 10,3 °C 23,2 °C 11,3 km/h (2 Bft)
31.05.2023 13:11 21,8 °C 23,2 °C 53 % 43 % 1023,5 hPa 0,0 l/m² 9,0 km/h (2 Bft) W-SW 248 ° 2 min 814 W/m² 9,9 °C 22,4 °C 16,1 km/h (3 Bft)
31.05.2023 13:13 21,8 °C 23,0 °C 53 % 44 % 1023,5 hPa 0,0 l/m² 7,1 km/h (2 Bft) W 279 ° 2 min 663 W/m² 10,1 °C 22,8 °C 14,5 km/h (3 Bft)
31.05.2023 13:14 21,8 °C 23,0 °C 53 % 46 % 1023,6 hPa 0,0 l/m² 4,2 km/h (1 Bft) N-NW 331 ° 1 min 642 W/m² 10,7 °C 23,0 °C 6,4 km/h (2 Bft)
31.05.2023 13:15 21,8 °C 23,2 °C 53 % 46 % 1023,5 hPa 0,0 l/m² 5,7 km/h (2 Bft) N-NW 342 ° 1 min 645 W/m² 10,9 °C 23,2 °C 8,0 km/h (2 Bft)
31.05.2023 13:16 21,8 °C 23,3 °C 53 % 47 % 1023,5 hPa 0,0 l/m² 6,9 km/h (2 Bft) W-SW 251 ° 1 min 657 W/m² 11,3 °C 23,1 °C 14,5 km/h (3 Bft)
31.05.2023 13:17 21,8 °C 23,2 °C 53 % 45 % 1023,5 hPa 0,0 l/m² 7,9 km/h (2 Bft) W-SW 252 ° 1 min 666 W/m² 10,6 °C 22,7 °C 14,5 km/h (3 Bft)
31.05.2023 13:18 21,8 °C 23,1 °C 53 % 45 % 1023,4 hPa 0,0 l/m² 5,0 km/h (1 Bft) W 273 ° 1 min 592 W/m² 10,5 °C 23,1 °C 9,7 km/h (2 Bft)
31.05.2023 13:19 21,8 °C 23,1 °C 53 % 46 % 1023,4 hPa 0,0 l/m² 8,0 km/h (2 Bft) W-NW 284 ° 1 min 640 W/m² 10,8 °C 22,6 °C 19,3 km/h (3 Bft)
31.05.2023 13:20 21,8 °C 23,2 °C 53 % 46 % 1023,4 hPa 0,0 l/m² 12,9 km/h (3 Bft) N-NW 341 ° 1 min 740 W/m² 10,9 °C 21,5 °C 17,7 km/h (3 Bft)
31.05.2023 13:22 21,8 °C 23,2 °C 53 % 45 % 1023,4 hPa 0,0 l/m² 9,2 km/h (2 Bft) N-NW 341 ° 2 min 538 W/m² 10,6 °C 22,4 °C 16,1 km/h (3 Bft)
31.05.2023 13:23 21,8 °C 23,1 °C 53 % 44 % 1023,4 hPa 0,0 l/m² 9,5 km/h (2 Bft) W-NW 293 ° 1 min 638 W/m² 10,2 °C 22,2 °C 16,1 km/h (3 Bft)
31.05.2023 13:24 21,8 °C 23,1 °C 53 % 44 % 1023,4 hPa 0,0 l/m² 9,2 km/h (2 Bft) NW 317 ° 1 min 638 W/m² 10,2 °C 22,3 °C 12,9 km/h (3 Bft)
31.05.2023 13:25 21,8 °C 22,9 °C 53 % 46 % 1023,5 hPa 0,0 l/m² 6,8 km/h (2 Bft) N-NW 329 ° 1 min 547 W/m² 10,7 °C 22,8 °C 12,9 km/h (3 Bft)
31.05.2023 13:26 21,8 °C 22,9 °C 53 % 45 % 1023,5 hPa 0,0 l/m² 11,0 km/h (2 Bft) N-NW 337 ° 1 min 520 W/m² 10,3 °C 21,6 °C 16,1 km/h (3 Bft)
31.05.2023 13:27 21,8 °C 22,8 °C 53 % 44 % 1023,4 hPa 0,0 l/m² 9,3 km/h (2 Bft) NW 311 ° 1 min 608 W/m² 9,9 °C 21,9 °C 14,5 km/h (3 Bft)
31.05.2023 13:28 21,8 °C 22,7 °C 53 % 44 % 1023,5 hPa 0,0 l/m² 8,4 km/h (2 Bft) NW 304 ° 1 min 563 W/m² 9,8 °C 22,1 °C 12,9 km/h (3 Bft)
31.05.2023 13:29 21,8 °C 22,6 °C 53 % 45 % 1023,4 hPa 0,0 l/m² 4,7 km/h (1 Bft) N-NW 331 ° 1 min 740 W/m² 10,1 °C 22,6 °C 8,0 km/h (2 Bft)
31.05.2023 13:30 21,8 °C 22,8 °C 53 % 46 % 1023,4 hPa 0,0 l/m² 2,1 km/h (1 Bft) N-NW 333 ° 1 min 782 W/m² 10,6 °C 22,8 °C 4,8 km/h (1 Bft)
31.05.2023 13:32 21,8 °C 23,1 °C 53 % 45 % 1023,5 hPa 0,0 l/m² 5,7 km/h (2 Bft) N 360 ° 2 min 719 W/m² 10,5 °C 23,1 °C 11,3 km/h (2 Bft)
31.05.2023 13:33 21,8 °C 23,1 °C 53 % 46 % 1023,4 hPa 0,0 l/m² 3,5 km/h (1 Bft) N-NW 336 ° 1 min 740 W/m² 10,8 °C 23,1 °C 6,4 km/h (2 Bft)
31.05.2023 13:34 21,8 °C 22,9 °C 53 % 43 % 1023,4 hPa 0,0 l/m² 4,8 km/h (1 Bft) O 85 ° 1 min 740 W/m² 9,6 °C 22,9 °C 9,7 km/h (2 Bft)
31.05.2023 13:35 21,8 °C 23,1 °C 53 % 46 % 1023,5 hPa 0,0 l/m² 3,2 km/h (1 Bft) N-NO 24 ° 1 min 979 W/m² 10,8 °C 23,1 °C 4,8 km/h (1 Bft)
31.05.2023 13:36 21,8 °C 23,2 °C 53 % 46 % 1023,5 hPa 0,0 l/m² 5,6 km/h (2 Bft) NO 37 ° 1 min 970 W/m² 10,9 °C 23,2 °C 6,4 km/h (2 Bft)
31.05.2023 13:37 21,8 °C 23,3 °C 53 % 44 % 1023,4 hPa 0,0 l/m² 6,8 km/h (2 Bft) N-NW 338 ° 1 min 954 W/m² 10,4 °C 23,2 °C 12,9 km/h (3 Bft)
31.05.2023 13:38 21,8 °C 23,2 °C 53 % 44 % 1023,4 hPa 0,0 l/m² 4,3 km/h (1 Bft) NO 45 ° 1 min 947 W/m² 10,3 °C 23,2 °C 8,0 km/h (2 Bft)
31.05.2023 13:39 21,8 °C 23,3 °C 53 % 46 % 1023,4 hPa 0,0 l/m² 3,5 km/h (1 Bft) O-NO 67 ° 1 min 916 W/m² 11,0 °C 23,3 °C 4,8 km/h (1 Bft)
31.05.2023 13:41 21,8 °C 23,4 °C 53 % 48 % 1023,3 hPa 0,0 l/m² 2,6 km/h (1 Bft) N-NO 24 ° 2 min 564 W/m² 11,8 °C 23,4 °C 3,2 km/h (1 Bft)
31.05.2023 13:43 21,8 °C 23,7 °C 53 % 44 % 1023,4 hPa 0,0 l/m² 6,4 km/h (2 Bft) O-NO 70 ° 2 min 751 W/m² 10,7 °C 23,7 °C 19,3 km/h (3 Bft)
31.05.2023 13:44 21,8 °C 23,8 °C 53 % 48 % 1023,4 hPa 0,0 l/m² 8,9 km/h (2 Bft) NO 52 ° 1 min 946 W/m² 12,1 °C 23,1 °C 14,5 km/h (3 Bft)
31.05.2023 13:45 21,8 °C 23,8 °C 53 % 42 % 1023,4 hPa 0,0 l/m² 9,8 km/h (2 Bft) O-NO 76 ° 1 min 932 W/m² 10,1 °C 22,9 °C 12,9 km/h (3 Bft)
31.05.2023 13:46 21,8 °C 23,7 °C 53 % 42 % 1023,3 hPa 0,0 l/m² 5,6 km/h (2 Bft) O-NO 62 ° 1 min 951 W/m² 10,0 °C 23,7 °C 8,0 km/h (2 Bft)
31.05.2023 13:47 21,8 °C 23,7 °C 53 % 46 % 1023,3 hPa 0,0 l/m² 5,4 km/h (2 Bft) N 351 ° 1 min 954 W/m² 11,4 °C 23,7 °C 8,0 km/h (2 Bft)
31.05.2023 13:48 21,8 °C 23,8 °C 53 % 44 % 1023,4 hPa 0,0 l/m² 3,3 km/h (1 Bft) N-NO 30 ° 1 min 944 W/m² 10,8 °C 23,8 °C 6,4 km/h (2 Bft)
31.05.2023 13:49 21,8 °C 23,9 °C 53 % 43 % 1023,4 hPa 0,0 l/m² 5,0 km/h (1 Bft) N-NO 30 ° 1 min 947 W/m² 10,5 °C 23,9 °C 6,4 km/h (2 Bft)
31.05.2023 13:50 21,8 °C 24,0 °C 53 % 43 % 1023,4 hPa 0,0 l/m² 3,0 km/h (1 Bft) O 98 ° 1 min 953 W/m² 10,6 °C 24,0 °C 4,8 km/h (1 Bft)
31.05.2023 13:52 21,8 °C 23,9 °C 53 % 42 % 1023,3 hPa 0,0 l/m² 2,2 km/h (1 Bft) NO 44 ° 2 min 960 W/m² 10,2 °C 23,9 °C 6,4 km/h (2 Bft)
31.05.2023 13:53 21,8 °C 23,9 °C 53 % 43 % 1023,3 hPa 0,0 l/m² 8,6 km/h (2 Bft) O 97 ° 1 min 942 W/m² 10,5 °C 23,3 °C 12,9 km/h (3 Bft)
31.05.2023 13:54 21,8 °C 24,1 °C 53 % 47 % 1023,3 hPa 0,0 l/m² 11,1 km/h (2 Bft) O 96 ° 1 min 912 W/m² 12,1 °C 22,9 °C 12,9 km/h (3 Bft)
31.05.2023 13:55 21,8 °C 24,2 °C 53 % 45 % 1023,3 hPa 0,0 l/m² 6,9 km/h (2 Bft) O-SO 119 ° 1 min 898 W/m² 11,5 °C 24,1 °C 11,3 km/h (2 Bft)
31.05.2023 13:56 21,8 °C 23,9 °C 53 % 47 % 1023,3 hPa 0,0 l/m² 10,9 km/h (2 Bft) S-SO 156 ° 1 min 898 W/m² 11,9 °C 22,7 °C 14,5 km/h (3 Bft)
31.05.2023 13:57 21,8 °C 23,7 °C 53 % 45 % 1023,3 hPa 0,0 l/m² 7,1 km/h (2 Bft) SW 223 ° 1 min 898 W/m² 11,1 °C 23,5 °C 9,7 km/h (2 Bft)
31.05.2023 13:58 21,8 °C 23,6 °C 53 % 45 % 1023,3 hPa 0,0 l/m² 4,7 km/h (1 Bft) NO 34 ° 1 min 962 W/m² 11,0 °C 23,6 °C 6,4 km/h (2 Bft)
31.05.2023 13:59 21,9 °C 23,7 °C 53 % 44 % 1023,3 hPa 0,0 l/m² 7,0 km/h (2 Bft) O-SO 107 ° 1 min 958 W/m² 10,7 °C 23,5 °C 11,3 km/h (2 Bft)
31.05.2023 14:01 21,9 °C 24,0 °C 53 % 45 % 1023,3 hPa 0,0 l/m² 11,8 km/h (2 Bft) O-NO 65 ° 2 min 956 W/m² 11,3 °C 22,7 °C 17,7 km/h (3 Bft)
31.05.2023 14:03 21,9 °C 24,1 °C 53 % 45 % 1023,3 hPa 0,0 l/m² 10,2 km/h (2 Bft) N-NO 20 ° 2 min 854 W/m² 11,4 °C 23,1 °C 14,5 km/h (3 Bft)
31.05.2023 14:04 21,9 °C 24,2 °C 53 % 43 % 1023,3 hPa 0,0 l/m² 5,9 km/h (2 Bft) O-NO 63 ° 1 min 870 W/m² 10,8 °C 24,2 °C 14,5 km/h (3 Bft)
31.05.2023 14:05 21,9 °C 24,3 °C 53 % 45 % 1023,2 hPa 0,0 l/m² 8,7 km/h (2 Bft) O 80 ° 1 min 835 W/m² 11,6 °C 23,7 °C 11,3 km/h (2 Bft)
31.05.2023 14:07 21,9 °C 24,3 °C 53 % 44 % 1023,2 hPa 0,0 l/m² 8,6 km/h (2 Bft) N 360 ° 2 min 853 W/m² 11,3 °C 23,7 °C 17,7 km/h (3 Bft)
31.05.2023 14:08 21,9 °C 24,2 °C 53 % 43 % 1023,2 hPa 0,0 l/m² 11,5 km/h (2 Bft) N-NO 32 ° 1 min 823 W/m² 10,8 °C 23,0 °C 17,7 km/h (3 Bft)
31.05.2023 14:09 21,9 °C 24,2 °C 53 % 44 % 1023,2 hPa 0,0 l/m² 9,6 km/h (2 Bft) N-NW 346 ° 1 min 884 W/m² 11,2 °C 23,4 °C 16,1 km/h (3 Bft)
31.05.2023 14:11 21,9 °C 24,1 °C 53 % 43 % 1023,2 hPa 0,0 l/m² 9,7 km/h (2 Bft) N-NO 22 ° 2 min 933 W/m² 10,7 °C 23,2 °C 12,9 km/h (3 Bft)
31.05.2023 14:13 21,9 °C 24,2 °C 53 % 46 % 1023,2 hPa 0,0 l/m² 2,5 km/h (1 Bft) N-NW 329 ° 2 min 930 W/m² 11,8 °C 24,2 °C 6,4 km/h (2 Bft)
31.05.2023 14:14 21,9 °C 24,3 °C 53 % 44 % 1023,1 hPa 0,0 l/m² 10,6 km/h (2 Bft) N 360 ° 1 min 937 W/m² 11,3 °C 23,3 °C 17,7 km/h (3 Bft)
31.05.2023 14:15 21,9 °C 24,2 °C 53 % 41 % 1023,1 hPa 0,0 l/m² 15,0 km/h (3 Bft) N-NW 340 ° 1 min 940 W/m² 10,1 °C 22,3 °C 17,7 km/h (3 Bft)
31.05.2023 14:16 21,9 °C 24,0 °C 53 % 42 % 1023,2 hPa 0,0 l/m² 7,0 km/h (2 Bft) N-NW 347 ° 1 min 926 W/m² 10,3 °C 23,8 °C 12,9 km/h (3 Bft)
31.05.2023 14:17 21,9 °C 23,9 °C 53 % 42 % 1023,2 hPa 0,0 l/m² 4,5 km/h (1 Bft) O 79 ° 1 min 935 W/m² 10,2 °C 23,9 °C 6,4 km/h (2 Bft)
31.05.2023 14:18 21,9 °C 23,9 °C 53 % 42 % 1023,1 hPa 0,0 l/m² 5,6 km/h (2 Bft) NO 51 ° 1 min 923 W/m² 10,2 °C 23,9 °C 9,7 km/h (2 Bft)
31.05.2023 14:19 21,9 °C 24,0 °C 53 % 42 % 1023,1 hPa 0,0 l/m² 7,0 km/h (2 Bft) O-NO 76 ° 1 min 914 W/m² 10,3 °C 23,8 °C 9,7 km/h (2 Bft)
31.05.2023 14:21 21,9 °C 24,1 °C 53 % 45 % 1023,1 hPa 0,0 l/m² 5,4 km/h (2 Bft) O-NO 72 ° 2 min 893 W/m² 11,4 °C 24,1 °C 8,0 km/h (2 Bft)
31.05.2023 14:23 21,9 °C 24,2 °C 53 % 45 % 1023,1 hPa 0,0 l/m² 7,0 km/h (2 Bft) O-SO 114 ° 2 min 896 W/m² 11,5 °C 24,0 °C 11,3 km/h (2 Bft)
31.05.2023 14:24 21,9 °C 24,1 °C 53 % 43 % 1023,0 hPa 0,0 l/m² 6,7 km/h (2 Bft) O 89 ° 1 min 907 W/m² 10,7 °C 24,0 °C 9,7 km/h (2 Bft)
31.05.2023 14:25 21,9 °C 24,1 °C 53 % 46 % 1023,0 hPa 0,0 l/m² 4,6 km/h (1 Bft) O-NO 76 ° 1 min 902 W/m² 11,7 °C 24,1 °C 6,4 km/h (2 Bft)
31.05.2023 14:26 21,9 °C 24,2 °C 53 % 45 % 1023,0 hPa 0,0 l/m² 4,7 km/h (1 Bft) NO 37 ° 1 min 895 W/m² 11,5 °C 24,2 °C 6,4 km/h (2 Bft)
31.05.2023 14:27 21,9 °C 24,3 °C 53 % 45 % 1023,1 hPa 0,0 l/m² 1,5 km/h (1 Bft) N-NO 27 ° 1 min 893 W/m² 11,6 °C 24,3 °C 4,8 km/h (1 Bft)
31.05.2023 14:28 21,9 °C 24,5 °C 53 % 47 % 1023,0 hPa 0,0 l/m² 1,2 km/h (1 Bft) N 5 ° 1 min 886 W/m² 12,4 °C 24,5 °C 3,2 km/h (1 Bft)
31.05.2023 14:29 21,9 °C 24,5 °C 53 % 41 % 1023,1 hPa 0,0 l/m² 12,5 km/h (2 Bft) N 5 ° 1 min 893 W/m² 10,4 °C 23,1 °C 19,3 km/h (3 Bft)
31.05.2023 14:30 21,9 °C 24,6 °C 53 % 46 % 1023,1 hPa 0,0 l/m² 15,3 km/h (3 Bft) N-NW 341 ° 1 min 875 W/m² 12,2 °C 22,8 °C 17,7 km/h (3 Bft)
31.05.2023 14:32 21,9 °C 24,2 °C 53 % 40 % 1023,0 hPa 0,0 l/m² 9,1 km/h (2 Bft) N-NW 332 ° 2 min 881 W/m² 9,7 °C 23,5 °C 16,1 km/h (3 Bft)
31.05.2023 14:33 21,9 °C 24,1 °C 53 % 43 % 1023,1 hPa 0,0 l/m² 2,2 km/h (1 Bft) W 270 ° 1 min 888 W/m² 10,7 °C 24,1 °C 4,8 km/h (1 Bft)
31.05.2023 14:34 21,9 °C 24,0 °C 53 % 42 % 1023,0 hPa 0,0 l/m² 4,2 km/h (1 Bft) W 272 ° 1 min 886 W/m² 10,3 °C 24,0 °C 6,4 km/h (2 Bft)
31.05.2023 14:35 21,9 °C 24,0 °C 53 % 43 % 1023,0 hPa 0,0 l/m² 7,6 km/h (2 Bft) W 267 ° 1 min 893 W/m² 10,6 °C 23,7 °C 12,9 km/h (3 Bft)
31.05.2023 14:36 21,9 °C 24,0 °C 53 % 45 % 1022,9 hPa 0,0 l/m² 4,0 km/h (1 Bft) W 276 ° 1 min 902 W/m² 11,3 °C 24,0 °C 9,7 km/h (2 Bft)
31.05.2023 14:37 22,0 °C 24,1 °C 53 % 42 % 1022,9 hPa 0,0 l/m² 5,0 km/h (1 Bft) W 273 ° 1 min 911 W/m² 10,4 °C 24,1 °C 6,4 km/h (2 Bft)
31.05.2023 14:38 21,9 °C 24,2 °C 53 % 44 % 1022,9 hPa 0,0 l/m² 1,7 km/h (1 Bft) N-NW 331 ° 1 min 919 W/m² 11,2 °C 24,2 °C 4,8 km/h (1 Bft)
31.05.2023 14:39 21,9 °C 24,2 °C 53 % 42 % 1022,9 hPa 0,0 l/m² 4,1 km/h (1 Bft) W-NW 295 ° 1 min 921 W/m² 10,5 °C 24,2 °C 6,4 km/h (2 Bft)
31.05.2023 14:41 21,9 °C 24,4 °C 53 % 42 % 1022,9 hPa 0,0 l/m² 6,6 km/h (2 Bft) N-NW 344 ° 2 min 914 W/m² 10,6 °C 24,4 °C 12,9 km/h (3 Bft)
31.05.2023 14:43 21,9 °C 24,4 °C 53 % 40 % 1022,8 hPa 0,0 l/m² 8,8 km/h (2 Bft) W-SW 246 ° 2 min 911 W/m² 9,9 °C 23,8 °C 14,5 km/h (3 Bft)
31.05.2023 14:44 22,0 °C 24,4 °C 53 % 41 % 1022,9 hPa 0,0 l/m² 3,0 km/h (1 Bft) W 269 ° 1 min 884 W/m² 10,3 °C 24,4 °C 9,7 km/h (2 Bft)
31.05.2023 14:45 21,9 °C 24,5 °C 53 % 41 % 1022,8 hPa 0,0 l/m² 6,1 km/h (2 Bft) NW 325 ° 1 min 868 W/m² 10,4 °C 24,5 °C 11,3 km/h (2 Bft)
31.05.2023 14:46 22,0 °C 24,5 °C 53 % 40 % 1022,8 hPa 0,0 l/m² 5,1 km/h (1 Bft) NW 317 ° 1 min 830 W/m² 10,0 °C 24,5 °C 8,0 km/h (2 Bft)
31.05.2023 14:47 21,9 °C 24,4 °C 53 % 41 % 1022,8 hPa 0,0 l/m² 2,8 km/h (1 Bft) NW 313 ° 1 min 814 W/m² 10,3 °C 24,4 °C 8,0 km/h (2 Bft)
31.05.2023 14:48 21,9 °C 24,5 °C 53 % 45 % 1022,8 hPa 0,0 l/m² 1,1 km/h (1 Bft) W 280 ° 1 min 881 W/m² 11,8 °C 24,5 °C 4,8 km/h (1 Bft)
31.05.2023 14:49 22,0 °C 24,7 °C 53 % 41 % 1022,8 hPa 0,0 l/m² 4,7 km/h (1 Bft) N-NW 330 ° 1 min 844 W/m² 10,6 °C 24,7 °C 12,9 km/h (3 Bft)
31.05.2023 14:51 22,0 °C 24,8 °C 53 % 41 % 1022,8 hPa 0,0 l/m² 6,7 km/h (2 Bft) N-NW 340 ° 2 min 823 W/m² 10,6 °C 24,7 °C 11,3 km/h (2 Bft)
31.05.2023 14:53 21,9 °C 24,8 °C 53 % 41 % 1022,7 hPa 0,0 l/m² 10,4 km/h (2 Bft) N-NO 32 ° 2 min 863 W/m² 10,6 °C 23,9 °C 16,1 km/h (3 Bft)
31.05.2023 14:54 21,9 °C 24,8 °C 53 % 40 % 1022,8 hPa 0,0 l/m² 8,2 km/h (2 Bft) N 355 ° 1 min 854 W/m² 10,3 °C 24,3 °C 12,9 km/h (3 Bft)
31.05.2023 14:55 21,9 °C 24,9 °C 53 % 41 % 1022,7 hPa 0,0 l/m² 5,4 km/h (2 Bft) NW 325 ° 1 min 826 W/m² 10,7 °C 24,9 °C 8,0 km/h (2 Bft)
31.05.2023 14:56 22,0 °C 24,7 °C 53 % 38 % 1022,8 hPa 0,0 l/m² 5,2 km/h (1 Bft) N-NW 330 ° 1 min 817 W/m² 9,4 °C 24,7 °C 8,0 km/h (2 Bft)
31.05.2023 14:57 22,0 °C 24,6 °C 53 % 42 % 1022,8 hPa 0,0 l/m² 3,7 km/h (1 Bft) N-NW 344 ° 1 min 780 W/m² 10,8 °C 24,6 °C 6,4 km/h (2 Bft)
31.05.2023 14:58 22,0 °C 24,6 °C 53 % 41 % 1022,7 hPa 0,0 l/m² 5,2 km/h (1 Bft) N 5 ° 1 min 821 W/m² 10,5 °C 24,6 °C 8,0 km/h (2 Bft)
31.05.2023 14:59 22,0 °C 24,8 °C 53 % 40 % 1022,8 hPa 0,0 l/m² 5,4 km/h (2 Bft) N-NO 26 ° 1 min 758 W/m² 10,3 °C 24,8 °C 9,7 km/h (2 Bft)
31.05.2023 15:01 22,0 °C 24,8 °C 53 % 39 % 1022,8 hPa 0,0 l/m² 7,9 km/h (2 Bft) N-NW 344 ° 2 min 802 W/m² 9,9 °C 24,4 °C 14,5 km/h (3 Bft)
31.05.2023 15:03 22,0 °C 24,4 °C 53 % 39 % 1022,8 hPa 0,0 l/m² 2,5 km/h (1 Bft) NO 40 ° 2 min 696 W/m² 9,5 °C 24,4 °C 4,8 km/h (1 Bft)
31.05.2023 15:04 22,0 °C 24,3 °C 53 % 41 % 1022,7 hPa 0,0 l/m² 3,2 km/h (1 Bft) O 88 ° 1 min 636 W/m² 10,2 °C 24,3 °C 6,4 km/h (2 Bft)
31.05.2023 15:05 22,0 °C 24,2 °C 53 % 39 % 1022,7 hPa 0,0 l/m² 2,2 km/h (1 Bft) O-NO 76 ° 1 min 684 W/m² 9,4 °C 24,2 °C 6,4 km/h (2 Bft)
31.05.2023 15:06 22,0 °C 23,9 °C 53 % 39 % 1022,7 hPa 0,0 l/m² 0,6 km/h (0 Bft) O-NO 76 ° 1 min 768 W/m² 9,1 °C 23,9 °C 3,2 km/h (1 Bft)
31.05.2023 15:07 22,0 °C 24,0 °C 53 % 44 % 1022,7 hPa 0,0 l/m² 1,6 km/h (1 Bft) O-NO 76 ° 1 min 802 W/m² 11,0 °C 24,0 °C 3,2 km/h (1 Bft)
31.05.2023 15:08 22,0 °C 24,2 °C 53 % 41 % 1022,7 hPa 0,0 l/m² 2,3 km/h (1 Bft) NO 44 ° 1 min 814 W/m² 10,1 °C 24,2 °C 6,4 km/h (2 Bft)
31.05.2023 15:09 22,0 °C 24,3 °C 53 % 41 % 1022,7 hPa 0,0 l/m² 4,0 km/h (1 Bft) NO 49 ° 1 min 812 W/m² 10,2 °C 24,3 °C 8,0 km/h (2 Bft)
31.05.2023 15:11 22,0 °C 24,6 °C 53 % 41 % 1022,7 hPa 0,0 l/m² 7,4 km/h (2 Bft) N 5 ° 2 min 749 W/m² 10,5 °C 24,3 °C 16,1 km/h (3 Bft)
31.05.2023 15:13 22,0 °C 24,6 °C 53 % 40 % 1022,7 hPa 0,0 l/m² 6,2 km/h (2 Bft) N 5 ° 2 min 863 W/m² 10,1 °C 24,6 °C 9,7 km/h (2 Bft)
31.05.2023 15:14 22,0 °C 24,7 °C 53 % 42 % 1022,6 hPa 0,0 l/m² 1,6 km/h (1 Bft) N-NO 13 ° 1 min 875 W/m² 10,9 °C 24,7 °C 3,2 km/h (1 Bft)
31.05.2023 15:15 22,0 °C 24,7 °C 53 % 40 % 1022,7 hPa 0,0 l/m² 0,0 km/h (0 Bft) NO 49 ° 1 min 868 W/m² 10,2 °C 24,7 °C 0,0 km/h (0 Bft)
31.05.2023 15:16 22,0 °C 24,4 °C 53 % 40 % 1022,7 hPa 0,0 l/m² 0,6 km/h (0 Bft) N-NW 342 ° 1 min 849 W/m² 9,9 °C 24,4 °C 4,8 km/h (1 Bft)
31.05.2023 15:17 22,0 °C 24,3 °C 53 % 40 % 1022,7 hPa 0,0 l/m² 11,1 km/h (2 Bft) N 360 ° 1 min 835 W/m² 9,8 °C 23,2 °C 17,7 km/h (3 Bft)
31.05.2023 15:18 21,9 °C 24,3 °C 53 % 40 % 1022,7 hPa 0,0 l/m² 5,7 km/h (2 Bft) W 279 ° 1 min 821 W/m² 9,8 °C 24,3 °C 9,7 km/h (2 Bft)
31.05.2023 15:19 22,0 °C 24,3 °C 53 % 43 % 1022,6 hPa 0,0 l/m² 10,6 km/h (2 Bft) W-NW 300 ° 1 min 770 W/m² 10,9 °C 23,3 °C 16,1 km/h (3 Bft)
31.05.2023 15:21 22,0 °C 24,4 °C 53 % 40 % 1022,7 hPa 0,0 l/m² 5,1 km/h (1 Bft) N-NW 342 ° 2 min 786 W/m² 9,9 °C 24,4 °C 12,9 km/h (3 Bft)
31.05.2023 15:23 22,0 °C 24,7 °C 53 % 41 % 1022,6 hPa 0,0 l/m² 2,5 km/h (1 Bft) N-NW 331 ° 2 min 772 W/m² 10,6 °C 24,7 °C 6,4 km/h (2 Bft)
31.05.2023 15:24 22,0 °C 24,7 °C 53 % 43 % 1022,6 hPa 0,0 l/m² 2,3 km/h (1 Bft) N-NW 345 ° 1 min 784 W/m² 11,3 °C 24,7 °C 4,8 km/h (1 Bft)
31.05.2023 15:25 22,0 °C 24,6 °C 53 % 41 % 1022,6 hPa 0,0 l/m² 0,0 km/h (0 Bft) N-NW 345 ° 1 min 693 W/m² 10,5 °C 24,6 °C 0,0 km/h (0 Bft)
31.05.2023 15:26 21,9 °C 24,6 °C 53 % 42 % 1022,5 hPa 0,0 l/m² 0,4 km/h (0 Bft) NO 37 ° 1 min 687 W/m² 10,8 °C 24,6 °C 3,2 km/h (1 Bft)
31.05.2023 15:27 22,0 °C 24,6 °C 53 % 46 % 1022,6 hPa 0,0 l/m² 2,7 km/h (1 Bft) NW 315 ° 1 min 747 W/m² 12,2 °C 24,6 °C 4,8 km/h (1 Bft)
31.05.2023 15:28 22,0 °C 24,8 °C 53 % 40 % 1022,5 hPa 0,0 l/m² 9,9 km/h (2 Bft) N-NW 345 ° 1 min 759 W/m² 10,3 °C 24,0 °C 14,5 km/h (3 Bft)
31.05.2023 15:29 22,0 °C 24,7 °C 53 % 41 % 1022,5 hPa 0,0 l/m² 8,6 km/h (2 Bft) N-NW 345 ° 1 min 751 W/m² 10,6 °C 24,1 °C 14,5 km/h (3 Bft)
31.05.2023 15:31 22,0 °C 24,6 °C 53 % 41 % 1022,5 hPa 0,0 l/m² 3,6 km/h (1 Bft) W 279 ° 2 min 680 W/m² 10,5 °C 24,6 °C 12,9 km/h (3 Bft)
31.05.2023 15:33 22,0 °C 24,5 °C 53 % 42 % 1022,5 hPa 0,0 l/m² 7,4 km/h (2 Bft) NW 319 ° 2 min 663 W/m² 10,7 °C 24,2 °C 16,1 km/h (3 Bft)
31.05.2023 15:34 21,9 °C 24,6 °C 53 % 42 % 1022,4 hPa 0,0 l/m² 7,1 km/h (2 Bft) W-NW 292 ° 1 min 675 W/m² 10,8 °C 24,4 °C 14,5 km/h (3 Bft)
31.05.2023 15:35 22,0 °C 24,6 °C 53 % 39 % 1022,5 hPa 0,0 l/m² 6,9 km/h (2 Bft) W 265 ° 1 min 698 W/m² 9,7 °C 24,5 °C 11,3 km/h (2 Bft)
31.05.2023 15:37 22,0 °C 24,4 °C 53 % 40 % 1022,5 hPa 0,0 l/m² 3,9 km/h (1 Bft) N-NW 337 ° 2 min 698 W/m² 9,9 °C 24,4 °C 9,7 km/h (2 Bft)
31.05.2023 15:38 22,0 °C 24,4 °C 53 % 41 % 1022,5 hPa 0,0 l/m² 6,5 km/h (2 Bft) N-NW 342 ° 1 min 682 W/m² 10,3 °C 24,4 °C 8,0 km/h (2 Bft)
31.05.2023 15:39 21,9 °C 24,5 °C 53 % 41 % 1022,4 hPa 0,0 l/m² 4,5 km/h (1 Bft) NO 48 ° 1 min 666 W/m² 10,4 °C 24,5 °C 6,4 km/h (2 Bft)
31.05.2023 15:41 21,9 °C 24,6 °C 53 % 40 % 1022,4 hPa 0,0 l/m² 10,4 km/h (2 Bft) N 355 ° 2 min 647 W/m² 10,1 °C 23,6 °C 16,1 km/h (3 Bft)
31.05.2023 15:43 21,9 °C 24,7 °C 53 % 40 % 1022,4 hPa 0,0 l/m² 8,2 km/h (2 Bft) NO 51 ° 2 min 589 W/m² 10,2 °C 24,2 °C 14,5 km/h (3 Bft)
31.05.2023 15:44 21,9 °C 24,7 °C 53 % 40 % 1022,4 hPa 0,0 l/m² 6,8 km/h (2 Bft) N-NW 327 ° 1 min 568 W/m² 10,2 °C 24,6 °C 14,5 km/h (3 Bft)
31.05.2023 15:46 21,9 °C 24,7 °C 53 % 41 % 1022,4 hPa 0,0 l/m² 6,6 km/h (2 Bft) N-NW 343 ° 2 min 557 W/m² 10,6 °C 24,7 °C 12,9 km/h (3 Bft)
31.05.2023 15:47 22,0 °C 24,7 °C 53 % 39 % 1022,4 hPa 0,0 l/m² 6,7 km/h (2 Bft) N-NW 338 ° 1 min 519 W/m² 9,8 °C 24,6 °C 9,7 km/h (2 Bft)
31.05.2023 15:48 21,9 °C 24,6 °C 53 % 38 % 1022,4 hPa 0,0 l/m² 7,9 km/h (2 Bft) N-NW 332 ° 1 min 504 W/m² 9,3 °C 24,2 °C 14,5 km/h (3 Bft)
31.05.2023 15:49 21,9 °C 24,4 °C 53 % 39 % 1022,4 hPa 0,0 l/m² 8,0 km/h (2 Bft) N-NW 333 ° 1 min 485 W/m² 9,5 °C 24,0 °C 11,3 km/h (2 Bft)
31.05.2023 15:51 21,9 °C 24,3 °C 53 % 39 % 1022,3 hPa 0,0 l/m² 7,2 km/h (2 Bft) NW 325 ° 2 min 427 W/m² 9,4 °C 24,1 °C 12,9 km/h (3 Bft)
31.05.2023 15:53 21,9 °C 24,1 °C 53 % 38 % 1022,4 hPa 0,0 l/m² 7,4 km/h (2 Bft) N-NW 329 ° 2 min 446 W/m² 8,9 °C 23,8 °C 12,9 km/h (3 Bft)
31.05.2023 15:54 21,9 °C 24,0 °C 53 % 39 % 1022,4 hPa 0,0 l/m² 8,9 km/h (2 Bft) N-NW 333 ° 1 min 431 W/m² 9,2 °C 23,3 °C 12,9 km/h (3 Bft)
31.05.2023 15:55 21,9 °C 23,9 °C 53 % 38 % 1022,3 hPa 0,0 l/m² 9,3 km/h (2 Bft) N 360 ° 1 min 461 W/m² 8,7 °C 23,1 °C 16,1 km/h (3 Bft)
31.05.2023 15:57 21,9 °C 23,7 °C 53 % 39 % 1022,4 hPa 0,0 l/m² 7,3 km/h (2 Bft) N-NW 327 ° 2 min 408 W/m² 8,9 °C 23,4 °C 12,9 km/h (3 Bft)
31.05.2023 15:58 21,9 °C 23,7 °C 53 % 40 % 1022,4 hPa 0,0 l/m² 5,4 km/h (2 Bft) N 355 ° 1 min 469 W/m² 9,3 °C 23,7 °C 6,4 km/h (2 Bft)
31.05.2023 15:59 21,9 °C 23,7 °C 53 % 39 % 1022,3 hPa 0,0 l/m² 9,0 km/h (2 Bft) N-NO 19 ° 1 min 462 W/m² 8,9 °C 23,0 °C 17,7 km/h (3 Bft)
31.05.2023 16:00 21,9 °C 23,7 °C 53 % 40 % 1022,3 hPa 0,0 l/m² 8,6 km/h (2 Bft) N-NO 33 ° 1 min 504 W/m² 9,3 °C 23,1 °C 12,9 km/h (3 Bft)
31.05.2023 16:02 21,9 °C 23,9 °C 53 % 40 % 1022,3 hPa 0,0 l/m² 4,0 km/h (1 Bft) N-NW 328 ° 2 min 652 W/m² 9,5 °C 23,9 °C 8,0 km/h (2 Bft)
31.05.2023 16:03 21,9 °C 24,1 °C 53 % 42 % 1022,3 hPa 0,0 l/m² 3,9 km/h (1 Bft) N 5 ° 1 min 673 W/m² 10,4 °C 24,1 °C 6,4 km/h (2 Bft)
31.05.2023 16:04 21,9 °C 24,3 °C 53 % 41 % 1022,3 hPa 0,0 l/m² 1,7 km/h (1 Bft) N-NO 26 ° 1 min 649 W/m² 10,2 °C 24,3 °C 4,8 km/h (1 Bft)
31.05.2023 16:05 21,9 °C 24,6 °C 53 % 40 % 1022,2 hPa 0,0 l/m² 3,9 km/h (1 Bft) NO 35 ° 1 min 705 W/m² 10,1 °C 24,6 °C 8,0 km/h (2 Bft)
31.05.2023 16:07 21,9 °C 24,9 °C 53 % 40 % 1022,2 hPa 0,0 l/m² 3,0 km/h (1 Bft) NW 310 ° 2 min 657 W/m² 10,4 °C 24,9 °C 6,4 km/h (2 Bft)
31.05.2023 16:08 21,9 °C 24,8 °C 53 % 39 % 1022,2 hPa 0,0 l/m² 5,8 km/h (2 Bft) W-NW 300 ° 1 min 584 W/m² 9,9 °C 24,8 °C 11,3 km/h (2 Bft)
31.05.2023 16:09 21,9 °C 24,7 °C 53 % 41 % 1022,2 hPa 0,0 l/m² 2,8 km/h (1 Bft) NW 324 ° 1 min 536 W/m² 10,6 °C 24,7 °C 6,4 km/h (2 Bft)
31.05.2023 16:11 21,9 °C 24,6 °C 53 % 41 % 1022,1 hPa 0,0 l/m² 12,5 km/h (2 Bft) N 9 ° 2 min 461 W/m² 10,5 °C 23,2 °C 20,9 km/h (4 Bft)
31.05.2023 16:13 21,9 °C 24,3 °C 53 % 38 % 1022,1 hPa 0,0 l/m² 10,4 km/h (2 Bft) N-NW 348 ° 2 min 513 W/m² 9,1 °C 23,3 °C 17,7 km/h (3 Bft)
31.05.2023 16:14 21,9 °C 24,2 °C 53 % 39 % 1022,2 hPa 0,0 l/m² 7,6 km/h (2 Bft) N 355 ° 1 min 508 W/m² 9,4 °C 23,9 °C 9,7 km/h (2 Bft)
31.05.2023 16:15 21,9 °C 24,1 °C 53 % 40 % 1022,1 hPa 0,0 l/m² 4,9 km/h (1 Bft) NW 313 ° 1 min 508 W/m² 9,6 °C 24,1 °C 8,0 km/h (2 Bft)
31.05.2023 16:16 21,9 °C 24,1 °C 53 % 40 % 1022,1 hPa 0,0 l/m² 4,7 km/h (1 Bft) N-NW 348 ° 1 min 387 W/m² 9,6 °C 24,1 °C 6,4 km/h (2 Bft)
31.05.2023 16:17 21,9 °C 23,9 °C 53 % 39 % 1022,1 hPa 0,0 l/m² 7,2 km/h (2 Bft) N 5 ° 1 min 350 W/m² 9,1 °C 23,7 °C 12,9 km/h (3 Bft)
31.05.2023 16:18 21,9 °C 23,8 °C 53 % 39 % 1022,1 hPa 0,0 l/m² 6,1 km/h (2 Bft) N 355 ° 1 min 315 W/m² 9,0 °C 23,8 °C 12,9 km/h (3 Bft)
31.05.2023 16:19 21,9 °C 23,8 °C 53 % 41 % 1022,1 hPa 0,0 l/m² 7,2 km/h (2 Bft) N-NW 336 ° 1 min 322 W/m² 9,7 °C 23,6 °C 9,7 km/h (2 Bft)
31.05.2023 16:20 21,9 °C 23,9 °C 53 % 41 % 1022,1 hPa 0,0 l/m² 5,6 km/h (2 Bft) N-NO 12 ° 1 min 360 W/m² 9,8 °C 23,9 °C 12,9 km/h (3 Bft)
31.05.2023 16:22 21,9 °C 23,8 °C 53 % 40 % 1022,1 hPa 0,0 l/m² 8,3 km/h (2 Bft) NW 325 ° 2 min 413 W/m² 9,4 °C 23,3 °C 14,5 km/h (3 Bft)
31.05.2023 16:23 21,9 °C 23,7 °C 53 % 41 % 1022,1 hPa 0,0 l/m² 7,9 km/h (2 Bft) N-NW 334 ° 1 min 380 W/m² 9,7 °C 23,3 °C 12,9 km/h (3 Bft)
31.05.2023 16:24 21,9 °C 23,7 °C 53 % 40 % 1022,1 hPa 0,0 l/m² 8,5 km/h (2 Bft) N-NO 13 ° 1 min 339 W/m² 9,3 °C 23,1 °C 12,9 km/h (3 Bft)
31.05.2023 16:25 21,9 °C 23,7 °C 53 % 40 % 1022,1 hPa 0,0 l/m² 6,0 km/h (2 Bft) N 351 ° 1 min 287 W/m² 9,3 °C 23,7 °C 8,0 km/h (2 Bft)
31.05.2023 16:26 21,8 °C 23,7 °C 53 % 40 % 1022,0 hPa 0,0 l/m² 7,7 km/h (2 Bft) N-NO 28 ° 1 min 279 W/m² 9,3 °C 23,3 °C 9,7 km/h (2 Bft)
31.05.2023 16:27 21,8 °C 23,7 °C 53 % 40 % 1022,0 hPa 0,0 l/m² 5,0 km/h (1 Bft) N 349 ° 1 min 278 W/m² 9,3 °C 23,7 °C 6,4 km/h (2 Bft)
31.05.2023 16:28 21,8 °C 23,7 °C 53 % 40 % 1022,1 hPa 0,0 l/m² 6,5 km/h (2 Bft) NW 317 ° 1 min 279 W/m² 9,3 °C 23,7 °C 9,7 km/h (2 Bft)
31.05.2023 16:29 21,8 °C 23,6 °C 53 % 41 % 1022,0 hPa 0,0 l/m² 8,9 km/h (2 Bft) N 11 ° 1 min 302 W/m² 9,6 °C 22,9 °C 12,9 km/h (3 Bft)
31.05.2023 16:31 21,8 °C 23,6 °C 53 % 41 % 1022,0 hPa 0,0 l/m² 7,8 km/h (2 Bft) NW 306 ° 2 min 355 W/m² 9,6 °C 23,2 °C 12,9 km/h (3 Bft)
31.05.2023 16:33 21,8 °C 23,6 °C 53 % 40 % 1022,0 hPa 0,0 l/m² 6,1 km/h (2 Bft) N 355 ° 2 min 403 W/m² 9,2 °C 23,6 °C 12,9 km/h (3 Bft)
31.05.2023 16:34 21,8 °C 23,6 °C 53 % 41 % 1022,0 hPa 0,0 l/m² 8,3 km/h (2 Bft) N 360 ° 1 min 403 W/m² 9,6 °C 23,0 °C 12,9 km/h (3 Bft)
31.05.2023 16:35 21,8 °C 23,6 °C 53 % 42 % 1022,0 hPa 0,0 l/m² 8,5 km/h (2 Bft) N-NW 347 ° 1 min 584 W/m² 9,9 °C 23,0 °C 12,9 km/h (3 Bft)
31.05.2023 16:36 21,8 °C 23,6 °C 53 % 41 % 1021,9 hPa 0,0 l/m² 7,3 km/h (2 Bft) N 355 ° 1 min 570 W/m² 9,6 °C 23,3 °C 12,9 km/h (3 Bft)
31.05.2023 16:37 21,8 °C 23,7 °C 53 % 41 % 1022,0 hPa 0,0 l/m² 6,5 km/h (2 Bft) N-NO 15 ° 1 min 563 W/m² 9,7 °C 23,7 °C 9,7 km/h (2 Bft)
31.05.2023 16:38 21,8 °C 23,9 °C 53 % 43 % 1021,9 hPa 0,0 l/m² 4,5 km/h (1 Bft) N-NO 31 ° 1 min 621 W/m² 10,5 °C 23,9 °C 8,0 km/h (2 Bft)
31.05.2023 16:39 21,8 °C 24,1 °C 53 % 41 % 1021,9 hPa 0,0 l/m² 4,3 km/h (1 Bft) NO 46 ° 1 min 621 W/m² 10,0 °C 24,1 °C 12,9 km/h (3 Bft)
31.05.2023 16:41 21,8 °C 24,1 °C 53 % 40 % 1021,9 hPa 0,0 l/m² 7,6 km/h (2 Bft) N-NO 25 ° 2 min 367 W/m² 9,6 °C 23,8 °C 14,5 km/h (3 Bft)
31.05.2023 16:43 21,8 °C 24,1 °C 53 % 40 % 1021,9 hPa 0,0 l/m² 4,6 km/h (1 Bft) N 11 ° 2 min 631 W/m² 9,6 °C 24,1 °C 9,7 km/h (2 Bft)
31.05.2023 16:44 21,8 °C 24,1 °C 53 % 40 % 1021,9 hPa 0,0 l/m² 5,8 km/h (2 Bft) N-NO 13 ° 1 min 677 W/m² 9,6 °C 24,1 °C 9,7 km/h (2 Bft)
31.05.2023 16:45 21,8 °C 24,2 °C 53 % 42 % 1021,9 hPa 0,0 l/m² 4,9 km/h (1 Bft) NO 46 ° 1 min 675 W/m² 10,5 °C 24,2 °C 6,4 km/h (2 Bft)
31.05.2023 16:46 21,8 °C 24,3 °C 53 % 40 % 1021,9 hPa 0,0 l/m² 3,2 km/h (1 Bft) N-NO 30 ° 1 min 677 W/m² 9,8 °C 24,3 °C 4,8 km/h (1 Bft)
31.05.2023 16:47 21,8 °C 24,3 °C 53 % 42 % 1021,8 hPa 0,0 l/m² 4,3 km/h (1 Bft) N-NW 348 ° 1 min 680 W/m² 10,6 °C 24,3 °C 8,0 km/h (2 Bft)
31.05.2023 16:48 21,8 °C 24,4 °C 53 % 41 % 1021,9 hPa 0,0 l/m² 5,0 km/h (1 Bft) N 360 ° 1 min 686 W/m² 10,3 °C 24,4 °C 6,4 km/h (2 Bft)
31.05.2023 16:49 21,8 °C 24,4 °C 53 % 41 % 1021,8 hPa 0,0 l/m² 8,6 km/h (2 Bft) N-NW 340 ° 1 min 677 W/m² 10,3 °C 23,8 °C 14,5 km/h (3 Bft)
31.05.2023 16:51 21,8 °C 24,5 °C 53 % 39 % 1021,8 hPa 0,0 l/m² 4,4 km/h (1 Bft) W-NW 289 ° 2 min 677 W/m² 9,6 °C 24,5 °C 8,0 km/h (2 Bft)
31.05.2023 16:53 21,8 °C 24,5 °C 53 % 39 % 1021,7 hPa 0,0 l/m² 7,8 km/h (2 Bft) N-NW 340 ° 2 min 689 W/m² 9,6 °C 24,1 °C 14,5 km/h (3 Bft)
31.05.2023 16:54 21,8 °C 24,6 °C 53 % 40 % 1021,8 hPa 0,0 l/m² 6,4 km/h (2 Bft) N-NW 331 ° 1 min 687 W/m² 10,1 °C 24,6 °C 14,5 km/h (3 Bft)
31.05.2023 16:55 21,8 °C 24,6 °C 53 % 39 % 1021,7 hPa 0,0 l/m² 6,6 km/h (2 Bft) NW 314 ° 1 min 684 W/m² 9,7 °C 24,6 °C 9,7 km/h (2 Bft)
31.05.2023 16:56 21,8 °C 24,6 °C 53 % 38 % 1021,8 hPa 0,0 l/m² 6,9 km/h (2 Bft) N-NW 342 ° 1 min 687 W/m² 9,3 °C 24,5 °C 9,7 km/h (2 Bft)
31.05.2023 16:57 21,9 °C 24,7 °C 53 % 40 % 1021,8 hPa 0,0 l/m² 3,1 km/h (1 Bft) N-NW 337 ° 1 min 654 W/m² 10,2 °C 24,7 °C 12,9 km/h (3 Bft)
31.05.2023 16:58 21,9 °C 24,7 °C 53 % 38 % 1021,7 hPa 0,0 l/m² 5,9 km/h (2 Bft) N-NW 338 ° 1 min 654 W/m² 9,4 °C 24,7 °C 9,7 km/h (2 Bft)
31.05.2023 16:59 21,9 °C 24,8 °C 53 % 38 % 1021,7 hPa 0,0 l/m² 3,9 km/h (1 Bft) W-SW 250 ° 1 min 659 W/m² 9,5 °C 24,8 °C 8,0 km/h (2 Bft)
31.05.2023 17:00 21,9 °C 24,9 °C 53 % 38 % 1021,7 hPa 0,0 l/m² 4,8 km/h (1 Bft) N-NW 329 ° 1 min 650 W/m² 9,6 °C 24,9 °C 8,0 km/h (2 Bft)
31.05.2023 17:02 21,9 °C 24,9 °C 52 % 38 % 1021,7 hPa 0,0 l/m² 4,7 km/h (1 Bft) NO 46 ° 2 min 603 W/m² 9,6 °C 24,9 °C 14,5 km/h (3 Bft)
31.05.2023 17:03 21,9 °C 24,9 °C 52 % 38 % 1021,7 hPa 0,0 l/m² 4,2 km/h (1 Bft) N-NO 15 ° 1 min 566 W/m² 9,6 °C 24,9 °C 6,4 km/h (2 Bft)
31.05.2023 17:04 21,9 °C 24,8 °C 52 % 37 % 1021,6 hPa 0,0 l/m² 6,8 km/h (2 Bft) N-NW 331 ° 1 min 559 W/m² 9,1 °C 24,7 °C 12,9 km/h (3 Bft)
31.05.2023 17:05 21,9 °C 24,6 °C 52 % 38 % 1021,8 hPa 0,0 l/m² 4,1 km/h (1 Bft) N-NO 17 ° 1 min 561 W/m² 9,3 °C 24,6 °C 9,7 km/h (2 Bft)
31.05.2023 17:06 21,9 °C 24,4 °C 52 % 39 % 1021,7 hPa 0,0 l/m² 1,4 km/h (1 Bft) N-NO 13 ° 1 min 548 W/m² 9,5 °C 24,4 °C 3,2 km/h (1 Bft)
31.05.2023 17:07 21,9 °C 24,4 °C 52 % 38 % 1021,7 hPa 0,0 l/m² 5,3 km/h (1 Bft) NO 34 ° 1 min 563 W/m² 9,2 °C 24,4 °C 6,4 km/h (2 Bft)
31.05.2023 17:08 21,8 °C 24,4 °C 52 % 38 % 1021,7 hPa 0,0 l/m² 5,2 km/h (1 Bft) N 360 ° 1 min 561 W/m² 9,2 °C 24,4 °C 9,7 km/h (2 Bft)
31.05.2023 17:09 21,9 °C 24,4 °C 52 % 37 % 1021,7 hPa 0,0 l/m² 7,1 km/h (2 Bft) N 10 ° 1 min 548 W/m² 8,8 °C 24,2 °C 14,5 km/h (3 Bft)
31.05.2023 17:11 21,9 °C 24,5 °C 52 % 38 % 1021,7 hPa 0,0 l/m² 7,6 km/h (2 Bft) N 5 ° 2 min 571 W/m² 9,2 °C 24,2 °C 12,9 km/h (3 Bft)
31.05.2023 17:13 21,9 °C 24,4 °C 52 % 36 % 1021,7 hPa 0,0 l/m² 7,5 km/h (2 Bft) N 360 ° 2 min 564 W/m² 8,4 °C 24,1 °C 12,9 km/h (3 Bft)
31.05.2023 17:14 21,9 °C 24,4 °C 52 % 38 % 1021,7 hPa 0,0 l/m² 5,5 km/h (2 Bft) N 355 ° 1 min 566 W/m² 9,2 °C 24,4 °C 9,7 km/h (2 Bft)
31.05.2023 17:15 21,9 °C 24,5 °C 52 % 37 % 1021,6 hPa 0,0 l/m² 6,0 km/h (2 Bft) N-NW 332 ° 1 min 584 W/m² 8,8 °C 24,5 °C 12,9 km/h (3 Bft)
31.05.2023 17:16 21,9 °C 24,6 °C 51 % 40 % 1021,6 hPa 0,0 l/m² 6,6 km/h (2 Bft) N 350 ° 1 min 578 W/m² 10,1 °C 24,6 °C 9,7 km/h (2 Bft)
31.05.2023 17:17 21,9 °C 24,6 °C 51 % 38 % 1021,6 hPa 0,0 l/m² 12,8 km/h (3 Bft) N 360 ° 1 min 571 W/m² 9,3 °C 23,2 °C 16,1 km/h (3 Bft)
31.05.2023 17:18 21,9 °C 24,6 °C 52 % 37 % 1021,6 hPa 0,0 l/m² 8,1 km/h (2 Bft) NO 39 ° 1 min 563 W/m² 8,9 °C 24,2 °C 16,1 km/h (3 Bft)
31.05.2023 17:19 21,9 °C 24,7 °C 51 % 39 % 1021,6 hPa 0,0 l/m² 6,9 km/h (2 Bft) NO 51 ° 1 min 557 W/m² 9,8 °C 24,6 °C 11,3 km/h (2 Bft)
31.05.2023 17:21 21,9 °C 24,8 °C 51 % 37 % 1021,5 hPa 0,0 l/m² 5,5 km/h (2 Bft) N-NO 32 ° 2 min 503 W/m² 9,1 °C 24,8 °C 9,7 km/h (2 Bft)
31.05.2023 17:23 21,9 °C 24,7 °C 51 % 37 % 1021,5 hPa 0,0 l/m² 2,8 km/h (1 Bft) N-NW 348 ° 2 min 373 W/m² 9,0 °C 24,7 °C 6,4 km/h (2 Bft)
31.05.2023 17:24 21,9 °C 24,7 °C 51 % 39 % 1021,6 hPa 0,0 l/m² 4,0 km/h (1 Bft) NO 40 ° 1 min 292 W/m² 9,8 °C 24,7 °C 8,0 km/h (2 Bft)
31.05.2023 17:25 21,9 °C 24,7 °C 51 % 39 % 1021,5 hPa 0,0 l/m² 2,6 km/h (1 Bft) N-NO 19 ° 1 min 290 W/m² 9,8 °C 24,7 °C 8,0 km/h (2 Bft)
31.05.2023 17:26 21,9 °C 24,7 °C 51 % 36 % 1021,5 hPa 0,0 l/m² 4,3 km/h (1 Bft) NO 51 ° 1 min 290 W/m² 8,6 °C 24,7 °C 6,4 km/h (2 Bft)
31.05.2023 17:27 21,9 °C 24,7 °C 51 % 38 % 1021,5 hPa 0,0 l/m² 4,6 km/h (1 Bft) NO 34 ° 1 min 290 W/m² 9,4 °C 24,7 °C 9,7 km/h (2 Bft)
31.05.2023 17:28 21,9 °C 24,7 °C 51 % 39 % 1021,6 hPa 0,0 l/m² 4,5 km/h (1 Bft) N-NW 329 ° 1 min 513 W/m² 9,8 °C 24,7 °C 6,4 km/h (2 Bft)
31.05.2023 17:29 21,9 °C 24,7 °C 51 % 38 % 1021,5 hPa 0,0 l/m² 3,2 km/h (1 Bft) N-NO 25 ° 1 min 487 W/m² 9,4 °C 24,7 °C 4,8 km/h (1 Bft)
31.05.2023 17:31 21,9 °C 24,8 °C 51 % 39 % 1021,5 hPa 0,0 l/m² 4,2 km/h (1 Bft) NO 35 ° 2 min 469 W/m² 9,9 °C 24,8 °C 11,3 km/h (2 Bft)
31.05.2023 17:33 21,8 °C 24,7 °C 51 % 37 % 1021,6 hPa 0,0 l/m² 5,9 km/h (2 Bft) NO 37 ° 2 min 471 W/m² 9,0 °C 24,7 °C 12,9 km/h (3 Bft)
31.05.2023 17:34 21,9 °C 24,7 °C 51 % 36 % 1021,5 hPa 0,0 l/m² 5,1 km/h (1 Bft) N-NO 22 ° 1 min 531 W/m² 8,6 °C 24,7 °C 8,0 km/h (2 Bft)
31.05.2023 17:35 21,8 °C 24,7 °C 51 % 36 % 1021,5 hPa 0,0 l/m² 5,7 km/h (2 Bft) N 355 ° 1 min 559 W/m² 8,6 °C 24,7 °C 9,7 km/h (2 Bft)
31.05.2023 17:36 21,9 °C 24,7 °C 51 % 37 % 1021,5 hPa 0,0 l/m² 6,7 km/h (2 Bft) N-NW 343 ° 1 min 520 W/m² 9,0 °C 24,6 °C 9,7 km/h (2 Bft)
31.05.2023 17:37 21,9 °C 24,7 °C 51 % 37 % 1021,5 hPa 0,0 l/m² 6,5 km/h (2 Bft) N-NO 30 ° 1 min 461 W/m² 9,0 °C 24,7 °C 8,0 km/h (2 Bft)
31.05.2023 17:38 21,8 °C 24,6 °C 51 % 36 % 1021,4 hPa 0,0 l/m² 3,7 km/h (1 Bft) NO 55 ° 1 min 438 W/m² 8,5 °C 24,6 °C 6,4 km/h (2 Bft)
31.05.2023 17:39 21,9 °C 24,6 °C 51 % 37 % 1021,5 hPa 0,0 l/m² 4,3 km/h (1 Bft) N 5 ° 1 min 454 W/m² 8,9 °C 24,6 °C 11,3 km/h (2 Bft)
31.05.2023 17:41 21,9 °C 24,4 °C 51 % 36 % 1021,5 hPa 0,0 l/m² 0,8 km/h (0 Bft) N 355 ° 2 min 417 W/m² 8,4 °C 24,4 °C 6,4 km/h (2 Bft)
31.05.2023 17:43 21,9 °C 24,4 °C 51 % 37 % 1021,4 hPa 0,0 l/m² 1,2 km/h (1 Bft) NW 311 ° 2 min 482 W/m² 8,8 °C 24,4 °C 3,2 km/h (1 Bft)
31.05.2023 17:44 21,9 °C 24,5 °C 50 % 37 % 1021,5 hPa 0,0 l/m² 4,1 km/h (1 Bft) NO 46 ° 1 min 504 W/m² 8,8 °C 24,5 °C 8,0 km/h (2 Bft)
31.05.2023 17:45 21,9 °C 24,7 °C 50 % 38 % 1021,4 hPa 0,0 l/m² 6,2 km/h (2 Bft) N-NO 28 ° 1 min 531 W/m² 9,4 °C 24,7 °C 11,3 km/h (2 Bft)
31.05.2023 17:46 21,8 °C 24,7 °C 50 % 37 % 1021,4 hPa 0,0 l/m² 2,3 km/h (1 Bft) NO 41 ° 1 min 520 W/m² 9,0 °C 24,7 °C 6,4 km/h (2 Bft)
31.05.2023 17:47 21,8 °C 24,7 °C 50 % 37 % 1021,5 hPa 0,0 l/m² 3,4 km/h (1 Bft) NO 53 ° 1 min 490 W/m² 9,0 °C 24,7 °C 8,0 km/h (2 Bft)
31.05.2023 17:48 21,9 °C 24,8 °C 50 % 38 % 1021,4 hPa 0,0 l/m² 5,9 km/h (2 Bft) NO 51 ° 1 min 494 W/m² 9,5 °C 24,8 °C 8,0 km/h (2 Bft)
31.05.2023 17:49 21,8 °C 24,8 °C 50 % 39 % 1021,3 hPa 0,0 l/m² 7,7 km/h (2 Bft) NO 55 ° 1 min 504 W/m² 9,9 °C 24,5 °C 9,7 km/h (2 Bft)
31.05.2023 17:51 21,8 °C 24,8 °C 50 % 37 % 1021,4 hPa 0,0 l/m² 4,2 km/h (1 Bft) NW 317 ° 2 min 547 W/m² 9,1 °C 24,8 °C 6,4 km/h (2 Bft)
31.05.2023 17:53 21,8 °C 24,9 °C 50 % 37 % 1021,4 hPa 0,0 l/m² 3,5 km/h (1 Bft) N-NW 338 ° 2 min 555 W/m² 9,2 °C 24,9 °C 8,0 km/h (2 Bft)
31.05.2023 17:54 21,8 °C 24,9 °C 50 % 36 % 1021,4 hPa 0,0 l/m² 4,4 km/h (1 Bft) NW 323 ° 1 min 545 W/m² 8,8 °C 24,9 °C 8,0 km/h (2 Bft)
31.05.2023 17:55 21,8 °C 24,9 °C 50 % 36 % 1021,3 hPa 0,0 l/m² 9,9 km/h (2 Bft) N-NW 333 ° 1 min 547 W/m² 8,8 °C 24,1 °C 12,9 km/h (3 Bft)
31.05.2023 17:56 21,8 °C 24,9 °C 50 % 37 % 1021,3 hPa 0,0 l/m² 6,2 km/h (2 Bft) N-NW 348 ° 1 min 526 W/m² 9,2 °C 24,9 °C 8,0 km/h (2 Bft)
31.05.2023 17:57 21,9 °C 24,9 °C 50 % 37 % 1021,3 hPa 0,0 l/m² 9,0 km/h (2 Bft) N 11 ° 1 min 512 W/m² 9,2 °C 24,3 °C 12,9 km/h (3 Bft)
31.05.2023 17:58 21,9 °C 24,9 °C 50 % 37 % 1021,3 hPa 0,0 l/m² 7,2 km/h (2 Bft) N-NW 342 ° 1 min 504 W/m² 9,2 °C 24,7 °C 9,7 km/h (2 Bft)
31.05.2023 17:59 21,8 °C 24,9 °C 49 % 37 % 1021,3 hPa 0,0 l/m² 9,7 km/h (2 Bft) N-NW 342 ° 1 min 508 W/m² 9,2 °C 24,1 °C 14,5 km/h (3 Bft)
31.05.2023 18:01 21,9 °C 24,8 °C 49 % 38 % 1021,3 hPa 0,0 l/m² 6,5 km/h (2 Bft) N 350 ° 2 min 494 W/m² 9,5 °C 24,8 °C 12,9 km/h (3 Bft)
31.05.2023 18:03 21,9 °C 24,9 °C 49 % 37 % 1021,3 hPa 0,0 l/m² 5,5 km/h (2 Bft) NW 311 ° 2 min 464 W/m² 9,2 °C 24,9 °C 12,9 km/h (3 Bft)
31.05.2023 18:04 21,8 °C 24,9 °C 49 % 37 % 1021,2 hPa 0,0 l/m² 4,9 km/h (1 Bft) W-NW 299 ° 1 min 431 W/m² 9,2 °C 24,9 °C 9,7 km/h (2 Bft)
31.05.2023 18:05 21,9 °C 24,9 °C 49 % 38 % 1021,3 hPa 0,0 l/m² 11,0 km/h (2 Bft) NW 326 ° 1 min 446 W/m² 9,6 °C 23,9 °C 14,5 km/h (3 Bft)
31.05.2023 18:06 21,9 °C 24,9 °C 49 % 38 % 1021,2 hPa 0,0 l/m² 5,0 km/h (1 Bft) NW 315 ° 1 min 425 W/m² 9,6 °C 24,9 °C 9,7 km/h (2 Bft)
31.05.2023 18:07 21,9 °C 24,9 °C 49 % 38 % 1021,2 hPa 0,0 l/m² 7,6 km/h (2 Bft) N 355 ° 1 min 443 W/m² 9,6 °C 24,6 °C 12,9 km/h (3 Bft)
31.05.2023 18:08 21,9 °C 24,8 °C 49 % 37 % 1021,2 hPa 0,0 l/m² 5,9 km/h (2 Bft) N-NW 344 ° 1 min 434 W/m² 9,1 °C 24,8 °C 12,9 km/h (3 Bft)
31.05.2023 18:09 21,9 °C 24,7 °C 49 % 37 % 1021,2 hPa 0,0 l/m² 6,2 km/h (2 Bft) N-NW 329 ° 1 min 380 W/m² 9,0 °C 24,7 °C 9,7 km/h (2 Bft)
31.05.2023 18:11 21,9 °C 24,6 °C 49 % 37 % 1021,2 hPa 0,0 l/m² 5,5 km/h (2 Bft) N-NW 345 ° 2 min 327 W/m² 8,9 °C 24,6 °C 9,7 km/h (2 Bft)
31.05.2023 18:13 21,9 °C 24,4 °C 49 % 37 % 1021,2 hPa 0,0 l/m² 4,8 km/h (1 Bft) NW 325 ° 2 min 339 W/m² 8,8 °C 24,4 °C 8,0 km/h (2 Bft)
31.05.2023 18:14 21,9 °C 24,3 °C 49 % 37 % 1021,2 hPa 0,0 l/m² 4,1 km/h (1 Bft) N-NW 340 ° 1 min 338 W/m² 8,7 °C 24,3 °C 8,0 km/h (2 Bft)
31.05.2023 18:15 21,9 °C 24,3 °C 48 % 38 % 1021,1 hPa 0,0 l/m² 7,6 km/h (2 Bft) NW 317 ° 1 min 362 W/m² 9,1 °C 24,0 °C 9,7 km/h (2 Bft)
31.05.2023 18:16 21,9 °C 24,3 °C 49 % 38 % 1021,2 hPa 0,0 l/m² 9,1 km/h (2 Bft) NW 321 ° 1 min 380 W/m² 9,1 °C 23,6 °C 14,5 km/h (3 Bft)
31.05.2023 18:17 21,9 °C 24,3 °C 48 % 38 % 1021,2 hPa 0,0 l/m² 8,5 km/h (2 Bft) W-NW 299 ° 1 min 406 W/m² 9,1 °C 23,7 °C 12,9 km/h (3 Bft)
31.05.2023 18:18 21,9 °C 24,3 °C 48 % 38 % 1021,1 hPa 0,0 l/m² 3,9 km/h (1 Bft) W 267 ° 1 min 408 W/m² 9,1 °C 24,3 °C 6,4 km/h (2 Bft)
31.05.2023 18:19 21,9 °C 24,4 °C 48 % 39 % 1021,2 hPa 0,0 l/m² 2,2 km/h (1 Bft) W 265 ° 1 min 404 W/m² 9,5 °C 24,4 °C 4,8 km/h (1 Bft)
31.05.2023 18:21 21,9 °C 24,4 °C 49 % 39 % 1021,0 hPa 0,0 l/m² 2,6 km/h (1 Bft) NW 310 ° 2 min 392 W/m² 9,5 °C 24,4 °C 6,4 km/h (2 Bft)
31.05.2023 18:23 21,9 °C 24,4 °C 49 % 40 % 1021,0 hPa 0,0 l/m² 5,2 km/h (1 Bft) N-NW 344 ° 2 min 390 W/m² 9,9 °C 24,4 °C 14,5 km/h (3 Bft)
31.05.2023 18:24 21,9 °C 24,4 °C 49 % 39 % 1021,0 hPa 0,0 l/m² 8,5 km/h (2 Bft) N-NO 22 ° 1 min 390 W/m² 9,5 °C 23,8 °C 12,9 km/h (3 Bft)
31.05.2023 18:25 21,9 °C 24,4 °C 49 % 38 % 1021,0 hPa 0,0 l/m² 7,4 km/h (2 Bft) NW 318 ° 1 min 388 W/m² 9,2 °C 24,1 °C 9,7 km/h (2 Bft)
31.05.2023 18:26 21,9 °C 24,4 °C 49 % 38 % 1021,1 hPa 0,0 l/m² 7,2 km/h (2 Bft) N-NW 328 ° 1 min 390 W/m² 9,2 °C 24,2 °C 12,9 km/h (3 Bft)
31.05.2023 18:27 21,9 °C 24,4 °C 49 % 38 % 1021,0 hPa 0,0 l/m² 5,6 km/h (2 Bft) N-NW 344 ° 1 min 387 W/m² 9,2 °C 24,4 °C 8,0 km/h (2 Bft)
31.05.2023 18:28 21,9 °C 24,3 °C 49 % 37 % 1021,0 hPa 0,0 l/m² 4,3 km/h (1 Bft) N-NO 17 ° 1 min 380 W/m² 8,7 °C 24,3 °C 8,0 km/h (2 Bft)
31.05.2023 18:29 21,9 °C 24,2 °C 49 % 37 % 1020,9 hPa 0,0 l/m² 1,7 km/h (1 Bft) N 350 ° 1 min 383 W/m² 8,6 °C 24,2 °C 3,2 km/h (1 Bft)
31.05.2023 18:31 21,9 °C 24,2 °C 49 % 38 % 1021,0 hPa 0,0 l/m² 3,3 km/h (1 Bft) NW 317 ° 2 min 373 W/m² 9,0 °C 24,2 °C 6,4 km/h (2 Bft)
31.05.2023 18:33 21,9 °C 24,3 °C 49 % 42 % 1020,9 hPa 0,0 l/m² 2,8 km/h (1 Bft) W 273 ° 2 min 360 W/m² 10,6 °C 24,3 °C 6,4 km/h (2 Bft)
31.05.2023 18:34 21,9 °C 24,4 °C 49 % 38 % 1020,9 hPa 0,0 l/m² 6,1 km/h (2 Bft) NW 315 ° 1 min 355 W/m² 9,2 °C 24,4 °C 8,0 km/h (2 Bft)
31.05.2023 18:35 21,9 °C 24,4 °C 49 % 38 % 1020,9 hPa 0,0 l/m² 5,6 km/h (2 Bft) NW 321 ° 1 min 341 W/m² 9,2 °C 24,4 °C 8,0 km/h (2 Bft)
31.05.2023 18:36 21,9 °C 24,4 °C 49 % 40 % 1020,9 hPa 0,0 l/m² 6,8 km/h (2 Bft) W-NW 294 ° 1 min 336 W/m² 9,9 °C 24,3 °C 12,9 km/h (3 Bft)
31.05.2023 18:37 21,9 °C 24,3 °C 49 % 38 % 1020,9 hPa 0,0 l/m² 4,3 km/h (1 Bft) N-NO 12 ° 1 min 345 W/m² 9,1 °C 24,3 °C 8,0 km/h (2 Bft)
31.05.2023 18:38 21,9 °C 24,3 °C 49 % 38 % 1020,9 hPa 0,0 l/m² 7,3 km/h (2 Bft) NW 309 ° 1 min 339 W/m² 9,1 °C 24,1 °C 11,3 km/h (2 Bft)
31.05.2023 18:39 21,9 °C 24,3 °C 49 % 40 % 1020,9 hPa 0,0 l/m² 6,1 km/h (2 Bft) NW 306 ° 1 min 343 W/m² 9,8 °C 24,3 °C 9,7 km/h (2 Bft)
31.05.2023 18:41 21,9 °C 24,3 °C 49 % 39 % 1020,8 hPa 0,0 l/m² 4,5 km/h (1 Bft) W-NW 294 ° 2 min 325 W/m² 9,4 °C 24,3 °C 12,9 km/h (3 Bft)
31.05.2023 18:43 21,9 °C 24,3 °C 49 % 40 % 1020,8 hPa 0,0 l/m² 3,6 km/h (1 Bft) NW 306 ° 2 min 318 W/m² 9,8 °C 24,3 °C 8,0 km/h (2 Bft)
31.05.2023 18:44 21,9 °C 24,3 °C 49 % 39 % 1020,8 hPa 0,0 l/m² 4,5 km/h (1 Bft) N-NW 337 ° 1 min 271 W/m² 9,4 °C 24,3 °C 6,4 km/h (2 Bft)
31.05.2023 18:46 21,9 °C 24,2 °C 49 % 40 % 1020,8 hPa 0,0 l/m² 5,9 km/h (2 Bft) NW 306 ° 2 min 72 W/m² 9,7 °C 24,2 °C 12,9 km/h (3 Bft)
31.05.2023 18:47 21,9 °C 24,2 °C 49 % 39 % 1020,8 hPa 0,0 l/m² 4,3 km/h (1 Bft) N-NO 17 ° 1 min 74 W/m² 9,4 °C 24,2 °C 6,4 km/h (2 Bft)
31.05.2023 18:48 21,9 °C 24,2 °C 49 % 39 % 1020,8 hPa 0,0 l/m² 7,5 km/h (2 Bft) W 269 ° 1 min 70 W/m² 9,4 °C 23,9 °C 14,5 km/h (3 Bft)
31.05.2023 18:49 21,9 °C 24,2 °C 49 % 39 % 1020,8 hPa 0,0 l/m² 5,7 km/h (2 Bft) NW 306 ° 1 min 70 W/m² 9,4 °C 24,2 °C 11,3 km/h (2 Bft)
31.05.2023 18:51 21,9 °C 24,2 °C 50 % 38 % 1020,7 hPa 0,0 l/m² 4,8 km/h (1 Bft) N-NW 340 ° 2 min 60 W/m² 9,0 °C 24,2 °C 8,0 km/h (2 Bft)
31.05.2023 18:53 21,9 °C 24,2 °C 50 % 38 % 1020,7 hPa 0,0 l/m² 4,3 km/h (1 Bft) NW 316 ° 2 min 58 W/m² 9,0 °C 24,2 °C 9,7 km/h (2 Bft)
31.05.2023 18:54 21,9 °C 24,2 °C 50 % 39 % 1020,7 hPa 0,0 l/m² 3,5 km/h (1 Bft) NW 313 ° 1 min 58 W/m² 9,4 °C 24,2 °C 6,4 km/h (2 Bft)
31.05.2023 18:55 21,9 °C 24,2 °C 50 % 40 % 1020,7 hPa 0,0 l/m² 7,7 km/h (2 Bft) NW 307 ° 1 min 60 W/m² 9,7 °C 23,8 °C 12,9 km/h (3 Bft)
31.05.2023 18:56 21,9 °C 24,2 °C 50 % 40 % 1020,6 hPa 0,0 l/m² 6,6 km/h (2 Bft) NW 312 ° 1 min 56 W/m² 9,7 °C 24,2 °C 9,7 km/h (2 Bft)
31.05.2023 18:57 21,9 °C 24,2 °C 50 % 38 % 1020,7 hPa 0,0 l/m² 4,3 km/h (1 Bft) NW 325 ° 1 min 58 W/m² 9,0 °C 24,2 °C 8,0 km/h (2 Bft)
31.05.2023 18:58 21,9 °C 24,2 °C 50 % 40 % 1020,6 hPa 0,0 l/m² 7,3 km/h (2 Bft) N-NW 327 ° 1 min 62 W/m² 9,7 °C 23,9 °C 14,5 km/h (3 Bft)
31.05.2023 18:59 21,9 °C 24,2 °C 50 % 39 % 1020,7 hPa 0,0 l/m² 7,0 km/h (2 Bft) NW 319 ° 1 min 54 W/m² 9,4 °C 24,0 °C 8,0 km/h (2 Bft)
31.05.2023 19:00 21,9 °C 24,2 °C 50 % 38 % 1020,7 hPa 0,0 l/m² 7,0 km/h (2 Bft) N-NW 348 ° 1 min 53 W/m² 9,0 °C 24,0 °C 12,9 km/h (3 Bft)
31.05.2023 19:02 21,9 °C 24,1 °C 50 % 39 % 1020,7 hPa 0,0 l/m² 5,8 km/h (2 Bft) N-NW 339 ° 0 min 51 W/m² 9,3 °C 24,1 °C 12,9 km/h (3 Bft)
31.05.2023 19:03 21,9 °C 24,1 °C 50 % 39 % 1020,7 hPa 0,0 l/m² 7,0 km/h (2 Bft) NW 323 ° 0 min 49 W/m² 9,3 °C 23,9 °C 9,7 km/h (2 Bft)
31.05.2023 19:04 21,9 °C 24,1 °C 50 % 40 % 1020,7 hPa 0,0 l/m² 5,4 km/h (2 Bft) N-NW 332 ° 0 min 49 W/m² 9,6 °C 24,1 °C 11,3 km/h (2 Bft)
31.05.2023 19:05 21,8 °C 24,1 °C 50 % 38 % 1020,6 hPa 0,0 l/m² 6,5 km/h (2 Bft) N-NW 339 ° 0 min 49 W/m² 8,9 °C 24,1 °C 9,7 km/h (2 Bft)
31.05.2023 19:06 21,8 °C 24,1 °C 50 % 39 % 1020,6 hPa 0,0 l/m² 4,8 km/h (1 Bft) N-NW 340 ° 0 min 47 W/m² 9,3 °C 24,1 °C 8,0 km/h (2 Bft)
31.05.2023 19:07 21,8 °C 24,0 °C 50 % 38 % 1020,6 hPa 0,0 l/m² 6,4 km/h (2 Bft) N 350 ° 0 min 47 W/m² 8,8 °C 24,0 °C 8,0 km/h (2 Bft)
31.05.2023 19:08 21,8 °C 23,9 °C 50 % 37 % 1020,6 hPa 0,0 l/m² 7,7 km/h (2 Bft) W-NW 296 ° 0 min 47 W/m² 8,3 °C 23,5 °C 8,0 km/h (2 Bft)
31.05.2023 19:09 21,8 °C 23,9 °C 50 % 38 % 1020,6 hPa 0,0 l/m² 6,1 km/h (2 Bft) NW 322 ° 0 min 46 W/m² 8,7 °C 23,9 °C 8,0 km/h (2 Bft)
31.05.2023 19:11 21,8 °C 23,8 °C 50 % 38 % 1020,6 hPa 0,0 l/m² 7,9 km/h (2 Bft) N 5 ° 0 min 46 W/m² 8,6 °C 23,4 °C 12,9 km/h (3 Bft)
31.05.2023 19:13 21,8 °C 23,8 °C 50 % 38 % 1020,6 hPa 0,0 l/m² 4,2 km/h (1 Bft) NW 323 ° 0 min 44 W/m² 8,6 °C 23,8 °C 8,0 km/h (2 Bft)
31.05.2023 19:14 21,8 °C 23,8 °C 50 % 38 % 1020,6 hPa 0,0 l/m² 1,4 km/h (1 Bft) NW 313 ° 0 min 44 W/m² 8,6 °C 23,8 °C 3,2 km/h (1 Bft)
31.05.2023 19:15 21,8 °C 23,8 °C 50 % 40 % 1020,6 hPa 0,0 l/m² 5,6 km/h (2 Bft) NW 313 ° 0 min 44 W/m² 9,4 °C 23,8 °C 12,9 km/h (3 Bft)
31.05.2023 19:17 21,8 °C 23,8 °C 50 % 39 % 1020,5 hPa 0,0 l/m² 2,8 km/h (1 Bft) NW 317 ° 0 min 42 W/m² 9,0 °C 23,8 °C 9,7 km/h (2 Bft)
31.05.2023 19:18 21,8 °C 23,8 °C 50 % 39 % 1020,5 hPa 0,0 l/m² 4,2 km/h (1 Bft) NW 326 ° 0 min 42 W/m² 9,0 °C 23,8 °C 6,4 km/h (2 Bft)
31.05.2023 19:19 21,8 °C 23,8 °C 50 % 39 % 1020,5 hPa 0,0 l/m² 3,9 km/h (1 Bft) N-NW 331 ° 0 min 40 W/m² 9,0 °C 23,8 °C 6,4 km/h (2 Bft)
31.05.2023 19:21 21,8 °C 23,7 °C 51 % 40 % 1020,5 hPa 0,0 l/m² 4,0 km/h (1 Bft) N-NW 339 ° 0 min 40 W/m² 9,3 °C 23,7 °C 6,4 km/h (2 Bft)
31.05.2023 19:23 21,8 °C 23,7 °C 51 % 41 % 1020,5 hPa 0,0 l/m² 3,3 km/h (1 Bft) NW 313 ° 0 min 39 W/m² 9,7 °C 23,7 °C 4,8 km/h (1 Bft)
31.05.2023 19:24 21,8 °C 23,7 °C 51 % 40 % 1020,5 hPa 0,0 l/m² 2,2 km/h (1 Bft) NW 321 ° 0 min 39 W/m² 9,3 °C 23,7 °C 4,8 km/h (1 Bft)
31.05.2023 19:25 21,8 °C 23,6 °C 51 % 40 % 1020,5 hPa 0,0 l/m² 3,1 km/h (1 Bft) N-NW 336 ° 0 min 39 W/m² 9,2 °C 23,6 °C 4,8 km/h (1 Bft)
31.05.2023 19:26 21,8 °C 23,6 °C 51 % 40 % 1020,5 hPa 0,0 l/m² 5,2 km/h (1 Bft) N-NW 331 ° 0 min 39 W/m² 9,2 °C 23,6 °C 8,0 km/h (2 Bft)
31.05.2023 19:27 21,8 °C 23,4 °C 51 % 40 % 1020,5 hPa 0,0 l/m² 5,8 km/h (2 Bft) NW 325 ° 0 min 39 W/m² 9,0 °C 23,4 °C 8,0 km/h (2 Bft)
31.05.2023 19:28 21,8 °C 23,4 °C 51 % 40 % 1020,5 hPa 0,0 l/m² 4,5 km/h (1 Bft) NW 307 ° 0 min 39 W/m² 9,0 °C 23,4 °C 8,0 km/h (2 Bft)
31.05.2023 19:29 21,8 °C 23,3 °C 51 % 41 % 1020,5 hPa 0,0 l/m² 3,5 km/h (1 Bft) NW 306 ° 0 min 39 W/m² 9,3 °C 23,3 °C 4,8 km/h (1 Bft)
31.05.2023 19:30 21,8 °C 23,2 °C 52 % 41 % 1020,5 hPa 0,0 l/m² 2,7 km/h (1 Bft) NW 325 ° 0 min 39 W/m² 9,2 °C 23,2 °C 6,4 km/h (2 Bft)
31.05.2023 19:32 21,8 °C 23,1 °C 52 % 41 % 1020,4 hPa 0,0 l/m² 5,7 km/h (2 Bft) N-NW 338 ° 0 min 37 W/m² 9,1 °C 23,1 °C 9,7 km/h (2 Bft)
31.05.2023 19:33 21,8 °C 23,1 °C 52 % 42 % 1020,5 hPa 0,0 l/m² 5,6 km/h (2 Bft) NW 318 ° 0 min 37 W/m² 9,5 °C 23,1 °C 12,9 km/h (3 Bft)
31.05.2023 19:34 21,8 °C 22,9 °C 52 % 40 % 1020,4 hPa 0,0 l/m² 6,0 km/h (2 Bft) N-NW 327 ° 0 min 37 W/m² 8,6 °C 22,9 °C 9,7 km/h (2 Bft)
31.05.2023 19:35 21,8 °C 22,9 °C 52 % 41 % 1020,5 hPa 0,0 l/m² 5,5 km/h (2 Bft) NW 313 ° 0 min 35 W/m² 8,9 °C 22,9 °C 6,4 km/h (2 Bft)
31.05.2023 19:36 21,8 °C 22,8 °C 52 % 42 % 1020,4 hPa 0,0 l/m² 4,7 km/h (1 Bft) NW 314 ° 0 min 35 W/m² 9,2 °C 22,8 °C 6,4 km/h (2 Bft)
31.05.2023 19:37 21,8 °C 22,8 °C 52 % 41 % 1020,4 hPa 0,0 l/m² 1,6 km/h (1 Bft) NW 323 ° 0 min 33 W/m² 8,9 °C 22,8 °C 3,2 km/h (1 Bft)
31.05.2023 19:38 21,8 °C 22,7 °C 52 % 42 % 1020,4 hPa 0,0 l/m² 5,6 km/h (2 Bft) N-NW 344 ° 0 min 33 W/m² 9,1 °C 22,7 °C 8,0 km/h (2 Bft)
31.05.2023 19:39 21,8 °C 22,7 °C 52 % 41 % 1020,5 hPa 0,0 l/m² 4,9 km/h (1 Bft) N-NW 331 ° 0 min 33 W/m² 8,8 °C 22,7 °C 6,4 km/h (2 Bft)
31.05.2023 19:41 21,8 °C 22,5 °C 52 % 42 % 1020,4 hPa 0,0 l/m² 4,5 km/h (1 Bft) NW 320 ° 0 min 33 W/m² 8,9 °C 22,5 °C 8,0 km/h (2 Bft)
31.05.2023 19:43 21,8 °C 22,3 °C 52 % 44 % 1020,4 hPa 0,0 l/m² 3,0 km/h (1 Bft) N-NW 329 ° 0 min 35 W/m² 9,5 °C 22,3 °C 4,8 km/h (1 Bft)
31.05.2023 19:44 21,8 °C 22,2 °C 52 % 44 % 1020,5 hPa 0,0 l/m² 3,1 km/h (1 Bft) N-NW 348 ° 0 min 35 W/m² 9,4 °C 22,2 °C 4,8 km/h (1 Bft)
31.05.2023 19:45 21,8 °C 22,2 °C 52 % 43 % 1020,4 hPa 0,0 l/m² 3,4 km/h (1 Bft) N-NW 334 ° 0 min 37 W/m² 9,0 °C 22,2 °C 4,8 km/h (1 Bft)
31.05.2023 19:46 21,8 °C 22,1 °C 52 % 46 % 1020,3 hPa 0,0 l/m² 2,7 km/h (1 Bft) NW 311 ° 0 min 39 W/m² 9,9 °C 22,1 °C 4,8 km/h (1 Bft)
31.05.2023 19:47 21,8 °C 22,0 °C 52 % 46 % 1020,4 hPa 0,0 l/m² 2,9 km/h (1 Bft) N-NW 334 ° 0 min 39 W/m² 9,8 °C 22,0 °C 4,8 km/h (1 Bft)
31.05.2023 19:48 21,8 °C 22,0 °C 52 % 46 % 1020,3 hPa 0,0 l/m² 4,1 km/h (1 Bft) NW 317 ° 0 min 40 W/m² 9,8 °C 22,0 °C 4,8 km/h (1 Bft)
31.05.2023 19:49 21,8 °C 21,9 °C 52 % 47 % 1020,4 hPa 0,0 l/m² 2,3 km/h (1 Bft) NW 317 ° 0 min 40 W/m² 10,1 °C 21,9 °C 4,8 km/h (1 Bft)
31.05.2023 19:51 21,8 °C 21,8 °C 52 % 47 % 1020,2 hPa 0,0 l/m² 2,2 km/h (1 Bft) N-NW 329 ° 0 min 40 W/m² 10,0 °C 21,8 °C 4,8 km/h (1 Bft)
31.05.2023 19:53 21,8 °C 21,7 °C 52 % 48 % 1020,3 hPa 0,0 l/m² 2,5 km/h (1 Bft) N-NW 346 ° 0 min 40 W/m² 10,2 °C 21,7 °C 4,8 km/h (1 Bft)
31.05.2023 19:54 21,8 °C 21,7 °C 52 % 47 % 1020,2 hPa 0,0 l/m² 2,6 km/h (1 Bft) N-NW 327 ° 0 min 40 W/m² 9,9 °C 21,7 °C 4,8 km/h (1 Bft)
31.05.2023 19:55 21,8 °C 21,7 °C 52 % 47 % 1020,2 hPa 0,0 l/m² 2,8 km/h (1 Bft) NW 312 ° 0 min 39 W/m² 9,9 °C 21,7 °C 4,8 km/h (1 Bft)
31.05.2023 19:56 21,8 °C 21,7 °C 52 % 48 % 1020,1 hPa 0,0 l/m² 2,7 km/h (1 Bft) N-NW 329 ° 0 min 39 W/m² 10,2 °C 21,7 °C 3,2 km/h (1 Bft)
31.05.2023 19:57 21,8 °C 21,7 °C 52 % 48 % 1020,1 hPa 0,0 l/m² 2,2 km/h (1 Bft) NW 314 ° 0 min 39 W/m² 10,2 °C 21,7 °C 4,8 km/h (1 Bft)
31.05.2023 19:58 21,8 °C 21,6 °C 53 % 49 % 1020,1 hPa 0,0 l/m² 3,3 km/h (1 Bft) NW 319 ° 0 min 39 W/m² 10,4 °C 21,6 °C 4,8 km/h (1 Bft)
31.05.2023 19:59 21,8 °C 21,6 °C 53 % 50 % 1020,2 hPa 0,0 l/m² 2,0 km/h (1 Bft) N-NW 328 ° 0 min 39 W/m² 10,7 °C 21,6 °C 3,2 km/h (1 Bft)
31.05.2023 20:01 21,8 °C 21,5 °C 53 % 50 % 1020,2 hPa 0,0 l/m² 2,1 km/h (1 Bft) NW 319 ° 0 min 37 W/m² 10,6 °C 21,5 °C 4,8 km/h (1 Bft)
31.05.2023 20:03 21,8 °C 21,4 °C 53 % 50 % 1020,1 hPa 0,0 l/m² 2,4 km/h (1 Bft) N-NW 328 ° 0 min 35 W/m² 10,5 °C 21,4 °C 4,8 km/h (1 Bft)
31.05.2023 20:04 21,7 °C 21,3 °C 53 % 49 % 1020,2 hPa 0,0 l/m² 3,3 km/h (1 Bft) N-NW 341 ° 0 min 35 W/m² 10,1 °C 21,3 °C 4,8 km/h (1 Bft)
31.05.2023 20:05 21,8 °C 21,3 °C 53 % 50 % 1020,2 hPa 0,0 l/m² 2,6 km/h (1 Bft) N-NW 333 ° 0 min 35 W/m² 10,4 °C 21,3 °C 4,8 km/h (1 Bft)
31.05.2023 20:06 21,7 °C 21,3 °C 53 % 51 % 1020,2 hPa 0,0 l/m² 0,8 km/h (0 Bft) NW 319 ° 0 min 33 W/m² 10,7 °C 21,3 °C 3,2 km/h (1 Bft)
31.05.2023 20:07 21,7 °C 21,2 °C 53 % 50 % 1020,2 hPa 0,0 l/m² 2,2 km/h (1 Bft) NW 325 ° 0 min 33 W/m² 10,4 °C 21,2 °C 3,2 km/h (1 Bft)
31.05.2023 20:08 21,8 °C 21,2 °C 53 % 51 % 1020,2 hPa 0,0 l/m² 2,3 km/h (1 Bft) W-NW 296 ° 0 min 33 W/m² 10,7 °C 21,2 °C 3,2 km/h (1 Bft)
31.05.2023 20:09 21,8 °C 21,2 °C 53 % 50 % 1020,1 hPa 0,0 l/m² 3,1 km/h (1 Bft) N-NW 345 ° 0 min 33 W/m² 10,4 °C 21,2 °C 4,8 km/h (1 Bft)
31.05.2023 20:11 21,7 °C 21,1 °C 53 % 50 % 1020,2 hPa 0,0 l/m² 3,0 km/h (1 Bft) NW 319 ° 0 min 32 W/m² 10,3 °C 21,1 °C 4,8 km/h (1 Bft)
31.05.2023 20:13 21,8 °C 20,9 °C 53 % 51 % 1020,2 hPa 0,0 l/m² 3,2 km/h (1 Bft) NW 313 ° 0 min 32 W/m² 10,4 °C 20,9 °C 4,8 km/h (1 Bft)
31.05.2023 20:14 21,7 °C 20,8 °C 53 % 51 % 1020,1 hPa 0,0 l/m² 3,4 km/h (1 Bft) NW 308 ° 0 min 30 W/m² 10,3 °C 20,8 °C 4,8 km/h (1 Bft)
31.05.2023 20:15 21,7 °C 20,7 °C 53 % 51 % 1020,1 hPa 0,0 l/m² 4,2 km/h (1 Bft) NW 316 ° 0 min 30 W/m² 10,2 °C 20,7 °C 4,8 km/h (1 Bft)
31.05.2023 20:16 21,7 °C 20,7 °C 53 % 52 % 1020,2 hPa 0,0 l/m² 3,5 km/h (1 Bft) W-NW 299 ° 0 min 30 W/m² 10,5 °C 20,7 °C 6,4 km/h (2 Bft)
31.05.2023 20:17 21,7 °C 20,6 °C 53 % 52 % 1020,1 hPa 0,0 l/m² 3,1 km/h (1 Bft) NW 323 ° 0 min 30 W/m² 10,4 °C 20,6 °C 4,8 km/h (1 Bft)
31.05.2023 20:18 21,7 °C 20,5 °C 53 % 52 % 1020,0 hPa 0,0 l/m² 3,3 km/h (1 Bft) NW 324 ° 0 min 30 W/m² 10,3 °C 20,5 °C 4,8 km/h (1 Bft)
31.05.2023 20:19 21,7 °C 20,4 °C 53 % 51 % 1020,1 hPa 0,0 l/m² 3,5 km/h (1 Bft) NW 323 ° 0 min 30 W/m² 9,9 °C 20,4 °C 4,8 km/h (1 Bft)
31.05.2023 20:21 21,8 °C 20,4 °C 53 % 52 % 1020,1 hPa 0,0 l/m² 2,6 km/h (1 Bft) NW 324 ° 0 min 28 W/m² 10,2 °C 20,4 °C 4,8 km/h (1 Bft)
31.05.2023 20:23 21,7 °C 20,2 °C 53 % 52 % 1020,1 hPa 0,0 l/m² 1,0 km/h (0 Bft) NW 321 ° 0 min 28 W/m² 10,0 °C 20,2 °C 3,2 km/h (1 Bft)
31.05.2023 20:24 21,7 °C 20,1 °C 53 % 53 % 1020,1 hPa 0,0 l/m² 1,9 km/h (1 Bft) NW 324 ° 0 min 28 W/m² 10,2 °C 20,1 °C 3,2 km/h (1 Bft)
31.05.2023 20:25 21,7 °C 20,1 °C 53 % 52 % 1020,1 hPa 0,0 l/m² 2,6 km/h (1 Bft) NW 309 ° 0 min 28 W/m² 9,9 °C 20,1 °C 3,2 km/h (1 Bft)
31.05.2023 20:26 21,7 °C 20,1 °C 53 % 52 % 1020,1 hPa 0,0 l/m² 2,3 km/h (1 Bft) NW 317 ° 0 min 26 W/m² 9,9 °C 20,1 °C 3,2 km/h (1 Bft)
31.05.2023 20:27 21,7 °C 20,1 °C 53 % 53 % 1020,1 hPa 0,0 l/m² 1,5 km/h (1 Bft) NW 315 ° 0 min 26 W/m² 10,2 °C 20,1 °C 3,2 km/h (1 Bft)
31.05.2023 20:28 21,7 °C 20,0 °C 53 % 53 % 1020,1 hPa 0,0 l/m² 1,6 km/h (1 Bft) NW 321 ° 0 min 26 W/m² 10,1 °C 20,0 °C 3,2 km/h (1 Bft)
31.05.2023 20:29 21,7 °C 19,9 °C 53 % 52 % 1020,1 hPa 0,0 l/m² 1,4 km/h (1 Bft) NW 320 ° 0 min 25 W/m² 9,7 °C 19,9 °C 3,2 km/h (1 Bft)
31.05.2023 20:31 21,7 °C 19,9 °C 53 % 53 % 1020,1 hPa 0,0 l/m² 1,8 km/h (1 Bft) NW 326 ° 0 min 25 W/m² 10,0 °C 19,9 °C 3,2 km/h (1 Bft)
31.05.2023 20:33 21,8 °C 19,8 °C 53 % 53 % 1020,0 hPa 0,0 l/m² 2,0 km/h (1 Bft) N-NW 332 ° 0 min 23 W/m² 9,9 °C 19,8 °C 3,2 km/h (1 Bft)
31.05.2023 20:34 21,8 °C 19,8 °C 53 % 53 % 1020,0 hPa 0,0 l/m² 2,4 km/h (1 Bft) NW 326 ° 0 min 23 W/m² 9,9 °C 19,8 °C 3,2 km/h (1 Bft)
31.05.2023 20:35 21,7 °C 19,8 °C 53 % 53 % 1020,1 hPa 0,0 l/m² 2,4 km/h (1 Bft) W-NW 303 ° 0 min 21 W/m² 9,9 °C 19,8 °C 3,2 km/h (1 Bft)
31.05.2023 20:36 21,8 °C 19,8 °C 53 % 53 % 1020,1 hPa 0,0 l/m² 1,9 km/h (1 Bft) NW 309 ° 0 min 21 W/m² 9,9 °C 19,8 °C 3,2 km/h (1 Bft)
31.05.2023 20:37 21,8 °C 19,7 °C 53 % 54 % 1020,1 hPa 0,0 l/m² 1,6 km/h (1 Bft) NW 315 ° 0 min 21 W/m² 10,1 °C 19,7 °C 3,2 km/h (1 Bft)
31.05.2023 20:38 21,8 °C 19,6 °C 54 % 55 % 1020,0 hPa 0,0 l/m² 2,4 km/h (1 Bft) NW 308 ° 0 min 19 W/m² 10,3 °C 19,6 °C 4,8 km/h (1 Bft)
31.05.2023 20:39 21,8 °C 19,4 °C 54 % 57 % 1020,0 hPa 0,0 l/m² 2,5 km/h (1 Bft) NW 308 ° 0 min 19 W/m² 10,7 °C 19,4 °C 3,2 km/h (1 Bft)
31.05.2023 20:40 21,8 °C 19,3 °C 54 % 58 % 1020,0 hPa 0,0 l/m² 0,9 km/h (0 Bft) NW 310 ° 0 min 19 W/m² 10,8 °C 19,3 °C 3,2 km/h (1 Bft)
31.05.2023 20:42 21,8 °C 18,7 °C 54 % 61 % 1020,0 hPa 0,0 l/m² 1,7 km/h (1 Bft) NW 321 ° 0 min 18 W/m² 11,0 °C 18,7 °C 3,2 km/h (1 Bft)
31.05.2023 20:43 21,8 °C 18,6 °C 54 % 62 % 1020,1 hPa 0,0 l/m² 1,2 km/h (1 Bft) NW 324 ° 0 min 18 W/m² 11,2 °C 18,6 °C 3,2 km/h (1 Bft)
31.05.2023 20:44 21,8 °C 18,3 °C 54 % 63 % 1020,0 hPa 0,0 l/m² 3,1 km/h (1 Bft) W-NW 296 ° 0 min 16 W/m² 11,1 °C 18,3 °C 4,8 km/h (1 Bft)
31.05.2023 20:45 21,8 °C 18,2 °C 54 % 64 % 1020,0 hPa 0,0 l/m² 0,9 km/h (0 Bft) W-NW 296 ° 0 min 16 W/m² 11,3 °C 18,2 °C 3,2 km/h (1 Bft)
31.05.2023 20:46 21,8 °C 17,9 °C 54 % 66 % 1020,0 hPa 0,0 l/m² 0,3 km/h (0 Bft) W-NW 296 ° 0 min 16 W/m² 11,5 °C 17,9 °C 1,6 km/h (1 Bft)
31.05.2023 20:47 21,8 °C 17,6 °C 54 % 68 % 1020,0 hPa 0,0 l/m² 0,0 km/h (0 Bft) W-NW 296 ° 0 min 16 W/m² 11,6 °C 17,6 °C 0,0 km/h (0 Bft)
31.05.2023 20:48 21,8 °C 17,3 °C 54 % 68 % 1020,0 hPa 0,0 l/m² 0,0 km/h (0 Bft) W-NW 296 ° 0 min 14 W/m² 11,3 °C 17,3 °C 0,0 km/h (0 Bft)
31.05.2023 20:49 21,8 °C 17,1 °C 54 % 69 % 1020,1 hPa 0,0 l/m² 0,0 km/h (0 Bft) W-NW 296 ° 0 min 14 W/m² 11,4 °C 17,1 °C 0,0 km/h (0 Bft)
31.05.2023 20:51 21,8 °C 16,7 °C 54 % 71 % 1020,1 hPa 0,0 l/m² 0,0 km/h (0 Bft) W-NW 291 ° 0 min 14 W/m² 11,4 °C 16,7 °C 0,0 km/h (0 Bft)
31.05.2023 20:53 21,8 °C 16,6 °C 54 % 71 % 1020,0 hPa 0,0 l/m² 0,8 km/h (0 Bft) W 266 ° 0 min 14 W/m² 11,3 °C 16,6 °C 3,2 km/h (1 Bft)
31.05.2023 20:54 21,8 °C 16,6 °C 54 % 70 % 1020,1 hPa 0,0 l/m² 0,0 km/h (0 Bft) W 266 ° 0 min 14 W/m² 11,1 °C 16,6 °C 0,0 km/h (0 Bft)
31.05.2023 20:55 21,8 °C 16,6 °C 54 % 71 % 1020,1 hPa 0,0 l/m² 0,0 km/h (0 Bft) W 266 ° 0 min 12 W/m² 11,3 °C 16,6 °C 0,0 km/h (0 Bft)
31.05.2023 20:56 21,8 °C 16,4 °C 54 % 71 % 1020,1 hPa 0,0 l/m² 0,0 km/h (0 Bft) W 266 ° 0 min 12 W/m² 11,1 °C 16,4 °C 0,0 km/h (0 Bft)
31.05.2023 20:57 21,8 °C 16,4 °C 54 % 72 % 1020,1 hPa 0,0 l/m² 0,0 km/h (0 Bft) W 266 ° 0 min 12 W/m² 11,3 °C 16,4 °C 0,0 km/h (0 Bft)
31.05.2023 20:58 21,8 °C 16,3 °C 54 % 72 % 1020,1 hPa 0,0 l/m² 0,0 km/h (0 Bft) W 266 ° 0 min 12 W/m² 11,2 °C 16,3 °C 0,0 km/h (0 Bft)
31.05.2023 20:59 21,8 °C 16,2 °C 54 % 72 % 1020,0 hPa 0,0 l/m² 0,0 km/h (0 Bft) W 266 ° 0 min 12 W/m² 11,1 °C 16,2 °C 0,0 km/h (0 Bft)
31.05.2023 21:01 21,8 °C 16,1 °C 54 % 73 % 1020,1 hPa 0,0 l/m² 0,0 km/h (0 Bft) W 266 ° 0 min 11 W/m² 11,3 °C 16,1 °C 0,0 km/h (0 Bft)
31.05.2023 21:03 21,8 °C 16,1 °C 54 % 73 % 1020,1 hPa 0,0 l/m² 0,0 km/h (0 Bft) W 266 ° 0 min 11 W/m² 11,3 °C 16,1 °C 0,0 km/h (0 Bft)
31.05.2023 21:04 21,8 °C 16,2 °C 54 % 74 % 1020,1 hPa 0,0 l/m² 0,6 km/h (0 Bft) W 266 ° 0 min 9 W/m² 11,6 °C 16,2 °C 1,6 km/h (1 Bft)
31.05.2023 21:05 21,8 °C 16,1 °C 54 % 74 % 1020,1 hPa 0,0 l/m² 0,9 km/h (0 Bft) W 266 ° 0 min 9 W/m² 11,5 °C 16,1 °C 1,6 km/h (1 Bft)
31.05.2023 21:06 21,8 °C 16,1 °C 54 % 74 % 1020,0 hPa 0,0 l/m² 1,5 km/h (1 Bft) W 266 ° 0 min 9 W/m² 11,5 °C 16,1 °C 1,6 km/h (1 Bft)
31.05.2023 21:07 21,8 °C 16,1 °C 54 % 74 % 1020,0 hPa 0,0 l/m² 1,1 km/h (1 Bft) W 266 ° 0 min 9 W/m² 11,5 °C 16,1 °C 1,6 km/h (1 Bft)
31.05.2023 21:08 21,8 °C 16,1 °C 54 % 75 % 1020,1 hPa 0,0 l/m² 0,0 km/h (0 Bft) W 266 ° 0 min 7 W/m² 11,7 °C 16,1 °C 0,0 km/h (0 Bft)
31.05.2023 21:09 21,8 °C 16,1 °C 54 % 75 % 1020,0 hPa 0,0 l/m² 0,6 km/h (0 Bft) W 266 ° 0 min 7 W/m² 11,7 °C 16,1 °C 1,6 km/h (1 Bft)
31.05.2023 21:10 21,8 °C 16,1 °C 54 % 75 % 1020,1 hPa 0,0 l/m² 0,0 km/h (0 Bft) W 266 ° 0 min 7 W/m² 11,7 °C 16,1 °C 0,0 km/h (0 Bft)
31.05.2023 21:12 21,8 °C 16,1 °C 54 % 75 % 1020,0 hPa 0,0 l/m² 0,5 km/h (0 Bft) W 266 ° 0 min 7 W/m² 11,7 °C 16,1 °C 1,6 km/h (1 Bft)
31.05.2023 21:13 21,8 °C 16,1 °C 54 % 75 % 1020,0 hPa 0,0 l/m² 0,1 km/h (0 Bft) W 266 ° 0 min 5 W/m² 11,7 °C 16,1 °C 1,6 km/h (1 Bft)
31.05.2023 21:14 21,8 °C 16,0 °C 54 % 75 % 1020,1 hPa 0,0 l/m² 0,0 km/h (0 Bft) W 266 ° 0 min 5 W/m² 11,6 °C 16,0 °C 0,0 km/h (0 Bft)
31.05.2023 21:15 21,8 °C 16,0 °C 54 % 75 % 1020,1 hPa 0,0 l/m² 0,3 km/h (0 Bft) W 266 ° 0 min 5 W/m² 11,6 °C 16,0 °C 1,6 km/h (1 Bft)
31.05.2023 21:17 21,8 °C 15,9 °C 54 % 73 % 1020,1 hPa 0,0 l/m² 0,3 km/h (0 Bft) W 266 ° 0 min 5 W/m² 11,1 °C 15,9 °C 1,6 km/h (1 Bft)
31.05.2023 21:18 21,8 °C 15,8 °C 54 % 73 % 1020,1 hPa 0,0 l/m² 0,4 km/h (0 Bft) W 266 ° 0 min 5 W/m² 11,0 °C 15,8 °C 1,6 km/h (1 Bft)
31.05.2023 21:19 21,8 °C 15,8 °C 54 % 73 % 1020,0 hPa 0,0 l/m² 0,1 km/h (0 Bft) W 266 ° 0 min 5 W/m² 11,0 °C 15,8 °C 1,6 km/h (1 Bft)
31.05.2023 21:21 21,8 °C 15,7 °C 54 % 72 % 1020,0 hPa 0,0 l/m² 1,2 km/h (1 Bft) W 266 ° 0 min 5 W/m² 10,7 °C 15,7 °C 3,2 km/h (1 Bft)
31.05.2023 21:23 21,8 °C 15,4 °C 54 % 72 % 1020,1 hPa 0,0 l/m² 0,5 km/h (0 Bft) W 266 ° 0 min 0 W/m² 10,4 °C 15,4 °C 3,2 km/h (1 Bft)
31.05.2023 21:24 21,8 °C 15,4 °C 54 % 72 % 1020,0 hPa 0,0 l/m² 1,4 km/h (1 Bft) W 266 ° 0 min 0 W/m² 10,4 °C 15,4 °C 3,2 km/h (1 Bft)
31.05.2023 21:25 21,8 °C 15,3 °C 54 % 73 % 1020,0 hPa 0,0 l/m² 2,6 km/h (1 Bft) W 266 ° 0 min 0 W/m² 10,5 °C 15,3 °C 3,2 km/h (1 Bft)
31.05.2023 21:27 21,8 °C 15,2 °C 54 % 73 % 1020,0 hPa 0,0 l/m² 2,0 km/h (1 Bft) W 266 ° 0 min 0 W/m² 10,4 °C 15,2 °C 3,2 km/h (1 Bft)
31.05.2023 21:28 21,8 °C 15,1 °C 54 % 73 % 1020,0 hPa 0,0 l/m² 1,9 km/h (1 Bft) W 266 ° 0 min 0 W/m² 10,3 °C 15,1 °C 3,2 km/h (1 Bft)
31.05.2023 21:29 21,8 °C 15,1 °C 54 % 73 % 1020,0 hPa 0,0 l/m² 1,5 km/h (1 Bft) W 266 ° 0 min 0 W/m² 10,3 °C 15,1 °C 3,2 km/h (1 Bft)
31.05.2023 21:31 21,8 °C 14,9 °C 54 % 74 % 1020,1 hPa 0,0 l/m² 1,2 km/h (1 Bft) W 266 ° 0 min 0 W/m² 10,3 °C 14,9 °C 1,6 km/h (1 Bft)
31.05.2023 21:33 21,8 °C 14,9 °C 54 % 74 % 1020,1 hPa 0,0 l/m² 0,0 km/h (0 Bft) W 266 ° 0 min 0 W/m² 10,3 °C 14,9 °C 0,0 km/h (0 Bft)
31.05.2023 21:34 21,8 °C 14,8 °C 54 % 74 % 1020,1 hPa 0,0 l/m² 1,4 km/h (1 Bft) W 266 ° 0 min 0 W/m² 10,2 °C 14,8 °C 3,2 km/h (1 Bft)
31.05.2023 21:35 21,8 °C 14,8 °C 54 % 74 % 1020,1 hPa 0,0 l/m² 1,6 km/h (1 Bft) W 270 ° 0 min 0 W/m² 10,2 °C 14,8 °C 1,6 km/h (1 Bft)
31.05.2023 21:36 21,8 °C 14,8 °C 54 % 74 % 1020,1 hPa 0,0 l/m² 1,6 km/h (1 Bft) W 270 ° 0 min 0 W/m² 10,2 °C 14,8 °C 3,2 km/h (1 Bft)
31.05.2023 21:37 21,8 °C 14,8 °C 54 % 74 % 1020,1 hPa 0,0 l/m² 3,2 km/h (1 Bft) W 270 ° 0 min 0 W/m² 10,2 °C 14,8 °C 3,2 km/h (1 Bft)
31.05.2023 21:38 21,8 °C 14,8 °C 54 % 74 % 1020,1 hPa 0,0 l/m² 3,2 km/h (1 Bft) W 270 ° 0 min 0 W/m² 10,2 °C 14,8 °C 4,8 km/h (1 Bft)
31.05.2023 21:39 21,8 °C 14,8 °C 54 % 74 % 1020,1 hPa 0,0 l/m² 3,2 km/h (1 Bft) W 270 ° 0 min 0 W/m² 10,2 °C 14,8 °C 3,2 km/h (1 Bft)
31.05.2023 21:40 21,8 °C 14,8 °C 54 % 74 % 1020,2 hPa 0,0 l/m² 1,6 km/h (1 Bft) W 270 ° 0 min 0 W/m² 10,2 °C 14,8 °C 3,2 km/h (1 Bft)
31.05.2023 21:41 21,8 °C 14,8 °C 54 % 74 % 1020,1 hPa 0,0 l/m² 1,6 km/h (1 Bft) W 270 ° 0 min 0 W/m² 10,2 °C 14,8 °C 1,6 km/h (1 Bft)
31.05.2023 21:42 21,8 °C 14,8 °C 54 % 74 % 1020,2 hPa 0,0 l/m² 1,6 km/h (1 Bft) W 270 ° 0 min 0 W/m² 10,2 °C 14,8 °C 1,6 km/h (1 Bft)
31.05.2023 21:43 21,8 °C 14,8 °C 54 % 74 % 1020,2 hPa 0,0 l/m² 1,6 km/h (1 Bft) W 270 ° 0 min 0 W/m² 10,2 °C 14,8 °C 1,6 km/h (1 Bft)
31.05.2023 21:44 21,8 °C 14,8 °C 54 % 74 % 1020,2 hPa 0,0 l/m² 0,0 km/h (0 Bft) W 270 ° 0 min 0 W/m² 10,2 °C 14,8 °C 1,6 km/h (1 Bft)
31.05.2023 21:45 21,8 °C 14,8 °C 54 % 74 % 1020,2 hPa 0,0 l/m² 0,0 km/h (0 Bft) N 0 ° 0 min 0 W/m² 10,2 °C 14,8 °C 0,0 km/h (0 Bft)
31.05.2023 21:46 21,7 °C 14,8 °C 54 % 75 % 1020,2 hPa 0,0 l/m² 0,0 km/h (0 Bft) N 0 ° 0 min 0 W/m² 10,4 °C 14,8 °C 0,0 km/h (0 Bft)
31.05.2023 21:47 21,7 °C 14,8 °C 54 % 74 % 1020,3 hPa 0,0 l/m² 0,0 km/h (0 Bft) N 0 ° 0 min 0 W/m² 10,2 °C 14,8 °C 0,0 km/h (0 Bft)
31.05.2023 21:48 21,7 °C 14,8 °C 54 % 74 % 1020,2 hPa 0,0 l/m² 0,0 km/h (0 Bft) N 0 ° 0 min 0 W/m² 10,2 °C 14,8 °C 0,0 km/h (0 Bft)
31.05.2023 21:49 21,7 °C 14,8 °C 54 % 74 % 1020,2 hPa 0,0 l/m² 0,0 km/h (0 Bft) N 0 ° 0 min 0 W/m² 10,2 °C 14,8 °C 0,0 km/h (0 Bft)
31.05.2023 21:50 21,7 °C 14,8 °C 54 % 74 % 1020,3 hPa 0,0 l/m² 0,0 km/h (0 Bft) N 0 ° 0 min 0 W/m² 10,2 °C 14,8 °C 0,0 km/h (0 Bft)
31.05.2023 21:51 21,7 °C 14,8 °C 54 % 74 % 1020,3 hPa 0,0 l/m² 0,0 km/h (0 Bft) N 0 ° 0 min 0 W/m² 10,2 °C 14,8 °C 0,0 km/h (0 Bft)
31.05.2023 21:52 21,7 °C 14,7 °C 54 % 75 % 1020,2 hPa 0,0 l/m² 0,0 km/h (0 Bft) N 0 ° 0 min 0 W/m² 10,3 °C 14,7 °C 0,0 km/h (0 Bft)
31.05.2023 21:53 21,7 °C 14,7 °C 54 % 75 % 1020,2 hPa 0,0 l/m² 0,0 km/h (0 Bft) N 0 ° 0 min 0 W/m² 10,3 °C 14,7 °C 0,0 km/h (0 Bft)
31.05.2023 21:54 21,7 °C 14,7 °C 54 % 75 % 1020,2 hPa 0,0 l/m² 0,0 km/h (0 Bft) N 0 ° 0 min 0 W/m² 10,3 °C 14,7 °C 0,0 km/h (0 Bft)
31.05.2023 21:55 21,7 °C 14,6 °C 54 % 76 % 1020,3 hPa 0,0 l/m² 0,0 km/h (0 Bft) W 270 ° 0 min 0 W/m² 10,4 °C 14,6 °C 1,6 km/h (1 Bft)
31.05.2023 21:56 21,6 °C 14,6 °C 54 % 76 % 1020,3 hPa 0,0 l/m² 0,0 km/h (0 Bft) N 0 ° 0 min 0 W/m² 10,4 °C 14,6 °C 0,0 km/h (0 Bft)
31.05.2023 21:57 21,7 °C 14,5 °C 54 % 76 % 1020,2 hPa 0,0 l/m² 0,0 km/h (0 Bft) N 0 ° 0 min 0 W/m² 10,3 °C 14,5 °C 0,0 km/h (0 Bft)
31.05.2023 21:58 21,6 °C 14,5 °C 54 % 76 % 1020,2 hPa 0,0 l/m² 0,0 km/h (0 Bft) N 0 ° 0 min 0 W/m² 10,3 °C 14,5 °C 0,0 km/h (0 Bft)
31.05.2023 21:59 21,6 °C 14,5 °C 54 % 75 % 1020,2 hPa 0,0 l/m² 0,0 km/h (0 Bft) N 0 ° 0 min 0 W/m² 10,1 °C 14,5 °C 0,0 km/h (0 Bft)
31.05.2023 22:00 21,6 °C 14,6 °C 54 % 75 % 1020,3 hPa 0,0 l/m² 0,0 km/h (0 Bft) N 0 ° 0 min 0 W/m² 10,2 °C 14,6 °C 0,0 km/h (0 Bft)
31.05.2023 22:01 21,6 °C 14,6 °C 54 % 74 % 1020,2 hPa 0,0 l/m² 0,0 km/h (0 Bft) N 0 ° 0 min 0 W/m² 10,0 °C 14,6 °C 0,0 km/h (0 Bft)
31.05.2023 22:02 21,6 °C 14,6 °C 54 % 74 % 1020,2 hPa 0,0 l/m² 0,0 km/h (0 Bft) N 0 ° 0 min 0 W/m² 10,0 °C 14,6 °C 0,0 km/h (0 Bft)
31.05.2023 22:03 21,6 °C 14,6 °C 54 % 74 % 1020,2 hPa 0,0 l/m² 0,0 km/h (0 Bft) N 0 ° 0 min 0 W/m² 10,0 °C 14,6 °C 0,0 km/h (0 Bft)
31.05.2023 22:04 21,6 °C 14,6 °C 54 % 74 % 1020,1 hPa 0,0 l/m² 0,0 km/h (0 Bft) N 0 ° 0 min 0 W/m² 10,0 °C 14,6 °C 0,0 km/h (0 Bft)
31.05.2023 22:05 21,6 °C 14,5 °C 54 % 74 % 1020,2 hPa 0,0 l/m² 0,0 km/h (0 Bft) N 0 ° 0 min 0 W/m² 9,9 °C 14,5 °C 0,0 km/h (0 Bft)
31.05.2023 22:06 21,6 °C 14,4 °C 54 % 74 % 1020,2 hPa 0,0 l/m² 0,0 km/h (0 Bft) N 0 ° 0 min 0 W/m² 9,8 °C 14,4 °C 0,0 km/h (0 Bft)
31.05.2023 22:07 21,6 °C 14,3 °C 54 % 74 % 1020,3 hPa 0,0 l/m² 0,0 km/h (0 Bft) N 0 ° 0 min 0 W/m² 9,7 °C 14,3 °C 0,0 km/h (0 Bft)
31.05.2023 22:08 21,6 °C 14,2 °C 54 % 74 % 1020,1 hPa 0,0 l/m² 0,0 km/h (0 Bft) N 0 ° 0 min 0 W/m² 9,6 °C 14,2 °C 0,0 km/h (0 Bft)
31.05.2023 22:09 21,6 °C 14,1 °C 54 % 75 % 1020,2 hPa 0,0 l/m² 0,0 km/h (0 Bft) N 0 ° 0 min 0 W/m² 9,7 °C 14,1 °C 0,0 km/h (0 Bft)
31.05.2023 22:10 21,6 °C 13,9 °C 54 % 75 % 1020,3 hPa 0,0 l/m² 0,0 km/h (0 Bft) N 0 ° 0 min 0 W/m² 9,5 °C 13,9 °C 0,0 km/h (0 Bft)
31.05.2023 22:11 21,6 °C 13,9 °C 54 % 75 % 1020,2 hPa 0,0 l/m² 0,0 km/h (0 Bft) W 270 ° 0 min 0 W/m² 9,5 °C 13,9 °C 1,6 km/h (1 Bft)
31.05.2023 22:12 21,6 °C 13,8 °C 54 % 75 % 1020,2 hPa 0,0 l/m² 1,6 km/h (1 Bft) W 270 ° 0 min 0 W/m² 9,4 °C 13,8 °C 1,6 km/h (1 Bft)
31.05.2023 22:13 21,6 °C 13,7 °C 54 % 75 % 1020,3 hPa 0,0 l/m² 1,6 km/h (1 Bft) W 270 ° 0 min 0 W/m² 9,3 °C 13,7 °C 3,2 km/h (1 Bft)
31.05.2023 22:14 21,6 °C 13,6 °C 54 % 75 % 1020,3 hPa 0,0 l/m² 0,0 km/h (0 Bft) W 270 ° 0 min 0 W/m² 9,3 °C 13,6 °C 1,6 km/h (1 Bft)
31.05.2023 22:15 21,6 °C 13,5 °C 54 % 76 % 1020,2 hPa 0,0 l/m² 0,0 km/h (0 Bft) N 0 ° 0 min 0 W/m² 9,4 °C 13,5 °C 0,0 km/h (0 Bft)
31.05.2023 22:16 21,6 °C 13,4 °C 54 % 76 % 1020,2 hPa 0,0 l/m² 0,0 km/h (0 Bft) W 270 ° 0 min 0 W/m² 9,3 °C 13,4 °C 1,6 km/h (1 Bft)
31.05.2023 22:17 21,6 °C 13,4 °C 54 % 76 % 1020,1 hPa 0,0 l/m² 0,0 km/h (0 Bft) W 270 ° 0 min 0 W/m² 9,3 °C 13,4 °C 1,6 km/h (1 Bft)
31.05.2023 22:18 21,5 °C 13,4 °C 54 % 77 % 1020,1 hPa 0,0 l/m² 0,0 km/h (0 Bft) N 0 ° 0 min 0 W/m² 9,5 °C 13,4 °C 0,0 km/h (0 Bft)
31.05.2023 22:19 21,6 °C 13,4 °C 54 % 78 % 1020,2 hPa 0,0 l/m² 0,0 km/h (0 Bft) N 0 ° 0 min 0 W/m² 9,6 °C 13,4 °C 0,0 km/h (0 Bft)
31.05.2023 22:20 21,5 °C 13,3 °C 54 % 78 % 1020,1 hPa 0,0 l/m² 0,0 km/h (0 Bft) N 0 ° 0 min 0 W/m² 9,5 °C 13,3 °C 0,0 km/h (0 Bft)
31.05.2023 22:21 21,5 °C 13,3 °C 54 % 78 % 1020,1 hPa 0,0 l/m² 0,0 km/h (0 Bft) N 0 ° 0 min 0 W/m² 9,5 °C 13,3 °C 0,0 km/h (0 Bft)
31.05.2023 22:22 21,5 °C 13,3 °C 54 % 78 % 1020,1 hPa 0,0 l/m² 0,0 km/h (0 Bft) N 0 ° 0 min 0 W/m² 9,5 °C 13,3 °C 0,0 km/h (0 Bft)
31.05.2023 22:23 21,5 °C 13,3 °C 54 % 78 % 1020,1 hPa 0,0 l/m² 0,0 km/h (0 Bft) N 0 ° 0 min 0 W/m² 9,5 °C 13,3 °C 0,0 km/h (0 Bft)
31.05.2023 22:24 21,5 °C 13,3 °C 54 % 78 % 1020,1 hPa 0,0 l/m² 0,0 km/h (0 Bft) N 0 ° 0 min 0 W/m² 9,5 °C 13,3 °C 0,0 km/h (0 Bft)
31.05.2023 22:25 21,5 °C 13,2 °C 55 % 78 % 1020,1 hPa 0,0 l/m² 0,0 km/h (0 Bft) N 0 ° 0 min 0 W/m² 9,4 °C 13,2 °C 0,0 km/h (0 Bft)
31.05.2023 22:26 21,5 °C 13,3 °C 55 % 78 % 1020,2 hPa 0,0 l/m² 0,0 km/h (0 Bft) N 0 ° 0 min 0 W/m² 9,5 °C 13,3 °C 0,0 km/h (0 Bft)
31.05.2023 22:27 21,4 °C 13,2 °C 55 % 78 % 1020,1 hPa 0,0 l/m² 0,0 km/h (0 Bft) W 270 ° 0 min 0 W/m² 9,4 °C 13,2 °C 1,6 km/h (1 Bft)
31.05.2023 22:28 21,5 °C 13,3 °C 55 % 78 % 1020,2 hPa 0,0 l/m² 0,0 km/h (0 Bft) N 0 ° 0 min 0 W/m² 9,5 °C 13,3 °C 0,0 km/h (0 Bft)
31.05.2023 22:29 21,4 °C 13,3 °C 55 % 78 % 1020,1 hPa 0,0 l/m² 0,0 km/h (0 Bft) W 270 ° 0 min 0 W/m² 9,5 °C 13,3 °C 1,6 km/h (1 Bft)
31.05.2023 22:30 21,4 °C 13,2 °C 55 % 78 % 1020,1 hPa 0,0 l/m² 0,0 km/h (0 Bft) N 0 ° 0 min 0 W/m² 9,4 °C 13,2 °C 0,0 km/h (0 Bft)
31.05.2023 22:31 21,4 °C 13,2 °C 55 % 78 % 1020,1 hPa 0,0 l/m² 0,0 km/h (0 Bft) W 270 ° 0 min 0 W/m² 9,4 °C 13,2 °C 1,6 km/h (1 Bft)
31.05.2023 22:32 21,4 °C 13,2 °C 55 % 78 % 1020,1 hPa 0,0 l/m² 0,0 km/h (0 Bft) W 270 ° 0 min 0 W/m² 9,4 °C 13,2 °C 1,6 km/h (1 Bft)
31.05.2023 22:33 21,4 °C 13,2 °C 55 % 78 % 1020,1 hPa 0,0 l/m² 1,6 km/h (1 Bft) W 270 ° 0 min 0 W/m² 9,4 °C 13,2 °C 3,2 km/h (1 Bft)
31.05.2023 22:34 21,4 °C 13,1 °C 55 % 78 % 1020,1 hPa 0,0 l/m² 0,0 km/h (0 Bft) N 0 ° 0 min 0 W/m² 9,4 °C 13,1 °C 0,0 km/h (0 Bft)
31.05.2023 22:35 21,4 °C 13,1 °C 55 % 78 % 1020,3 hPa 0,0 l/m² 0,0 km/h (0 Bft) N 0 ° 0 min 0 W/m² 9,4 °C 13,1 °C 0,0 km/h (0 Bft)
31.05.2023 22:36 21,4 °C 13,1 °C 55 % 78 % 1020,2 hPa 0,0 l/m² 0,0 km/h (0 Bft) N 0 ° 0 min 0 W/m² 9,4 °C 13,1 °C 0,0 km/h (0 Bft)
31.05.2023 22:37 21,4 °C 13,1 °C 55 % 78 % 1020,1 hPa 0,0 l/m² 0,0 km/h (0 Bft) N 0 ° 0 min 0 W/m² 9,4 °C 13,1 °C 0,0 km/h (0 Bft)
31.05.2023 22:38 21,4 °C 13,1 °C 55 % 78 % 1020,3 hPa 0,0 l/m² 0,0 km/h (0 Bft) N 0 ° 0 min 0 W/m² 9,4 °C 13,1 °C 0,0 km/h (0 Bft)
31.05.2023 22:39 21,4 °C 13,1 °C 55 % 78 % 1020,1 hPa 0,0 l/m² 0,0 km/h (0 Bft) N 0 ° 0 min 0 W/m² 9,4 °C 13,1 °C 0,0 km/h (0 Bft)
31.05.2023 22:40 21,4 °C 13,1 °C 55 % 78 % 1020,2 hPa 0,0 l/m² 0,0 km/h (0 Bft) N 0 ° 0 min 0 W/m² 9,4 °C 13,1 °C 0,0 km/h (0 Bft)
31.05.2023 22:41 21,4 °C 13,1 °C 55 % 78 % 1020,1 hPa 0,0 l/m² 0,0 km/h (0 Bft) N 0 ° 0 min 0 W/m² 9,4 °C 13,1 °C 0,0 km/h (0 Bft)
31.05.2023 22:42 21,4 °C 13,1 °C 55 % 78 % 1020,2 hPa 0,0 l/m² 0,0 km/h (0 Bft) N 0 ° 0 min 0 W/m² 9,4 °C 13,1 °C 0,0 km/h (0 Bft)
31.05.2023 22:43 21,4 °C 13,1 °C 55 % 78 % 1020,1 hPa 0,0 l/m² 0,0 km/h (0 Bft) N 0 ° 0 min 0 W/m² 9,4 °C 13,1 °C 0,0 km/h (0 Bft)
31.05.2023 22:44 21,4 °C 13,0 °C 55 % 78 % 1020,1 hPa 0,0 l/m² 0,0 km/h (0 Bft) N 0 ° 0 min 0 W/m² 9,3 °C 13,0 °C 0,0 km/h (0 Bft)
31.05.2023 22:45 21,4 °C 13,0 °C 55 % 78 % 1020,2 hPa 0,0 l/m² 0,0 km/h (0 Bft) N 0 ° 0 min 0 W/m² 9,3 °C 13,0 °C 0,0 km/h (0 Bft)
31.05.2023 22:46 21,4 °C 13,0 °C 55 % 78 % 1020,1 hPa 0,0 l/m² 0,0 km/h (0 Bft) N 0 ° 0 min 0 W/m² 9,3 °C 13,0 °C 0,0 km/h (0 Bft)
31.05.2023 22:47 21,4 °C 12,9 °C 55 % 78 % 1020,1 hPa 0,0 l/m² 0,0 km/h (0 Bft) N 0 ° 0 min 0 W/m² 9,2 °C 12,9 °C 0,0 km/h (0 Bft)
31.05.2023 22:48 21,4 °C 12,9 °C 55 % 78 % 1020,1 hPa 0,0 l/m² 0,0 km/h (0 Bft) N 0 ° 0 min 0 W/m² 9,2 °C 12,9 °C 0,0 km/h (0 Bft)
31.05.2023 22:49 21,4 °C 12,8 °C 55 % 79 % 1020,2 hPa 0,0 l/m² 0,0 km/h (0 Bft) N 0 ° 0 min 0 W/m² 9,2 °C 12,8 °C 0,0 km/h (0 Bft)
31.05.2023 22:50 21,4 °C 12,8 °C 55 % 79 % 1020,1 hPa 0,0 l/m² 0,0 km/h (0 Bft) N 0 ° 0 min 0 W/m² 9,2 °C 12,8 °C 0,0 km/h (0 Bft)
31.05.2023 22:51 21,4 °C 12,8 °C 55 % 78 % 1020,1 hPa 0,0 l/m² 0,0 km/h (0 Bft) N 0 ° 0 min 0 W/m² 9,1 °C 12,8 °C 0,0 km/h (0 Bft)
31.05.2023 22:52 21,4 °C 12,8 °C 55 % 78 % 1020,2 hPa 0,0 l/m² 0,0 km/h (0 Bft) N 0 ° 0 min 0 W/m² 9,1 °C 12,8 °C 0,0 km/h (0 Bft)
31.05.2023 22:53 21,4 °C 12,8 °C 55 % 78 % 1020,1 hPa 0,0 l/m² 0,0 km/h (0 Bft) N 0 ° 0 min 0 W/m² 9,1 °C 12,8 °C 0,0 km/h (0 Bft)
31.05.2023 22:54 21,4 °C 12,8 °C 55 % 79 % 1020,1 hPa 0,0 l/m² 0,0 km/h (0 Bft) N 0 ° 0 min 0 W/m² 9,2 °C 12,8 °C 0,0 km/h (0 Bft)
31.05.2023 22:55 21,4 °C 12,8 °C 55 % 79 % 1020,1 hPa 0,0 l/m² 0,0 km/h (0 Bft) N 0 ° 0 min 0 W/m² 9,2 °C 12,8 °C 0,0 km/h (0 Bft)
31.05.2023 22:56 21,4 °C 12,8 °C 55 % 79 % 1020,0 hPa 0,0 l/m² 0,0 km/h (0 Bft) N 0 ° 0 min 0 W/m² 9,2 °C 12,8 °C 0,0 km/h (0 Bft)
31.05.2023 22:57 21,4 °C 12,7 °C 55 % 79 % 1020,1 hPa 0,0 l/m² 0,0 km/h (0 Bft) N 0 ° 0 min 0 W/m² 9,2 °C 12,7 °C 0,0 km/h (0 Bft)
31.05.2023 22:58 21,4 °C 12,7 °C 55 % 79 % 1020,1 hPa 0,0 l/m² 0,0 km/h (0 Bft) N 0 ° 0 min 0 W/m² 9,2 °C 12,7 °C 0,0 km/h (0 Bft)
31.05.2023 22:59 21,4 °C 12,7 °C 55 % 80 % 1020,1 hPa 0,0 l/m² 0,0 km/h (0 Bft) N 0 ° 0 min 0 W/m² 9,3 °C 12,7 °C 0,0 km/h (0 Bft)
31.05.2023 23:00 21,3 °C 12,7 °C 55 % 80 % 1020,1 hPa 0,0 l/m² 0,0 km/h (0 Bft) N 0 ° 0 min 0 W/m² 9,3 °C 12,7 °C 0,0 km/h (0 Bft)
31.05.2023 23:01 21,3 °C 12,7 °C 55 % 80 % 1020,1 hPa 0,0 l/m² 0,0 km/h (0 Bft) N 0 ° 0 min 0 W/m² 9,3 °C 12,7 °C 0,0 km/h (0 Bft)
31.05.2023 23:02 21,4 °C 12,7 °C 55 % 80 % 1020,0 hPa 0,0 l/m² 0,0 km/h (0 Bft) N 0 ° 0 min 0 W/m² 9,3 °C 12,7 °C 0,0 km/h (0 Bft)
31.05.2023 23:03 21,3 °C 12,7 °C 55 % 80 % 1020,0 hPa 0,0 l/m² 0,0 km/h (0 Bft) N 0 ° 0 min 0 W/m² 9,3 °C 12,7 °C 0,0 km/h (0 Bft)
31.05.2023 23:04 21,3 °C 12,7 °C 55 % 80 % 1020,0 hPa 0,0 l/m² 0,0 km/h (0 Bft) N 0 ° 0 min 0 W/m² 9,3 °C 12,7 °C 0,0 km/h (0 Bft)
31.05.2023 23:05 21,4 °C 12,8 °C 55 % 80 % 1020,0 hPa 0,0 l/m² 0,0 km/h (0 Bft) N 0 ° 0 min 0 W/m² 9,4 °C 12,8 °C 0,0 km/h (0 Bft)
31.05.2023 23:06 21,3 °C 12,7 °C 55 % 80 % 1020,0 hPa 0,0 l/m² 0,0 km/h (0 Bft) N 0 ° 0 min 0 W/m² 9,3 °C 12,7 °C 0,0 km/h (0 Bft)
31.05.2023 23:07 21,3 °C 12,7 °C 55 % 80 % 1020,0 hPa 0,0 l/m² 1,6 km/h (1 Bft) W 270 ° 0 min 0 W/m² 9,3 °C 12,7 °C 3,2 km/h (1 Bft)
31.05.2023 23:08 21,3 °C 12,7 °C 55 % 80 % 1019,9 hPa 0,0 l/m² 1,6 km/h (1 Bft) W 270 ° 0 min 0 W/m² 9,3 °C 12,7 °C 3,2 km/h (1 Bft)
31.05.2023 23:09 21,3 °C 12,7 °C 55 % 80 % 1020,0 hPa 0,0 l/m² 3,2 km/h (1 Bft) W 270 ° 0 min 0 W/m² 9,3 °C 12,7 °C 3,2 km/h (1 Bft)
31.05.2023 23:10 21,3 °C 12,8 °C 55 % 80 % 1019,9 hPa 0,0 l/m² 1,6 km/h (1 Bft) W-SW 247 ° 0 min 0 W/m² 9,4 °C 12,8 °C 3,2 km/h (1 Bft)
31.05.2023 23:11 21,3 °C 12,8 °C 55 % 80 % 1020,0 hPa 0,0 l/m² 1,6 km/h (1 Bft) W-SW 247 ° 0 min 0 W/m² 9,4 °C 12,8 °C 3,2 km/h (1 Bft)
31.05.2023 23:12 21,3 °C 12,9 °C 55 % 80 % 1019,9 hPa 0,0 l/m² 1,6 km/h (1 Bft) W-SW 247 ° 0 min 0 W/m² 9,5 °C 12,9 °C 3,2 km/h (1 Bft)
31.05.2023 23:13 21,3 °C 12,9 °C 55 % 80 % 1019,9 hPa 0,0 l/m² 1,6 km/h (1 Bft) W-SW 247 ° 0 min 0 W/m² 9,5 °C 12,9 °C 1,6 km/h (1 Bft)
31.05.2023 23:14 21,3 °C 12,9 °C 55 % 79 % 1019,9 hPa 0,0 l/m² 1,6 km/h (1 Bft) W-SW 247 ° 0 min 0 W/m² 9,3 °C 12,9 °C 3,2 km/h (1 Bft)
31.05.2023 23:15 21,3 °C 12,9 °C 55 % 79 % 1019,9 hPa 0,0 l/m² 1,6 km/h (1 Bft) W-SW 247 ° 0 min 0 W/m² 9,3 °C 12,9 °C 3,2 km/h (1 Bft)
31.05.2023 23:16 21,3 °C 13,0 °C 55 % 79 % 1020,0 hPa 0,0 l/m² 3,2 km/h (1 Bft) W-SW 247 ° 0 min 0 W/m² 9,4 °C 13,0 °C 3,2 km/h (1 Bft)
31.05.2023 23:17 21,3 °C 13,0 °C 55 % 79 % 1019,9 hPa 0,0 l/m² 3,2 km/h (1 Bft) W-SW 247 ° 0 min 0 W/m² 9,4 °C 13,0 °C 4,8 km/h (1 Bft)
31.05.2023 23:18 21,3 °C 12,9 °C 55 % 79 % 1019,9 hPa 0,0 l/m² 1,6 km/h (1 Bft) W-SW 247 ° 0 min 0 W/m² 9,3 °C 12,9 °C 4,8 km/h (1 Bft)
31.05.2023 23:19 21,3 °C 12,9 °C 55 % 78 % 1020,0 hPa 0,0 l/m² 1,6 km/h (1 Bft) W-SW 247 ° 0 min 0 W/m² 9,2 °C 12,9 °C 3,2 km/h (1 Bft)
31.05.2023 23:20 21,3 °C 12,8 °C 55 % 78 % 1020,0 hPa 0,0 l/m² 1,6 km/h (1 Bft) W-SW 247 ° 0 min 0 W/m² 9,1 °C 12,8 °C 3,2 km/h (1 Bft)
31.05.2023 23:21 21,3 °C 12,8 °C 55 % 78 % 1020,0 hPa 0,0 l/m² 0,0 km/h (0 Bft) W-SW 247 ° 0 min 0 W/m² 9,1 °C 12,8 °C 1,6 km/h (1 Bft)
31.05.2023 23:22 21,3 °C 12,7 °C 55 % 78 % 1020,0 hPa 0,0 l/m² 3,2 km/h (1 Bft) W-SW 247 ° 0 min 0 W/m² 9,0 °C 12,7 °C 4,8 km/h (1 Bft)
31.05.2023 23:23 21,3 °C 12,7 °C 55 % 78 % 1020,0 hPa 0,0 l/m² 3,2 km/h (1 Bft) W-SW 247 ° 0 min 0 W/m² 9,0 °C 12,7 °C 3,2 km/h (1 Bft)
31.05.2023 23:24 21,3 °C 12,7 °C 55 % 78 % 1020,0 hPa 0,0 l/m² 3,2 km/h (1 Bft) W-SW 247 ° 0 min 0 W/m² 9,0 °C 12,7 °C 4,8 km/h (1 Bft)
31.05.2023 23:25 21,3 °C 12,7 °C 55 % 78 % 1020,1 hPa 0,0 l/m² 1,6 km/h (1 Bft) W-SW 247 ° 0 min 0 W/m² 9,0 °C 12,7 °C 4,8 km/h (1 Bft)
31.05.2023 23:26 21,3 °C 12,6 °C 55 % 78 % 1020,0 hPa 0,0 l/m² 1,6 km/h (1 Bft) W-SW 247 ° 0 min 0 W/m² 8,9 °C 12,6 °C 3,2 km/h (1 Bft)
31.05.2023 23:27 21,3 °C 12,6 °C 55 % 78 % 1020,0 hPa 0,0 l/m² 3,2 km/h (1 Bft) W-SW 247 ° 0 min 0 W/m² 8,9 °C 12,6 °C 3,2 km/h (1 Bft)
31.05.2023 23:28 21,3 °C 12,6 °C 55 % 78 % 1020,0 hPa 0,0 l/m² 1,6 km/h (1 Bft) W-SW 247 ° 0 min 0 W/m² 8,9 °C 12,6 °C 3,2 km/h (1 Bft)
31.05.2023 23:29 21,3 °C 12,5 °C 55 % 78 % 1020,0 hPa 0,0 l/m² 1,6 km/h (1 Bft) W-SW 247 ° 0 min 0 W/m² 8,8 °C 12,5 °C 1,6 km/h (1 Bft)
31.05.2023 23:30 21,3 °C 12,4 °C 55 % 78 % 1020,0 hPa 0,0 l/m² 1,6 km/h (1 Bft) W-SW 247 ° 0 min 0 W/m² 8,7 °C 12,4 °C 3,2 km/h (1 Bft)
31.05.2023 23:31 21,3 °C 12,4 °C 55 % 78 % 1020,1 hPa 0,0 l/m² 1,6 km/h (1 Bft) W-SW 247 ° 0 min 0 W/m² 8,7 °C 12,4 °C 3,2 km/h (1 Bft)
31.05.2023 23:32 21,3 °C 12,4 °C 55 % 78 % 1019,9 hPa 0,0 l/m² 1,6 km/h (1 Bft) W-SW 247 ° 0 min 0 W/m² 8,7 °C 12,4 °C 1,6 km/h (1 Bft)
31.05.2023 23:33 21,3 °C 12,4 °C 55 % 79 % 1020,0 hPa 0,0 l/m² 0,0 km/h (0 Bft) W-SW 247 ° 0 min 0 W/m² 8,9 °C 12,4 °C 1,6 km/h (1 Bft)
31.05.2023 23:34 21,3 °C 12,3 °C 55 % 79 % 1020,0 hPa 0,0 l/m² 0,0 km/h (0 Bft) N 0 ° 0 min 0 W/m² 8,8 °C 12,3 °C 0,0 km/h (0 Bft)
31.05.2023 23:35 21,3 °C 12,3 °C 55 % 79 % 1020,0 hPa 0,0 l/m² 0,0 km/h (0 Bft) W-SW 247 ° 0 min 0 W/m² 8,8 °C 12,3 °C 1,6 km/h (1 Bft)
31.05.2023 23:36 21,3 °C 12,3 °C 55 % 79 % 1020,0 hPa 0,0 l/m² 0,0 km/h (0 Bft) W-SW 247 ° 0 min 0 W/m² 8,8 °C 12,3 °C 1,6 km/h (1 Bft)
31.05.2023 23:37 21,3 °C 12,3 °C 55 % 79 % 1020,0 hPa 0,0 l/m² 0,0 km/h (0 Bft) N 0 ° 0 min 0 W/m² 8,8 °C 12,3 °C 0,0 km/h (0 Bft)
31.05.2023 23:38 21,3 °C 12,3 °C 55 % 79 % 1020,0 hPa 0,0 l/m² 0,0 km/h (0 Bft) N 0 ° 0 min 0 W/m² 8,8 °C 12,3 °C 0,0 km/h (0 Bft)
31.05.2023 23:39 21,3 °C 12,3 °C 55 % 79 % 1020,0 hPa 0,0 l/m² 0,0 km/h (0 Bft) N 0 ° 0 min 0 W/m² 8,8 °C 12,3 °C 0,0 km/h (0 Bft)
31.05.2023 23:40 21,3 °C 12,3 °C 55 % 79 % 1020,0 hPa 0,0 l/m² 0,0 km/h (0 Bft) W-SW 247 ° 0 min 0 W/m² 8,8 °C 12,3 °C 1,6 km/h (1 Bft)
31.05.2023 23:41 21,3 °C 12,3 °C 55 % 79 % 1019,9 hPa 0,0 l/m² 1,6 km/h (1 Bft) W-SW 247 ° 0 min 0 W/m² 8,8 °C 12,3 °C 3,2 km/h (1 Bft)
31.05.2023 23:42 21,3 °C 12,3 °C 55 % 79 % 1020,0 hPa 0,0 l/m² 1,6 km/h (1 Bft) W-SW 247 ° 0 min 0 W/m² 8,8 °C 12,3 °C 3,2 km/h (1 Bft)
31.05.2023 23:43 21,3 °C 12,3 °C 55 % 79 % 1020,0 hPa 0,0 l/m² 1,6 km/h (1 Bft) W-SW 247 ° 0 min 0 W/m² 8,8 °C 12,3 °C 3,2 km/h (1 Bft)
31.05.2023 23:44 21,3 °C 12,3 °C 55 % 79 % 1020,0 hPa 0,0 l/m² 1,6 km/h (1 Bft) W-SW 247 ° 0 min 0 W/m² 8,8 °C 12,3 °C 3,2 km/h (1 Bft)
31.05.2023 23:45 21,3 °C 12,3 °C 55 % 79 % 1020,0 hPa 0,0 l/m² 1,6 km/h (1 Bft) W-SW 247 ° 0 min 0 W/m² 8,8 °C 12,3 °C 3,2 km/h (1 Bft)
31.05.2023 23:46 21,3 °C 12,3 °C 55 % 80 % 1019,9 hPa 0,0 l/m² 1,6 km/h (1 Bft) W-SW 247 ° 0 min 0 W/m² 8,9 °C 12,3 °C 3,2 km/h (1 Bft)
31.05.2023 23:47 21,3 °C 12,3 °C 55 % 80 % 1019,9 hPa 0,0 l/m² 1,6 km/h (1 Bft) W-SW 247 ° 0 min 0 W/m² 8,9 °C 12,3 °C 3,2 km/h (1 Bft)
31.05.2023 23:48 21,3 °C 12,3 °C 55 % 80 % 1019,9 hPa 0,0 l/m² 1,6 km/h (1 Bft) W-SW 247 ° 0 min 0 W/m² 8,9 °C 12,3 °C 3,2 km/h (1 Bft)
31.05.2023 23:49 21,3 °C 12,2 °C 55 % 80 % 1020,1 hPa 0,0 l/m² 1,6 km/h (1 Bft) W-SW 247 ° 0 min 0 W/m² 8,9 °C 12,2 °C 3,2 km/h (1 Bft)
31.05.2023 23:50 21,3 °C 12,2 °C 55 % 80 % 1020,1 hPa 0,0 l/m² 1,6 km/h (1 Bft) W-SW 247 ° 0 min 0 W/m² 8,9 °C 12,2 °C 4,8 km/h (1 Bft)
31.05.2023 23:51 21,2 °C 12,2 °C 55 % 80 % 1020,1 hPa 0,0 l/m² 1,6 km/h (1 Bft) W-SW 247 ° 0 min 0 W/m² 8,9 °C 12,2 °C 4,8 km/h (1 Bft)
31.05.2023 23:52 21,3 °C 12,2 °C 55 % 79 % 1020,1 hPa 0,0 l/m² 3,2 km/h (1 Bft) W-SW 247 ° 0 min 0 W/m² 8,7 °C 12,2 °C 6,4 km/h (2 Bft)
31.05.2023 23:53 21,3 °C 12,1 °C 55 % 79 % 1020,1 hPa 0,0 l/m² 3,2 km/h (1 Bft) W-SW 247 ° 0 min 0 W/m² 8,6 °C 12,1 °C 4,8 km/h (1 Bft)
31.05.2023 23:54 21,3 °C 12,1 °C 55 % 79 % 1020,1 hPa 0,0 l/m² 1,6 km/h (1 Bft) W-SW 247 ° 0 min 0 W/m² 8,6 °C 12,1 °C 3,2 km/h (1 Bft)
31.05.2023 23:55 21,3 °C 12,0 °C 55 % 79 % 1020,1 hPa 0,0 l/m² 3,2 km/h (1 Bft) W-SW 247 ° 0 min 0 W/m² 8,5 °C 12,0 °C 3,2 km/h (1 Bft)
31.05.2023 23:56 21,3 °C 12,0 °C 55 % 79 % 1020,1 hPa 0,0 l/m² 3,2 km/h (1 Bft) W-SW 247 ° 0 min 0 W/m² 8,5 °C 12,0 °C 4,8 km/h (1 Bft)
31.05.2023 23:57 21,2 °C 11,9 °C 55 % 79 % 1020,1 hPa 0,0 l/m² 3,2 km/h (1 Bft) W-SW 247 ° 0 min 0 W/m² 8,4 °C 11,9 °C 4,8 km/h (1 Bft)
31.05.2023 23:58 21,3 °C 11,9 °C 55 % 79 % 1020,2 hPa 0,0 l/m² 3,2 km/h (1 Bft) W-SW 247 ° 0 min 0 W/m² 8,4 °C 11,9 °C 4,8 km/h (1 Bft)
31.05.2023 23:59 21,3 °C 11,8 °C 55 % 79 % 1020,1 hPa 0,0 l/m² 1,6 km/h (1 Bft) W-SW 247 ° 0 min 0 W/m² 8,3 °C 11,8 °C 3,2 km/h (1 Bft)
_ Min-Zeit 05:03 04:46 18:19 17:55 23:48 - 23:40 - - - - 04:46 04:46 23:39
Minimum _ 20,4 °C 5,5 °C 48 % 36 % 1019,9 hPa - 0,0 km/h (0 Bft) - - - - 4,0 °C 5,5 °C 0,0 km/h (0 Bft)
_ Max-Zeit 15:47 18:07 23:59 06:13 08:57 23:59 14:30 - - 11:34 13:07 12:04 18:06 16:11
Maximum _ 22,0 °C 24,9 °C 55 % 92 % 1025,6 hPa 0,0 l/m² 15,3 km/h
N-NW (3 Bft)
- - 3 min 1007 W/m² 12,5 °C 24,9 °C 20,9 km/h
N (4 Bft)
Durchschnitt _ 21,3 °C 16,5 °C 54 % 64 % 1023,3 hPa #0,0 l/m² 3,1 km/h (1 Bft) N - #12:54 h 323 W/m² 8,9 °C 16,4 °C 5,9 km/h (2 Bft)
© 2009 Mathias Hoßbach